     2              OBSERVATION DATA    GPS                 RINEX VERSION / TYPE
ASRINEXO V2.4.4 UX USGS 29-MAR-95 13:28                     PGM / RUN BY / DATE
                                                            COMMENT
Original Marker Name: p16x P_16_Reset_1978_NGS              COMMENT
Campaign Name: USGS Yucca Profile                           COMMENT
4-Character Station Name: P16X                              COMMENT
6-Character Antenna Code: ASHP12                            COMMENT
Vertical Measurement Point: EGP                             COMMENT
Vertical Offset to Rinex Ref. Point: 0.0593                 COMMENT
Radial Measurement Point: EGP                               COMMENT
Radial Offset to Rinex Ref. Point: 0.1425                   COMMENT
Antenna Height from Field Measurement: 1.3370 m             COMMENT
Additional Antenna Identification Info.:                    COMMENT
Ashtech L1/L2 Revision B (700228DE)                         COMMENT
Original XYZ: -2664076.5800 -4323126.8100 3848381.4000      COMMENT
New XYZ position is based on association with SCEC monument COMMENT
E1G0F5Y1+0011. Position of that monument is believed to be  COMMENT
valid to within 1 m horizontally; vertical accuracy         COMMENT
should be no worse than 3-times this value.                 COMMENT
                                                            COMMENT
Revised Rinex header created by UCSD GPS archive for        COMMENT
GSAC on 08-Aug-2000 (2000:221) 00:28:51 GMT                 COMMENT
For assistance contact dagnew@ucsd.edu                      COMMENT
or anderson@python.ucsd.edu                                 COMMENT
                                                            COMMENT
P16 RESET 1978                                              MARKER NAME
KWC US GEOLOGICAL SURVEY                                    OBSERVER / AGENCY
O4582 ASHTECH Z-XII3 1E00                                   REC # / TYPE / VERS
1068 ASHTECH GEODETIC P                                     ANT # / TYPE
 -2300654.7377 -4565209.2776  3802677.1232                  APPROX POSITION XYZ
        1.2701        0.0000        0.0000                  ANTENNA: DELTA H/E/N
     1     1     0                                          WAVELENGTH FACT L1/2
     5    C1    L1    L2    P1    P2                        # / TYPES OF OBSERV
    30                                                      INTERVAL
  1995     3    22    16     4   30.000000                  TIME OF FIRST OBS
  1995     3    22    22    30   30.000000                  TIME OF LAST OBS
                                                            END OF HEADER
 95  3 22 16  4 30.0000000  0  6 19 29  4 22 18 14
  17240708.626      -71810.28819
  15034779.678      -29288.35519
  19141071.461      -12199.69019
  15871713.068        7377.85959      4337.88259  15871715.5354   15871722.8434
  16018742.055      -52996.70719
  15589983.356       43517.28959     25187.72759  15589986.0464   15589992.8094
 95  3 22 16  5  0.0000000  0  6 19 29  4 22 18 14
  17219784.879     -181762.58259   -126374.24859  17219786.9014   17219795.2084
  15023773.719      -87127.73859    -48527.74159  15023775.9464   15023780.4154
  19138949.272      -23361.67259    -16006.89759  19138948.7244   19138958.4204
  15873212.023       15247.24849     10469.87649  15873213.4034   15873219.5414
  15999106.313     -156179.45359   -102539.84359  15999107.3934   15999113.7414
  15596889.637       79813.38249     53470.36049  15596892.2964   15596898.0514
 95  3 22 16  5 30.0020000  0  6 19 29  4 22 18 14
  23194603.482     -292281.15649   -212492.60849  23194605.8894   23194612.3304
  21008517.050     -145486.64049    -94002.18549  21008519.6914   21008524.6974
  25132599.869      -34910.62649    -25006.15749  25132600.7844   25132606.7474
  21870512.021       22875.23349     16413.74649  21870513.8514   21870519.9354
  21975202.454     -259984.31249   -183426.72049  21975203.8254   21975209.6064
  21599571.580      115714.60849     81445.29849  21599573.2754   21599579.0494
 95  3 22 16  6  0.0010000  0  6 19 29  4 22 18 14
  23173469.467     -403336.63549   -299029.33049  23173472.3784   23173479.2434
  20997324.864     -204302.37349   -139832.63649  20997327.5164   20997332.3294
  25130351.314      -46723.88749    -34211.29649  25130351.5674   25130359.1714
  21871942.174       30387.22549     22267.23449  21871943.4334   21871949.5934
  21955335.788     -364388.02749   -264780.25849  21955336.4744   21955342.1894
  21606359.812      151385.80349    109240.99949  21606361.3444   21606367.3524
 95  3 22 16  6 30.0010000  0  6 19 29  4 22 18 14
  23152261.851     -514782.12349   -385869.94149  23152264.9174   23152272.2524
  20986066.220     -263472.41349   -185939.16549  20986067.7964   20986072.6054
  25128063.847      -58721.77649    -43560.36349  25128068.4334   25128077.2074
  21873362.460       37844.40349     28078.01349  21873362.5944   21873368.5024
  21935375.930     -469269.70049   -346506.22449  21935377.9224   21935383.7494
  21613112.961      186876.10949    136895.74449  21613115.0164   21613121.0144
 95  3 22 16  7  0.0010000  0  6 19 29  4 22 18 14
  23130995.127     -626546.00549   -472958.65349  23130996.8534   23131004.0194
  20974749.873     -322937.24549   -232275.40849  20974752.0834   20974756.8984
  25125760.764      -70860.42949    -53019.10149  25125759.2044   25125765.5514
  21874778.644       45290.67249     33880.29349  21874779.9444   21874785.6354
  21915338.177     -574567.64749   -428556.57349  21915340.5194   21915346.4314
  21619837.543      222213.32649    164431.20349  21619839.4154   21619845.6014
 95  3 22 16  7 30.0010000  0  6 19 29  4 22 18 14
  23109674.686     -738594.61949   -560269.24849  23109675.4404   23109682.5504
  20963386.869     -382651.10349   -278805.70349  20963388.9824   20963393.6764
  25123425.698      -83112.72049    -62566.36249  25123428.3654   25123436.0834
  21876197.334       52736.54349     39682.25949  21876196.8184   21876202.5164
  21895236.501     -680205.67449   -510871.91749  21895238.3584   21895244.1014
  21626542.482      257450.52449    191888.71549  21626544.7554   21626551.3414
 95  3 22 16  8  0.0010000  0  6 19 29  4 22 18 14
  23088301.929     -850899.01749   -647779.14049  23088304.4364   23088311.3334
  20951986.037     -442561.17749   -325488.89249  20951988.5994   20951993.1664
  25121078.740      -95443.01249    -72174.42349  25121082.4684   25121088.6184
  21877616.978       60204.75149     45501.62849  21877617.8514   21877623.6574
  21875082.348     -786120.21449   -593402.72749  21875083.8194   21875089.2714
  21633238.489      292641.80349    219310.45049  21633241.5334   21633247.8964
 95  3 22 16  8 30.0010000  0  6 19 29  4 22 18 14
  23066887.778     -963432.73849   -735467.74049  23066890.0734   23066897.1384
  20940555.586     -502629.16749   -372295.12449  20940557.8484   20940562.8294
  25118719.376     -107836.15549    -81831.46749  25118723.4184   25118730.2784
  21879048.881       67730.39949     51365.75649  21879049.8004   21879055.9284
  21854882.374     -892274.60249   -676120.43449  21854883.1104   21854888.7564
  21639931.791      327812.25849    246715.95749  21639934.1214   21639940.8814
 95  3 22 16  9  0.0010000  0  6 19 29  4 22 18 14
  23045435.207    -1076170.35049   -823315.19949  23045436.1454   23045443.3554
  20929098.431     -562838.05349   -419211.14049  20929100.5564   20929105.3754
  25116351.665     -120262.65849    -91514.45749  25116358.7244   25116365.0474
  21880496.646       75338.89549     57294.44949  21880497.6304   21880503.7314
  21834642.526     -998629.64349   -758994.48349  21834644.2494   21834649.9444
  21646625.317      362983.13349    274121.80149  21646627.0964   21646633.4644
 95  3 22 16  9 30.0010000  0  6 19 29  4 22 18 14
  23023944.449    -1189104.58549   -911315.87149  23023945.4594   23023952.8134
  20917616.952     -623171.36349   -466224.11249  20917619.5344   20917624.5134
  25113993.837     -132676.78049   -101187.86049  25113997.0334   25114003.9234
  21881965.896       83055.96549     63307.74149  21881966.4254   21881972.4754
  21814369.364    -1105169.45549   -842012.51049  21814370.3884   21814376.3734
  21653325.896      398192.60349    301557.71949  21653327.2274   21653333.8684
 95  3 22 16 10  0.0010000  0  6 19 29  4 22 18 14
  23002416.530    -1302222.86849   -999459.97549  23002419.9084   23002427.5154
  20906115.916     -683616.07649   -513323.89749  20906117.3744   20906122.1214
  25111639.151     -145047.69849   -110827.60649  25111641.2654   25111650.0214
  21883460.030       90914.24549     69431.07049  21883461.5584   21883467.8904
  21794060.735    -1211890.48649   -925171.74849  21794062.1114   21794068.1874
  21660034.368      433446.73849    329028.43849  21660035.9244   21660042.5704
 95  3 22 16 10 30.0010000  0  6 19 29  4 22 18 14
  22980858.983    -1415512.04449  -1087737.22749  22980861.7814   22980869.3234
  20894592.232     -744168.64149   -560507.72149  20894594.6194   20894599.3404
  25109299.658     -157348.43649   -120412.63349  25109301.8124   25109308.3934
  21884985.348       98932.78249     75679.27049  21884987.5284   21884993.9314
  21773719.101    -1318787.15449  -1008467.84849  21773720.4194   21773726.2784
  21666755.838      468771.35049    356554.07349  21666758.0684   21666764.5854
 95  3 22 16 11  0.0010000  0  6 19 29  4 22 18 14
  22959269.664    -1528967.24349  -1176143.86349  22959272.1624   22959279.2194
  20883051.474     -804816.49249   -607765.80249  20883053.6914   20883058.7284
  25106975.285     -169563.08749   -129930.58249  25106976.8894   25106985.1694
  21886547.032      107126.02949     82063.60449  21886546.8924   21886553.1904
  21753343.909    -1425858.80649  -1091900.30649  21753345.3994   21753351.1324
  21673495.893      504192.21449    384154.69849  21673498.7234   21673505.0014
 95  3 22 16 11 30.0010000  0  6 19 29  4 22 18 14
  22937648.599    -1642585.54149  -1264677.57149  22937650.9724   22937658.4704
  20871496.914     -865533.50849   -655077.75849  20871499.6204   20871504.4414
  25104667.973     -181705.74449   -139392.45449  25104666.3554   25104673.8324
  21888139.608      115506.65349     88593.95449  21888141.3484   21888147.8304
  21732939.110    -1533093.39149  -1175459.71249  21732939.4764   21732945.1854
  21680257.436      539719.89449    411838.56849  21680259.4354   21680265.9584
 95  3 22 16 12  0.0010000  0  6 19 29  4 22 18 14
  22916001.052    -1756341.74049  -1353318.73949  22916003.8044   22916011.3254
  20859933.435     -926307.46549   -702434.09549  20859934.7044   20859939.6984
  25102363.936     -193800.79749   -148817.20149  25102365.4734   25102371.7204
  21889772.857      124086.23649     95279.33449  21889774.0994   21889780.6564
  21712501.652    -1640485.48349  -1259141.85049  21712503.2634   21712509.1314
  21687039.155      575352.85749    439604.47649  21687040.0244   21687046.6574
 95  3 22 16 12 30.0010000  0  6 19 29  4 22 18 14
  22894332.966    -1870212.50849  -1442049.18449  22894334.7384   22894342.5994
  20848356.914     -987137.42149   -749834.06549  20848359.1934   20848364.1424
  25100067.260     -205851.36149   -158207.27449  25100072.4484   25100079.9684
  21891443.730      132866.93049    102121.42049  21891444.7664   21891451.4814
  21692037.572    -1748030.39249  -1342943.07049  21692038.4654   21692044.1754
  21693838.181      611089.66649    467451.31049  21693840.7174   21693846.8964
 95  3 22 16 13  0.0010000  0  6 19 29  4 22 18 14
  22872646.643    -1984172.88749  -1530849.44149  22872648.9974   22872656.5014
  20836773.812    -1048012.60949   -797269.28449  20836775.2844   20836779.7914
  25097788.157     -217855.23549   -167560.99549  25097788.3864   25097795.2704
  21893155.213      141855.42449    109125.42749  21893155.5304   21893161.7664
  21671545.844    -1855715.33149  -1426853.39949  21671546.7014   21671552.2054
  21700656.068      646915.28349    495367.34549  21700658.0884   21700664.4614
 95  3 22 16 13 30.0010000  0  6 19 29  4 22 18 14
  22850942.824    -2098219.05049  -1619716.53949  22850946.8284   22850954.2974
  20825181.708    -1108927.10049   -844735.12749  20825183.6534   20825188.2714
  25095515.798     -229794.68349   -176864.50049  25095516.3424   25095523.2064
  21894904.411      151050.97449    116290.77349  21894905.3664   21894911.8644
  21651030.676    -1963524.77549  -1510860.75249  21651031.2504   21651036.7134
  21707492.740      682834.86449    523356.59049  21707493.5284   21707499.8484
 95  3 22 16 14  0.0010000  0  5 19 29 22 18 14
  22829230.581    -2212333.43849  -1708636.79249  22829232.1964   22829239.1224
  20813584.251    -1169869.85749   -892222.99849  20813586.7444   20813590.9934
  21896698.138      160465.76149    123626.95849  21896697.0174   21896703.4164
  21630492.540    -2071447.72149  -1594956.54149  21630494.1304   21630499.4704
  21714348.101      718866.51249    551433.17049  21714350.0524   21714356.3934
 95  3 22 16 14 30.0010000  0  5 19 29 22 18 14
  22807501.604    -2326512.19849  -1797607.21749  22807503.9494   22807511.6874
  20801986.285    -1230817.51349   -939714.68449  20801988.7584   20801993.3944
  21898530.134      170106.71849    131139.37749  21898531.5864   21898538.0304
  21609939.459    -2179460.74749  -1679122.53549  21609939.9304   21609945.3474
  21721227.622      755019.52649    579604.31549  21721229.8524   21721236.4464
 95  3 22 16 15  0.0010000  0  5 19 29 22 18 14
  22785762.338    -2440754.38249  -1886627.05349  22785764.3944   22785771.8254
  20790393.990    -1291739.30749   -987186.21349  20790395.7144   20790400.4144
  21900412.225      179992.03149    138842.20449  21900412.8254   21900418.9094
  21589370.713    -2287542.55249  -1763342.10849  21589372.7044   21589378.3074
  21728134.726      791312.16649    607884.25749  21728135.8354   21728142.8314
 95  3 22 16 15 30.0000000  0  5 19 29 22 18 14
  22764011.359    -2555054.17749  -1975691.78649  22764014.3154   22764020.9874
  20778812.021    -1352608.32949  -1034616.62049  20778812.6294   20778817.2184
  21902345.812      190144.95849    146753.56749  21902344.9374   21902350.8494
  21568796.575    -2395666.27549  -1847594.34649  21568797.2654   21568802.7394
  21735071.248      827765.26649    636289.22849  21735072.9544   21735079.6244
 95  3 22 16 16  0.0000000  0  5 19 29 22 18 14
  22742252.898    -2669396.72549  -2064789.83649  22742255.4734   22742262.2564
  20767238.585    -1413419.95049  -1082002.29849  20767240.6874   20767245.3564
  21904328.851      200575.53349    154881.27749  21904329.9104   21904335.6784
  21548213.239    -2503832.05049  -1931879.35649  21548214.2974   21548219.6654
  21742037.324      864368.00349    664810.80749  21742038.0274   21742044.6164
 95  3 22 16 16 30.0000000  0  5 19 29 22 18 14
  22720488.464    -2783763.57249  -2153906.82649  22720491.8764   22720498.9404
  20755681.478    -1474156.88449  -1129329.77849  20755682.8864   20755687.3444
  21906369.929      211296.61949    163235.35949  21906370.2454   21906375.8284
  21527628.334    -2612011.14449  -2016174.74849  21527628.2994   21527633.4864
  21749031.922      901121.70649    693450.01649  21749032.5174   21749038.8324
 95  3 22 16 17  0.0000000  0  5 19 29 22 18 14
  22698723.102    -2898149.81749  -2243038.93649  22698725.2394   22698732.2314
  20744136.402    -1534824.36349  -1176603.13749  20744138.2564   20744142.6364
  21908465.768      222314.68449    171820.85349  21908466.8914   21908472.5074
  21507039.297    -2720205.32949  -2100481.89649  21507039.8164   21507045.1994
  21756053.850      938026.68349    722207.11049  21756055.6044   21756061.6434
 95  3 22 16 17 30.0000000  0  5 19 29 22 18 14
  22676954.532    -3012549.87049  -2332181.80149  22676955.8234   22676962.5014
  20732604.748    -1595424.72049  -1223824.19549  20732606.3544   20732611.0344
  21910617.729      233622.11449    180631.82849  21910618.8124   21910624.2184
  21486448.466    -2828408.51349  -2184796.05749  21486449.3184   21486454.8004
  21763106.114      975085.05249    751083.72249  21763107.3784   21763113.6674
 95  3 22 16 18  0.0000000  0  5 19 29 22 18 14
  22655181.681    -3126957.32649  -2421330.43749  22655184.7854   22655191.6814
  20721087.463    -1655947.94149  -1270985.14749  20721089.1374   20721093.8494
  21912821.193      245198.29649    189652.22449  21912821.6014   21912827.3074
  21465855.355    -2936627.40849  -2269122.45349  21465855.7144   21465861.5444
  21770189.262     1012299.54349    780081.99249  21770189.1974   21770195.4234
 95  3 22 16 18 30.0000000  0  6 19 29 22 18 14 28
  22633409.233    -3241377.05249  -2510488.65149  22633411.1764   22633418.0034
  20709586.800    -1716383.98649  -1318078.17149  20709588.5924   20709593.1074
  21915073.848      257042.13849    198881.17049  21915075.4664   21915081.1294
  21445259.849    -3044858.66549  -2353458.48649  21445260.2184   21445265.9244
  21777303.017     1049689.56049    809217.04049  21777304.2114   21777310.5614
  25036706.837    -2011194.66319  -1552766.71919  25036712.868    25036721.335
 95  3 22 16 19  0.0000000  0  6 19 29 22 18 14 28
  22611630.622    -3355817.28649  -2599662.84649  22611634.1664   22611640.9614
  20698101.309    -1776739.21649  -1365108.22149  20698103.4644   20698107.9394
  21917374.731      269132.29749    208302.05749  21917376.0974   21917381.8934
  21424659.543    -3153114.80549  -2437813.90549  21424659.9294   21424665.2064
  21784450.909     1087252.48549    838486.82149  21784452.2044   21784458.4814
  25013684.729    -2132205.018 9  -1647060.409 9  25013684.836    25013693.675
 95  3 22 16 19 30.0000000  0  6 19 29 22 18 14 28
  22589853.871    -3470261.01249  -2688839.76549  22589856.2044   22589862.8024
  20686636.314    -1836988.68249  -1412055.86049  20686638.3544   20686642.7664
  21919726.642      281480.98849    217924.39749  21919725.8564   21919731.8344
  21404058.664    -3261367.95849  -2522167.00149  21404059.9214   21404065.4394
  21791635.199     1125008.34349    867906.93349  21791636.9994   21791643.4254
  24990635.468    -2253320.320 9  -1741435.928 9  24990638.198    24990646.349
 95  3 22 16 20  0.0000000  0  6 19 29 22 18 14 28
  22568078.141    -3584697.82949  -2778011.29049  22568079.4634   22568086.1684
  20675191.420    -1897131.06649  -1458920.05649  20675193.5244   20675198.2044
  21922125.313      294093.02249    227751.93549  21922125.7814   21922131.9854
  21383460.184    -3369616.47749  -2606516.49249  21383461.0994   21383466.3584
  21798855.387     1162951.64849    897473.10549  21798857.1654   21798863.8024
  24967564.622    -2374537.995 9  -1835891.235 9  24967570.688    24967579.442
 95  3 22 16 20 30.0000000  0  6 19 29 22 18 14 28
  22546304.228    -3699122.03349  -2867172.97449  22546305.5684   22546312.0954
  20663765.507    -1957179.59049  -1505711.11549  20663766.9354   20663771.3744
  21924579.523      306988.00949    237799.95449  21924579.7414   21924585.8454
  21362867.367    -3477834.90449  -2690842.52749  21362867.8074   21362873.2024
  21806111.824     1201082.42849    927185.37149  21806113.2704   21806119.6004
  24944477.896    -2495847.211 9  -1930417.870 9  24944486.675    24944494.744
 95  3 22 16 21  0.0000000  0  6 19 29 22 18 14 28
  22524533.592    -3813525.75149  -2956318.72349  22524534.7534   22524541.7774
  20652358.218    -2017126.16049  -1552422.73249  20652359.4794   20652364.0334
  21927089.146      320178.93649    248078.57249  21927090.0724   21927096.0244
  21342283.348    -3586004.26349  -2775130.33649  21342283.8694   21342289.1704
  21813404.804     1239403.97349    957046.27949  21813405.6324   21813412.0844
  24921382.602    -2617244.238 9  -2025012.938 9  24921385.839    24921393.819
 95  3 22 16 21 30.0000000  0  6 19 29 22 18 14 28
  22502767.215    -3927910.43349  -3045449.62749  22502768.1094   22502775.2734
  20640970.868    -2076965.44749  -1599050.74949  20640972.2234   20640977.0244
  21929656.200      333669.19349    258590.43749  21929656.9494   21929663.1714
  21321707.668    -3694125.48449  -2859380.63249  21321708.8934   21321714.4584
  21820731.562     1277907.37349    987048.89249  21820732.6404   21820739.1654
  24898268.140    -2738729.679 9  -2119676.899 9  24898267.614    24898275.465
 95  3 22 16 22  0.0000000  0  6 19 29 22 18 14 28
  22481002.607    -4042283.19449  -3134571.25449  22481003.7264   22481010.3314
  20629601.814    -2136709.88849  -1645604.86349  20629603.1774   20629607.8864
  21932278.536      347448.34749    269327.41949  21932279.0364   21932284.9834
  21301140.006    -3802214.21749  -2943605.60749  21301140.5154   21301145.7884
  21828091.129     1316581.90949   1017184.86149  21828092.2694   21828098.6404
  24875131.615    -2860301.335 9  -2214408.029 9  24875133.371    24875141.239
 95  3 22 16 22 30.0000000  0  6 19 29 22 18 14 28
  22459241.270    -4156642.34749  -3223682.29349  22459241.7704   22459248.5004
  20618254.663    -2196337.86049  -1692068.21149  20618256.5054   20618261.0634
  21934956.998      361522.87949    280294.56249  21934957.5244   21934963.3874
  21280577.506    -3910267.17749  -3027802.70349  21280578.6454   21280584.0144
  21835486.099     1355438.38249   1047462.59149  21835486.3354   21835492.6454
  24851985.919    -2981945.995 9  -2309196.086 9  24851984.967    24851992.477
 95  3 22 16 23  0.0000000  0  6 19 29 22 18 14 28
  22437480.577    -4270988.54149  -3312783.20249  22437482.8804   22437489.3654
  20606932.486    -2255837.14249  -1738431.30049  20606934.3624   20606939.0224
  21937689.999      375880.19549    291482.04949  21937689.8234   21937695.5834
  21260019.373    -4018298.78749  -3111983.16649  21260020.7974   21260026.2684
  21842913.758     1394478.68749   1077883.58649  21842915.3834   21842922.1024
  24828819.066    -3103664.327 9  -2404041.502 9  24828822.882    24828830.671
 95  3 22 16 23 30.0000000  0  6 19 29 22 18 14 28
  22415725.940    -4385315.98449  -3401869.53649  22415726.9634   22415733.2034
  20595632.556    -2315217.50549  -1784701.72349  20595634.3904   20595639.2884
  21940470.825      390507.11149    302879.63549  21940473.1034   21940479.0344
  21239466.765    -4126312.33849  -3196149.57349  21239466.6414   21239472.1994
  21850378.331     1433700.94649   1108446.30549  21850379.3784   21850385.7934
  24805647.815    -3225453.043 9  -2498941.779 9  24805647.268    24805655.291
 95  3 22 16 24  0.0000000  0  6 19 29 22 18 14 28
  22393977.053    -4499608.14049  -3490928.35049  22393977.6444   22393984.9154
  20584357.031    -2374473.80249  -1830875.47249  20584358.5024   20584363.4324
  21943306.255      405405.86149    314489.01449  21943308.1394   21943314.1354
  21218917.879    -4234291.97349  -3280289.55249  21218918.6274   21218924.5084
  21857877.985     1473116.22249   1139159.49849  21857879.5644   21857886.5314
  24782457.464    -3347302.141 9  -2593889.131 9  24782459.624    24782466.102
 95  3 22 16 24 30.0000000  0  6 19 29 22 18 14 28
  22372236.124    -4613853.04049  -3579950.33349  22372238.0144   22372244.6194
  20573105.523    -2433598.23949  -1876946.47249  20573107.2504   20573112.2494
  21946196.419      420582.50949    326314.96549  21946196.4404   21946202.2784
  21198379.341    -4342220.75549  -3364389.88849  21198380.4914   21198386.1114
  21865416.705     1512730.38249   1170027.64049  21865417.9454   21865424.5534
  24759262.489    -3469206.693 9  -2688879.655 9  24759262.077    24759268.470
 95  3 22 16 25  0.0000000  0  6 19 29 22 18 14 28
  22350505.385    -4728049.88349  -3668934.87449  22350506.6344   22350513.8724
  20561877.627    -2492601.92449  -1922923.37649  20561879.4344   20561884.5614
  21949137.509      436041.74149    338361.10749  21949138.0354   21949144.0494
  21177855.410    -4450078.62949  -3448434.97949  21177855.9714   21177861.7844
  21872991.554     1552536.01249   1201044.97249  21872992.9064   21872999.8854
  24736051.443    -3591158.211 9  -2783906.781 9  24736054.708    24736062.551
 95  3 22 16 25 30.0000000  0  6 19 29 22 18 14 28
  22328784.532    -4842189.03049  -3757874.45149  22328786.6854   22328793.7434
  20550673.999    -2551473.81749  -1968797.58549  20550676.2754   20550681.1474
  21952136.985      451801.09149    350641.11149  21952137.1134   21952142.9314
  21157347.503    -4557848.54749  -3532411.53049  21157347.9964   21157353.6054
  21880599.842     1592526.21849   1232206.13449  21880602.7044   21880609.6794
  24712842.830    -3713142.428 9  -2878959.376 9  24712842.945    24712848.962
 95  3 22 16 26  0.0000000  0  6 19 29 22 18 14 28
  22307079.081    -4956248.40349  -3846751.86349  22307081.6684   22307089.0054
  20539504.265    -2610177.85749  -2014541.00849  20539505.3304   20539510.3954
  21955200.095      467900.47849    363186.07849  21955200.7064   21955206.8064
  21136862.240    -4665500.71549  -3616296.34249  21136862.5434   21136868.0704
  21888248.729     1632715.81549   1263522.65749  21888250.7534   21888257.6374
  24689630.471    -3835126.072 9  -2974011.507 9  24689629.932    24689637.260
 95  3 22 16 26 30.0000000  0  6 19 29 22 18 14 28
  22285393.173    -5070215.51549  -3935557.38749  22285394.6754   22285401.8684
  20528370.468    -2668684.02249  -2060130.23249  20528372.1794   20528377.2644
  21958332.897      484364.79649    376015.40749  21958333.6704   21958340.1834
  21116401.928    -4773014.43949  -3700073.26349  21116403.1204   21116409.1774
  21895935.159     1673106.38849   1294995.78849  21895936.9334   21895943.8154
  24666422.555    -3957082.771 9  -3069042.624 9  24666422.469    24666429.541
 95  3 22 16 27  0.0000000  0  6 19 29 22 18 14 28
  22263720.717    -5184110.73549  -4024306.88249  22263721.8134   22263728.3754
  20517273.161    -2727005.52149  -2105575.56749  20517274.0474   20517279.0214
  21961531.316      501164.25349    389105.87949  21961530.4134   21961537.0494
  21095965.779    -4880408.79149  -3783757.16749  21095966.8964   21095972.4624
  21903654.826     1713663.84649   1326598.96849  21903654.6564   21903661.5444
  24643212.279    -4079031.313 9  -3164067.405 9  24643216.832    24643223.884
 95  3 22 16 27 30.0000000  0  6 19 29 22 18 14 28
  22242066.157    -5297902.46849  -4112975.74249  22242067.5384   22242074.7164
  20506213.839    -2785119.25349  -2150859.00749  20506215.1834   20506220.3084
  21964789.285      518290.55849    402451.03049  21964789.4604   21964796.2014
  21075551.297    -4987691.61049  -3867354.17449  21075551.5814   21075557.1634
  21911406.461     1754403.63049   1358344.21549  21911407.2344   21911414.3374
  24620009.726    -4200963.286 9  -3259079.277 9  24620013.973    24620019.704
 95  3 22 16 28  0.0000000  0  6 19 29 22 18 14 28
  22220434.682    -5411576.17749  -4201552.62649  22220436.0234   22220442.7974
  20495198.118    -2843004.88249  -2195964.70149  20495200.0974   20495204.9604
  21968109.410      535735.87149    416044.75849  21968109.2734   21968115.6724
  21055158.814    -5094852.61349  -3950856.25449  21055159.3424   21055165.0224
  21919196.645     1795342.87149   1390244.87749  21919198.0314   21919204.7544
  24596812.424    -4322865.338 9  -3354067.824 9  24596817.286    24596823.258
 95  3 22 16 28 30.0000000  0  6 19 29 22 18 14 28
  22198827.083    -5525126.49449  -4290033.35749  22198828.0394   22198835.2304
  20484227.769    -2900652.24349  -2240884.73249  20484230.0674   20484234.9924
  21971486.860      553491.81449    429880.53649  21971488.3034   21971494.6794
  21034789.535    -5201891.28349  -4034263.01349  21034790.8484   21034796.3434
  21927028.899     1836500.22349   1422315.49849  21927029.8644   21927036.9824
  24573630.245    -4444728.781 9  -3449026.275 9  24573626.284    24573634.417
 95  3 22 16 29  0.0000000  0  6 19 29 22 18 14 28
  22177243.253    -5638546.29049  -4378412.38149  22177244.8634   22177252.3774
  20473302.594    -2958068.69149  -2285624.83449  20473304.1354   20473309.0904
  21974928.421      571565.93649    443964.24749  21974927.9364   21974934.0574
  21014445.272    -5308805.70049  -4117572.94149  21014445.8164   21014451.2974
  21934908.810     1877912.76249   1454584.96549  21934910.2034   21934917.4044
  24550445.265    -4566543.186 9  -3543946.524 9  24550445.246    24550454.083
 95  3 22 16 29 30.0000000  0  6 19 29 22 18 14 28
  22155685.113    -5751837.77149  -4466691.43349  22155686.3984   22155693.5254
  20462422.604    -3015244.00349  -2330177.03849  20462424.1624   20462429.2394
  21978429.749      589976.84049    458310.38349  21978431.0564   21978437.4584
  20994124.879    -5415589.06449  -4200780.76249  20994125.3654   20994130.9254
  21942843.706     1919613.70549   1487079.15649  21942845.8884   21942852.5614
  24527284.872    -4688284.922 9  -3638810.149 9  24527277.981    24527287.856
 95  3 22 16 30  0.0000000  0  6 19 29 22 18 14 28
  22134143.066    -5865034.34449  -4554896.52449  22134145.7014   22134152.9214
  20451585.279    -3072195.31349  -2374554.68649  20451586.5804   20451591.6934
  21981999.574      608731.41149    472924.30849  21982000.0904   21982006.6714
  20973830.249    -5522238.34049  -4283884.09049  20973830.7754   20973836.6614
  21950831.702     1961591.87949   1519789.37949  21950834.1044   21950840.9864
  24504129.286    -4809957.074 9  -3733619.541 9  24504125.410    24504133.875
 95  3 22 16 30 30.0000000  0  6 19 29 22 18 14 28
  22112620.698    -5978138.82549  -4643029.86649  22112622.6684   22112629.7274
  20440786.477    -3128945.55649  -2418775.66249  20440787.5664   20440792.3344
  21985637.279      627843.12749    487816.53449  21985637.1794   21985643.4814
  20953560.861    -5628753.58649  -4366882.98249  20953561.5894   20953567.1404
  21958874.417     2003849.02049   1552716.96949  21958875.6654   21958882.2224
  24480978.605    -4931557.016 9  -3828372.692 9  24480985.641    24480993.456
 95  3 22 16 31  0.0000000  0  6 19 29 22 18 14 28
  22091114.816    -6091157.34549  -4731096.22449  22091115.9064   22091122.7874
  20430023.371    -3185502.03249  -2462845.65849  20430025.0504   20430029.7344
  21989341.093      647309.62049    502985.20849  21989341.6294   21989347.5404
  20933317.340    -5735136.19449  -4449778.52049  20933317.6884   20933323.2874
  21966964.645     2046361.26349   1585843.34149  21966965.4464   21966972.0644
  24457864.640    -5053091.865 9  -3923075.113 9  24457858.793    24457865.852
 95  3 22 16 31 29.9990000  0  6 19 29 22 18 14 28
  22069626.013    -6204078.34649  -4819086.59249  22069627.6364   22069634.5114
  20419301.871    -3241841.72149  -2506746.72349  20419303.9454   20419309.0104
  21993110.570      667122.47249    518423.77149  21993111.6684   21993117.8644
  20913102.050    -5841369.28649  -4532557.55949  20913102.1494   20913107.7554
  21975096.870     2089093.40649   1619141.05749  21975096.9944   21975103.8154
  24434744.347    -5174557.571 9  -4017723.674 9  24434744.309    24434751.648
 95  3 22 16 31 59.9990000  0  6 19 29 22 18 14 28
  22048156.977    -6316886.80049  -4906989.26249  22048160.9884   22048167.8934
  20408623.875    -3297958.27249  -2550473.91649  20408625.3474   20408630.3174
  21996948.658      687292.28049    534140.48649  21996950.0044   21996955.9774
  20892916.200    -5947444.44949  -4615213.52549  20892916.7634   20892922.1854
  21983266.348     2132030.00449   1652598.10049  21983267.8844   21983274.6344
  24411643.437    -5295957.459 9  -4112320.942 9  24411643.617    24411650.215
 95  3 22 16 32 29.9990000  0  6 19 29 22 18 14 28
  22026716.082    -6429572.96449  -4994796.64549  22026717.6704   22026724.2574
  20397992.253    -3353830.68449  -2594010.86949  20397993.4344   20397998.1464
  22000856.325      707822.03149    550137.67149  22000856.3854   22000862.4144
  20872765.198    -6053342.02449  -4697731.11549  20872765.1854   20872770.6304
  21991476.813     2175170.51049   1686214.03249  21991477.0074   21991484.1254
  24388557.592    -5417279.482 9  -4206857.554 9  24388556.401    24388563.760
 95  3 22 16 32 59.9990000  0  6 19 29 22 18 14 28
  22005296.884    -6542126.70849  -5082500.84449  22005299.2934   22005306.3594
  20387410.495    -3409436.89349  -2637340.39349  20387411.7184   20387416.6154
  22004829.028      728701.43949    566407.31849  22004829.7864   22004835.5864
  20852649.552    -6159045.45249  -4780097.42849  20852650.4214   20852656.0664
  21999722.405     2218506.78249   1719982.49649  21999723.3924   21999730.6314
  24365485.920    -5538517.236 9  -4301328.501 9  24365484.761    24365493.033
 95  3 22 16 33 29.9990000  0  6 19 29 22 18 14 28
  21983903.402    -6654552.42849  -5170105.28949  21983905.1164   21983912.4214
  20376876.997    -3464788.64749  -2680471.64749  20376878.7354   20376883.6264
  22008870.055      749922.35349    582943.07649  22008867.9284   22008873.9514
  20832573.231    -6264549.66149  -4862308.49849  20832573.6724   20832579.2454
  22008007.028     2262043.75349   1753907.35049  22008008.3884   22008015.4114
  24342437.693    -5659665.518 9  -4395729.738 9  24342431.466    24342439.253
 95  3 22 16 33 59.9990000  0  6 19 29 22 18 14 28
  21962531.775    -6766858.40349  -5257616.41949  21962534.4504   21962541.2644
  20366388.118    -3519907.68349  -2723421.56149  20366390.0074   20366394.7214
  22012969.271      771476.65949    599738.62749  22012970.1124   22012975.6084
  20812532.484    -6369863.39549  -4944371.14549  20812532.9094   20812538.3984
  22016332.718     2305788.51749   1787994.12349  22016332.9384   22016339.2444
  24319395.148    -5780722.943 9  -4490060.184 9  24319394.714    24319402.121
 95  3 22 16 34 29.9990000  0  6 19 29 22 18 14 28
  21941185.208    -6879041.10749  -5345031.49649  21941186.6184   21941193.5334
  20355944.090    -3574793.81149  -2766189.98249  20355945.4494   20355950.1804
  22017129.373      793348.94149    616781.93949  22017131.9834   22017137.7944
  20792529.273    -6474980.68049  -5026280.71849  20792529.9354   20792535.5374
  22024696.452     2349745.37449   1822246.16649  22024697.7224   22024704.1804
  24296378.832    -5901684.789 9  -4584316.144 9  24296376.914    24296383.727
 95  3 22 16 34 59.9990000  0  6 19 29 22 18 14 28
  21919863.150    -6991085.02449  -5432338.43349  21919865.5624   21919871.9264
  20345540.992    -3629458.32649  -2808785.71749  20345543.4564   20345547.7834
  22021350.263      815523.42049    634060.73749  22021351.4464   22021357.4464
  20772559.913    -6579915.37349  -5108048.00549  20772561.5564   20772566.8684
  22033101.837     2393916.74749   1856665.36449  22033103.3304   22033109.7464
  24273379.022    -6022545.863 9  -4678493.586 9  24273377.231    24273384.590
 95  3 22 16 35 29.9990000  0  6 19 29 22 18 14 28
  21898568.358    -7102998.02449  -5519543.35849  21898569.0644   21898575.6224
  20335181.918    -3683901.37749  -2851208.88849  20335183.1144   20335187.7774
  22025628.112      837996.38349    651572.12049  22025628.0264   22025633.9174
  20752624.565    -6684681.62949  -5189684.05349  20752625.2004   20752630.6554
  22041548.357     2438304.31549   1891253.02949  22041550.2004   22041556.4404
  24250408.910    -6143302.498 9  -4772589.657 9  24250397.654    24250405.079
 95  3 22 16 35 59.9990000  0  6 19 29 22 18 14 28
  21877298.776    -7214765.19049  -5606634.64049  21877300.0724   21877307.1304
  20324867.761    -3738102.31349  -2893443.39949  20324868.8584   20324873.7904
  22029961.536      860766.79649    669315.27549  22029960.8574   22029967.3114
  20732720.094    -6789277.42849  -5271187.27149  20732720.7354   20732726.6304
  22050036.098     2482903.98749   1926005.95749  22050037.1784   22050043.9264
  24227438.536    -6263948.491 9  -4866599.497 9  24227439.545    24227447.819
 95  3 22 16 36 29.9990000  0  6 19 29 22 18 14 28
  21856057.624    -7326387.74549  -5693613.24849  21856059.0644   21856066.1904
  20314603.875    -3792040.03049  -2935472.79849  20314604.8264   20314610.0274
  22034350.010      883838.82149    687293.45049  22034351.1974   22034358.0754
  20712849.421    -6893699.11849  -5352554.82249  20712850.3744   20712856.2164
  22058565.249     2527728.85449   1960934.36249  22058566.9374   22058574.3424
  24204512.665    -6384476.487 9  -4960517.384 9  24204504.825    24204512.472
 95  3 22 16 36 59.9990000  0  6 19 29 22 18 14 28
  21834844.055    -7437873.26349  -5780485.06549  21834844.6334   21834850.6614
  20304390.475    -3845710.76549  -2977294.16449  20304391.5704   20304396.6544
  22038800.782      907225.06149    705516.47149  22038801.9364   22038808.1294
  20693010.580    -6997951.56549  -5433790.48449  20693011.6874   20693017.5374
  22067140.991     2572785.04249   1996043.02449  22067140.5624   22067147.8334
  24181594.914    -6504879.911 9  -5054338.205 9  24181592.566    24181600.466
 95  3 22 16 37 29.9990000  0  6 19 29 22 18 14 28
  21813652.927    -7549229.17849  -5867255.90149  21813653.8994   21813660.6524
  20294230.841    -3899100.94749  -3018896.92049  20294231.7964   20294237.0404
  22043315.329      930942.91049    723997.87949  22043315.4754   22043321.5934
  20673209.180    -7102013.97949  -5514878.07849  20673209.5224   20673215.3024
  22075754.829     2618060.67749   2031322.68549  22075756.2134   22075764.1714
  24158706.588    -6625153.291 9  -5148057.708 9  24158705.505    24158713.025
 95  3 22 16 37 59.9990000  0  6 19 29 22 18 14 28
  21792485.909    -7660458.28349  -5953927.92749  21792487.6404   21792494.3194
  20284122.616    -3952218.20649  -3060287.00549  20284124.0804   20284129.2234
  22047893.520      955000.79449    742744.25349  22047893.5334   22047899.8154
  20653444.882    -7205877.03149  -5595810.32549  20653444.8034   20653450.4034
  22084411.786     2663552.72449   2066770.97249  22084413.2494   22084420.7244
  24135844.329    -6745295.284 9  -5241674.823 9  24135843.187    24135850.950
 95  3 22 16 38 29.9990000  0  6 19 29 22 18 14 28
  21771342.966    -7771569.42549  -6040508.02649  21771344.1224   21771350.8594
  20274066.885    -4005067.44849  -3101468.24749  20274067.1864   20274072.1744
  22052537.229      979405.91649    761761.19649  22052537.5424   22052544.0414
  20633718.700    -7309537.53349  -5676584.74849  20633718.9334   20633724.5444
  22093110.649     2709258.43349   2102385.76249  22093111.2764   22093117.7064
  24113013.226    -6865301.467 9  -5335186.106 9  24113006.489    24113014.423
 95  3 22 16 38 59.9990000  0  6 19 29 22 18 14 28
  21750220.077    -7882561.69449  -6126995.49949  21750222.6574   21750229.5004
  20264057.666    -4057662.49249  -3142451.41349  20264058.8074   20264063.5534
  22057245.318     1004152.56149    781044.26749  22057246.5174   22057253.0914
  20614031.651    -7412991.92349  -5757198.55949  20614032.4914   20614037.6994
  22101841.800     2755144.50849   2138141.10049  22101843.5624   22101850.0414
  24090194.427    -6985171.457 9  -5428591.246 9  24090195.581    24090203.323
 95  3 22 16 39 29.9990000  0  6 19 29 22 18 14 28
  21729122.245    -7993431.09549  -6213387.22549  21729124.9764   21729131.9214
  20254097.794    -4109995.71549  -3183230.56449  20254100.0324   20254105.1054
  22062014.754     1029223.45249    800579.98649  22062017.4034   22062024.2234
  20594384.612    -7516237.21849  -5837649.45049  20594385.2754   20594391.0404
  22110610.119     2801220.05549   2174044.05249  22110611.3574   22110618.3264
  24067409.566    -7104898.404 9  -5521884.923 9  24067412.834    24067419.818
 95  3 22 16 39 59.9990000  0  6 19 29 22 18 14 28
  21708051.298    -8104166.52149  -6299674.56549  21708053.1504   21708059.4674
  20244192.138    -4162053.35349  -3223794.96849  20244193.7064   20244198.7444
  22066847.859     1054614.55949    820365.24249  22066849.1424   22066855.6714
  20574776.024    -7619280.98049  -5917943.28749  20574777.0104   20574782.6074
  22119416.875     2847499.15749   2210105.62949  22119417.7404   22119424.3934
  24044660.449    -7224474.831 9  -5615061.313 9  24044658.329    24044664.626
 95  3 22 16 40 29.9990000  0  6 19 29 22 18 14 28
  21687007.586    -8214757.58349  -6385849.40149  21687008.4154   21687014.3924
  20234341.745    -4213817.05849  -3264130.33349  20234343.5604   20234348.6454
  22071742.343     1080318.28149    840394.08249  22071740.6474   22071746.8774
  20555205.617    -7722122.05949  -5998079.19049  20555206.8534   20555212.4624
  22128261.886     2893979.91349   2246324.34049  22128262.6344   22128269.6004
  24021931.178    -7343894.408 9  -5708115.467 9  24021933.007    24021939.782
 95  3 22 16 40 59.9990000  0  6 19 29 22 18 14 28
  21665990.732    -8325193.50349  -6471903.34149  21665992.7474   21665999.3774
  20224548.516    -4265283.12349  -3304233.77849  20224549.9534   20224554.9344
  22076689.621     1106324.49449    860658.62549  22076689.5094   22076695.9714
  20535675.425    -7824756.34449  -6078053.95849  20535676.2974   20535682.0914
  22137146.560     2940670.90449   2282706.87249  22137147.4684   22137155.6204
  23999239.953    -7463153.625 9  -5801044.686 9  23999238.722    23999245.621
 95  3 22 16 41 29.9990000  0  6 19 29 22 18 14 28
  21645008.291    -8435461.34049  -6557826.30049  21645009.8014   21645015.9824
  20214813.938    -4316437.46049  -3344094.31449  20214815.4434   20214820.3544
  22081695.198     1132632.03849    881157.98349  22081695.7794   22081702.0664
  20516185.015    -7927181.63249  -6157865.86249  20516185.3694   20516190.8784
  22146074.120     2987581.98749   2319260.89349  22146074.6014   22146082.1144
  23976574.869    -7582249.571 9  -5893846.645 9  23976574.844    23976582.417
 95  3 22 16 41 59.9990000  0  6 19 29 22 18 14 28
  21624059.652    -8545545.87849  -6643606.44549  21624061.1934   21624067.7974
  20205138.371    -4367282.90449  -3383714.15349  20205139.8744   20205145.0934
  22086760.734     1159256.57949    901904.34549  22086762.1254   22086768.7764
  20496737.306    -8029378.40249  -6237499.71549  20496738.0754   20496743.6814
  22155037.110     3034687.01149   2355966.04849  22155038.4284   22155046.3554
  23953948.259    -7701181.508 9  -5986520.804 9  23953943.191    23953952.072
 95  3 22 16 42 29.9990000  0  6 19 29 22 18 14 28
  21603145.980    -8655449.34349  -6729245.49049  21603146.8094   21603153.6584
  20195516.524    -4417844.94249  -3423113.15249  20195518.2054   20195523.4594
  22091886.267     1186184.03849    922886.75049  22091886.2164   22091892.7104
  20477336.404    -8131331.38249  -6316943.60049  20477337.2074   20477342.7574
  22164037.232     3081977.80549   2392815.95049  22164037.7304   22164045.7844
  23931344.321    -7819945.342 9  -6079063.986 9  23931343.083    23931351.456
 95  3 22 16 42 59.9990000  0  6 19 29 22 18 14 28
  21582264.700    -8765176.74149  -6814747.33149  21582266.5584   21582273.4974
  20185945.062    -4468142.26449  -3462305.88249  20185947.0474   20185952.1624
  22097067.457     1213416.08049    944106.50049  22097068.3974   22097074.8714
  20457982.835    -8233034.56649  -6396192.84249  20457983.6554   20457989.3154
  22173071.860     3129459.37049   2429814.50349  22173073.0884   22173080.7334
  23908775.416    -7938538.248 9  -6171473.988 9  23908774.519    23908783.307
 95  3 22 16 43 29.9990000  0  6 19 29 22 18 14 28
  21561417.246    -8874737.20249  -6900119.10549  21561418.2184   21561424.7084
  20176426.522    -4518166.46849  -3501285.79749  20176427.9504   20176432.9514
  22102308.936     1240956.35349    965566.42449  22102308.9284   22102315.5534
  20438678.570    -8334480.33649  -6475241.49549  20438679.0384   20438684.9754
  22182144.081     3177132.19549   2466962.10149  22182144.8764   22182152.4184
  23886244.940    -8056953.165 9  -6263745.300 9  23886240.597    23886249.649
 95  3 22 16 43 59.9990000  0  6 19 29 22 18 14 28
  21540595.556    -8984146.73349  -6985373.26349  21540598.4064   21540604.9524
  20166957.063    -4567929.37049  -3540062.09549  20166958.2214   20166963.4174
  22107609.704     1268797.92149    987261.12349  22107607.0804   22107613.6234
  20419422.389    -8435673.62849  -6554093.40849  20419422.5564   20419428.0924
  22191253.705     3225005.02049   2504265.53549  22191254.8754   22191262.7184
  23863734.679    -8175188.863 9  -6355876.969 9  23863741.272    23863749.259
 95  3 22 16 44 29.9990000  0  6 19 29 22 18 14 28
  21519801.438    -9093424.95849  -7070525.10249  21519803.1434   21519809.7884
  20157536.572    -4617432.68349  -3578636.11749  20157537.8924   20157543.3004
  22112958.769     1296925.60049   1009178.76549  22112959.8044   22112966.2114
  20400209.417    -8536632.82349  -6632762.91249  20400210.7394   20400216.2414
  22200406.295     3273094.31649   2541737.65049  22200406.0474   22200413.2694
  23841275.569    -8293241.485 9  -6447865.962 9  23841277.170    23841285.424
 95  3 22 16 44 59.9990000  0  6 19 29 22 18 14 28
  21499033.223    -9202572.96149  -7155575.46149  21499033.1134   21499039.6914
  20148170.169    -4666646.86649  -3616984.83949  20148172.9434   20148178.1054
  22118367.165     1325346.04949   1031324.53949  22118367.9024   22118374.7234
  20381041.899    -8637362.95949  -6711253.93049  20381042.6104   20381048.0364
  22209598.406     3321398.48149   2579377.19849  22209597.9894   22209605.2694
  23818848.606    -8411108.130 9  -6539710.061 9  23818848.865    23818856.573
 95  3 22 16 45 29.9990000  0  7 19 29 22 18 27 14 28
  21478286.576    -9311590.22149  -7240523.95949  21478288.0304   21478294.3744
  20138865.726    -4715547.69449  -3655089.39049  20138867.5404   20138872.4624
  22123830.598     1354053.37549   1053693.84649  22123830.9074   22123837.5624
  20361917.027    -8737864.29949  -6789566.66849  20361917.8594   20361923.2134
  24630202.469    -5393291.27559  -4185468.10259  24630205.3064   24630216.2264
  22218827.739     3369897.58549   2617168.64049  22218827.4764   22218834.2464
  23796450.996    -8528783.294 9  -6631404.965 9  23796455.937    23796463.769
 95  3 22 16 45 59.9990000  0  7 19 29 22 18 27 14 28
  21457567.125    -9420471.64249  -7325366.60249  21457568.2034   21457574.9384
  20129618.215    -4764147.82349  -3692959.63149  20129619.0024   20129624.2614
  22129349.366     1383051.40249   1076289.67849  22129349.1224   22129355.5224
  20342835.659    -8838137.58549  -6867701.69849  20342836.3934   20342842.0674
  24604130.164    -5530308.41449  -4292234.67249  24604131.4884   24604140.9064
  22228089.645     3418574.36949   2655098.52349  22228090.3814   22228097.4144
  23774101.957    -8646264.586 9  -6722948.811 9  23774099.666    23774107.398
 95  3 22 16 46 29.9990000  0  7 19 29 22 18 27 14 28
  21436871.825    -9529225.10049  -7410109.53749  21436873.1044   21436879.6304
  20120428.472    -4812434.19249  -3730585.38549  20120430.7474   20120435.7654
  22134923.090     1412353.99349   1099122.83749  22134925.0484   22134931.5354
  20323799.221    -8938173.08849  -6945651.43649  20323799.9184   20323805.8264
  24578060.560    -5667322.54349  -4398998.87449  24578057.1534   24578067.8394
  22237384.560     3467413.99049   2693155.31049  22237384.3384   22237391.3154
  23751776.039    -8763546.484 9  -6814337.287 9  23751781.279    23751788.595
 95  3 22 16 46 59.9980000  0  6 19 29 22 18 14 28
  21416203.882    -9637833.51249  -7494739.43649  21416205.5054   21416212.0734
  20111302.296    -4860397.71749  -3767959.56949  20111303.7554   20111308.8034
  22140559.017     1441968.01249   1122198.66749  22140560.4894   22140567.2824
  20304810.788    -9037961.06449  -7023408.29849  20304811.1434   20304817.2364
  22246706.737     3516398.45649   2731324.94749  22246705.6594   22246713.3724
  23729503.906    -8880618.831 9  -6905562.484 9  23729503.617    23729510.799
 95  3 22 16 47 29.9980000  0  6 19 29 22 18 14 28
  21395563.922    -9746292.64649  -7579253.03749  21395566.5054   21395573.1044
  20102234.086    -4908051.88449  -3805092.70149  20102235.1134   20102240.2794
  22146256.415     1471901.16449   1145523.16449  22146256.3914   22146263.1844
  20285869.265    -9137501.91949  -7100972.60549  20285869.1704   20285874.8904
  22256056.721     3565541.94249   2769618.50749  22256057.5604   22256064.4914
  23707259.024    -8997480.066 9  -6996623.174 9  23707265.743    23707272.256
 95  3 22 16 47 59.9980000  0  6 19 29 22 18 14 28
  21374955.876    -9854591.73649  -7663641.91249  21374957.8754   21374964.8484
  20093220.829    -4955410.19149  -3841995.28649  20093223.1224   20093228.2474
  22152012.535     1502154.54549   1169097.19249  22152013.7274   22152020.4264
  20266974.383    -9236790.65149  -7178340.44749  20266974.8764   20266980.4244
  22265440.767     3614851.71649   2808041.64049  22265441.0444   22265448.2614
  23685066.664    -9114124.807 9  -7087515.174 9  23685068.619    23685075.604
 95  3 22 16 48 29.9980000  0  6 19 29 22 18 14 28
  21354380.130    -9962720.99249  -7747898.45349  21354381.4394   21354388.0154
  20084269.684    -5002457.61249  -3878655.62949  20084270.7644   20084275.2594
  22157828.284     1532709.91649   1192906.53849  22157828.4504   22157834.5124
  20248127.782    -9335830.20749  -7255514.12649  20248128.4284   20248134.0214
  22274854.282     3664330.44549   2846596.43049  22274856.7044   22274863.7374
  23662912.677    -9230548.297 9  -7178234.774 9  23662914.722    23662921.581
 95  3 22 16 48 59.9980000  0  7 19 29 22 18 14 28 31
  21333838.989   -10070660.99349  -7832007.54049  21333841.2444   21333848.0104
  20075375.237    -5049197.68949  -3915076.48249  20075376.2724   20075380.9944
  22163698.232     1563550.65649   1216938.25549  22163697.1314   22163703.2094
  20229328.695    -9434618.63549  -7332492.12549  20229329.9544   20229335.1444
  22284302.238     3713975.69149   2885280.95949  22284303.4724   22284310.9954
  23640804.291    -9346749.812 9  -7268781.411 9  23640802.362    23640809.019
  24235503.219    -3196032.62759  -2460881.47959  24235506.8244   24235516.7564
 95  3 22 16 49 29.9980000  0  7 19 29 22 18 14 28 31
  21313334.307   -10178415.11949  -7915971.77649  21313336.0154   21313342.6064
  20066540.414    -5095624.27149  -3951253.05249  20066541.2614   20066546.4084
  22169616.131     1594668.33849   1241185.76949  22169618.6404   22169624.8364
  20210582.625    -9533132.77249  -7409256.38949  20210583.3994   20210588.8474
  22293782.452     3763790.16149   2924097.36549  22293783.1904   22293790.6124
  23618739.651    -9462725.955 9  -7359152.428 9  23618732.243    23618739.277
  24208025.074    -3340447.36549  -2573412.35149  24208025.5614   24208035.3784
 95  3 22 16 49 59.9980000  0  7 19 29 22 18 14 28 31
  21292864.744   -10285988.43349  -7999795.12249  21292865.7554   21292872.3754
  20057765.401    -5141733.53449  -3987182.36349  20057767.1624   20057772.0294
  22175590.247     1626048.32649   1265637.68049  22175589.9544   22175596.1394
  20191889.110    -9631367.21849  -7485802.70649  20191889.6314   20191895.3144
  22303290.194     3813757.53749   2963032.91949  22303291.5604   22303298.7944
  23596705.423    -9578476.621 9  -7449347.734 9  23596706.325    23596712.703
  24180524.324    -3484962.39949  -2686021.38249  24180525.1834   24180535.2194
 95  3 22 16 50 29.9980000  0  7 19 29 22 18 14 28 31
  21272426.991   -10393388.08849  -8083483.15249  21272428.6174   21272434.9034
  20049054.168    -5187512.09549  -4022853.98549  20049055.9324   20049060.5634
  22181608.960     1657684.76549   1290289.42449  22181610.4774   22181616.2414
  20173249.765    -9729319.13949  -7562128.87749  20173249.9364   20173255.7124
  22312826.108     3863881.34549   3002090.37149  22312829.7894   22312836.7724
  23574721.000    -9693999.378 9  -7539365.436 9  23574722.180    23574729.152
  24153003.443    -3629570.60449  -2798703.01849  24153007.7334   24153017.8844
 95  3 22 16 50 59.9980000  0  8 19 29 22 18 27 14 28 31
  21252021.797   -10500617.12749  -8167038.22849  21252023.3354   21252029.7804
  20040405.092    -5232962.43649  -4058269.83949  20040406.9054   20040412.1524
  22187681.663     1689583.57349   1315145.61349  22187680.8514   22187686.7404
  20154665.576    -9826976.77749  -7638225.72949  20154666.2944   20154672.3354
  24343481.374     -133993.36019
  22322395.284     3914159.10749   3041267.79149  22322397.2104   22322404.7894
  23552786.874    -9809289.882 9  -7629202.157 9  23552783.190    23552790.165
  24125469.123    -3774270.76849  -2911456.28949  24125472.0454   24125481.8234
 95  3 22 16 51 29.9980000  0  8 19 29 22 18 27 14 28 31
  21231646.775   -10607686.19949  -8250468.66549  21231648.6974   21231655.1994
  20031818.858    -5278084.10049  -4093429.58749  20031820.3404   20031825.7694
  22193800.167     1721740.22849   1340202.71149  22193800.0824   22193806.2054
  20136135.999    -9924351.57549  -7714102.19749  20136136.9784   20136142.3614
  24317436.517     -270838.10659   -178706.82959  24317439.6264   24317449.7134
  22331995.543     3964594.16049   3080567.75049  22331995.1064   22332002.4174
  23530885.851    -9924345.387 9  -7718855.775 9  23530888.960    23530896.478
  24097916.966    -3919060.53549  -3024279.38749  24097919.0704   24097929.6334
 95  3 22 16 51 59.9980000  0  8 19 29 22 18 27 14 28 31
  21211301.931   -10714587.28249  -8333768.18949  21211305.9114   21211312.7114
  20023295.092    -5322878.78649  -4128334.54749  20023296.4224   20023301.4914
  22199972.601     1754166.71149   1365470.06949  22199970.3844   22199977.0184
  20117657.077   -10021458.13649  -7789769.65949  20117658.0244   20117663.4464
  24291421.670     -407657.25749   -285319.06249  24291405.8274   24291414.7634
  22341624.000     4015192.33949   3119994.82849  22341623.9064   22341631.0454
  23509045.106   -10039159.316 9  -7808321.147 9  23509039.855    23509048.316
  24070350.772    -4063920.83449  -3137157.45949  24070353.0214   24070364.1064
 95  3 22 16 52 29.9980000  0  8 19 29 22 18 27 14 28 31
  21190994.387   -10821314.84449  -8416932.49449  21190996.5034   21191003.5154
  20014832.158    -5367354.35849  -4162990.84849  20014833.0194   20014838.0634
  22206193.204     1786871.85949   1390954.56649  22206194.0024   22206200.7984
  20099231.851   -10118285.80949  -7865219.79049  20099232.1754   20099238.2114
  24265370.168     -544469.74849   -391926.15549  24265371.8474   24265380.0874
  22351284.004     4065963.43049   3159556.63849  22351285.0324   22351292.3894
  23487237.984   -10153728.735 9  -7897595.978 9  23487238.947    23487246.934
  24042770.790    -4208844.95849  -3250085.27449  24042774.7834   24042785.3194
 95  3 22 16 52 59.9980000  0  8 19 29 22 18 27 14 28 31
  21170718.440   -10927873.68149  -8499965.33049  21170719.3944   21170726.0884
  20006426.771    -5411524.01549  -4197408.77349  20006427.6374   20006432.8524
  22212467.004     1819842.66449   1416646.06249  22212467.8784   22212475.1314
  20080860.560   -10214826.85449  -7940446.56649  20080860.8464   20080866.8854
  24239338.027     -681280.23749   -498531.68149  24239337.2924   24239345.6274
  22360976.998     4116900.46649   3199247.77149  22360978.4554   22360985.5184
  23465481.420   -10268052.752 9  -7986679.592 9  23465483.924    23465491.979
  24015178.810    -4353841.71349  -3363069.69249  24015183.5604   24015192.9304
 95  3 22 16 53 29.9980000  0  8 19 29 22 18 27 14 28 31
  21150471.986   -11034265.19549  -8582867.79349  21150473.1614   21150479.8194
  19998079.677    -5455385.77249  -4231586.77749  19998081.2464   19998086.3604
  22218789.578     1853077.70649   1442543.45449  22218792.4654   22218799.6124
  20062543.682   -10311083.62449  -8015451.83249  20062544.2844   20062549.9794
  24213305.527     -818084.51849   -605132.37849  24213304.5164   24213311.9604
  22370703.931     4168014.76749   3239077.03349  22370704.5384   22370712.7274
  23443776.161   -10382128.919 9  -8075570.090 9  23443775.733    23443783.132
  23987577.113    -4498915.21249  -3476113.92149  23987576.4614   23987585.8234
 95  3 22 16 53 59.9980000  0  8 19 29 22 18 27 14 28 31
  21130255.250   -11140495.18949  -8665644.39349  21130258.4874   21130265.1514
  19989789.874    -5498950.88049  -4265533.62949  19989791.3084   19989796.2194
  22225166.205     1886572.86049   1468643.52649  22225166.2944   22225173.1774
  20044283.057   -10407048.86549  -8090229.94249  20044282.7664   20044287.9594
  24187272.256     -954889.83549   -711733.91449  24187272.2594   24187278.9104
  22380461.268     4219295.25849   3279035.78549  22380463.2084   22380470.8524
  23422120.613   -10495959.512 9  -8164269.229 9  23422114.216    23422120.385
  23959954.906    -4644060.05549  -3589213.76749  23959956.7354   23959965.5334
 95  3 22 16 54 29.9980000  0  8 19 29 22 18 27 14 28 31
  21110070.958   -11246573.32749  -8748302.65749  21110072.3654   21110078.9544
  19981557.071    -5542210.77349  -4299242.65449  19981558.9674   19981563.8244
  22231587.475     1920319.23149   1494939.35349  22231588.2064   22231595.1044
  20026076.739   -10502717.03849  -8164776.57649  20026077.4404   20026082.7614
  24161236.979    -1091699.19949   -818338.60549  24161238.3234   24161244.8364
  22390250.111     4270741.11149   3319123.41049  22390253.0464   22390261.0034
  23400499.705   -10609538.154 9  -8252772.036 9  23400500.450    23400507.312
  23932329.301    -4789267.20349  -3702362.13849  23932324.9734   23932333.2234
 95  3 22 16 54 59.9980000  0  8 19 29 22 18 27 14 28 31
  21089910.948   -11352516.71749  -8830855.92949  21089912.2094   21089918.2864
  19973385.743    -5585149.84849  -4332701.68749  19973387.8014   19973392.8724
  22238055.054     1954316.84049   1521430.95549  22238057.8704   22238064.2274
  20007922.120   -10598122.64249  -8239118.60049  20007922.0674   20007927.8414
  24135205.354    -1228490.62949   -924929.33749  24135206.1684   24135213.0444
  22400072.058     4322334.58649   3359326.04449  22400070.8164   22400078.9564
  23378939.442   -10722862.872 9  -8341076.985 9  23378935.715    23378942.340
  23904686.527    -4934526.06249  -3815550.82249  23904683.1244   23904690.3424
 95  3 22 16 55 29.9980000  0  8 19 29 22 18 27 14 28 31
  21069778.010   -11458311.20949  -8913293.17549  21069780.0974   21069786.4484
  19965278.631    -5627757.02649  -4365902.09549  19965280.1504   19965285.1624
  22244579.604     1988585.38749   1548133.67449  22244579.1284   22244585.3104
  19989815.553   -10693273.51349  -8313262.13449  19989815.8974   19989821.4094
  24109177.503    -1365271.71049  -1031511.98049  24109178.3624   24109184.3694
  22409915.054     4374064.55849   3399635.04149  22409915.3154   22409923.7054
  23357419.340   -10835925.715 9  -8429177.857 9  23357420.807    23357427.433
  23877036.120    -5079817.31249  -3928764.75349  23877035.4994   23877041.2134
 95  3 22 16 55 59.9980000  0  8 19 29 22 18 27 14 28 31
  21049675.213   -11563959.44949  -8995616.46349  21049676.0874   21049682.2044
  19957234.625    -5670030.44149  -4398842.42949  19957235.7794   19957240.6444
  22251150.579     2023126.90849   1575049.11649  22251152.2074   22251158.0154
  19971758.230   -10788164.54649  -8387203.19649  19971758.7034   19971764.3074
  24083142.282    -1502051.20849  -1138093.39449  24083149.8824   24083156.1484
  22419781.407     4425914.68649   3440037.65549  22419782.0524   22419790.1974
  23335955.234   -10948725.157 9  -8517073.479 9  23335956.262    23335963.283
  23849385.950    -5225134.99049  -4041999.27149  23849382.4884   23849388.5914
 95  3 22 16 56 29.9980000  0  8 19 29 22 18 27 14 28 31
  21029599.717   -11669450.94549  -9077817.61049  21029601.5974   21029607.5274
  19949256.976    -5711958.39549  -4431513.57649  19949257.1054   19949262.1044
  22257780.840     2057948.50349   1602182.78949  22257778.1904   22257784.5054
  19953751.217   -10882791.41849  -8460938.41849  19953751.8084   19953757.4394
  24057123.550    -1638816.87049  -1244664.02249  24057124.3684   24057131.6414
  22429670.196     4477877.67849   3480528.21549  22429671.1514   22429678.2124
  23314539.356   -11061254.293 9  -8604758.475 9  23314542.121    23314549.957
  23821724.524    -5370483.24749  -4155257.61849  23821723.2364   23821728.9324
 95  3 22 16 56 59.9980000  0  8 19 29 22 18 27 14 28 31
  21009560.088   -11774766.15849  -9159881.40449  21009560.6304   21009566.6314
  19941342.548    -5753542.97649  -4463917.15749  19941343.9974   19941348.9984
  22264457.502     2093054.91749   1629538.38349  22264458.9924   22264465.0844
  19935797.646   -10977138.84549  -8534455.90049  19935797.8194   19935803.4514
  24031102.878    -1775554.67549  -1351212.95449  24031103.4644   24031110.5684
  22439577.528     4529942.81149   3521098.37549  22439578.6024   22439585.3644
  23293179.053   -11173506.746 9  -8692227.872 9  23293180.805    23293188.878
  23794056.493    -5515860.07249  -4268538.21949  23794059.1814   23794064.4124
 95  3 22 16 57 29.9980000  0  8 19 29 22 18 27 14 28 31
  20989554.015   -11879893.86349  -9241799.07749  20989555.5854   20989561.8164
  19933493.479    -5794793.45149  -4496060.39349  19933494.1364   19933499.1474
  22271190.095     2128432.91349   1657105.60649  22271191.2744   22271197.6464
  19917904.256   -11071171.67149  -8607728.23649  19917904.2364   19917909.8074
  24005086.514    -1912276.19149  -1457749.18349  24005086.6724   24005094.0524
  22449506.738     4582116.48249   3561753.11149  22449506.6284   22449513.9144
  23271872.727   -11285483.139 9  -8779482.148 9  23271872.937    23271879.313
  23766385.416    -5661271.98149  -4381846.14749  23766387.0744   23766393.0564
 95  3 22 16 57 59.9980000  0  8 19 29 22 18 27 14 28 31
  20969582.600   -11984838.84449  -9323574.37149  20969585.2004   20969591.7454
  19925706.931    -5835709.29449  -4527942.88549  19925708.1114   19925713.0494
  22277971.211     2164068.22849   1684873.33849  22277972.2084   22277978.7914
  19900070.753   -11164883.19549  -8680750.20649  19900071.4834   19900077.1054
  23979077.323    -2048956.21649  -1564253.07149  23979078.0594   23979084.5444
  22459454.930     4634405.34849   3602497.59849  22459456.6454   22459463.6784
  23250614.741   -11397179.534 9  -8866518.253 9  23250617.263    23250623.751
  23738707.719    -5806715.60349  -4495178.77249  23738710.0694   23738716.0804
 95  3 22 16 58 29.9980000  0  8 19 29 22 18 27 14 28 31
  20949647.874   -12089602.20149  -9405208.14249  20949649.5344   20949655.8144
  19917982.270    -5876301.06449  -4559572.85549  19917983.6414   19917988.8014
  22284799.070     2199941.13049   1712826.20749  22284798.7354   22284805.2504
  19882296.911   -11258287.74549  -8753532.97749  19882297.3814   19882302.8174
  23953074.087    -2185587.60049  -1670719.06649  23953074.9504   23953084.2634
  22469426.109     4686801.56049   3643325.73949  22469427.3874   22469434.2364
  23229414.823   -11508592.346 9  -8953333.375 9  23229417.024    23229422.552
  23711027.759    -5952190.33649  -4608535.63149  23711027.1384   23711033.1774
 95  3 22 16 58 59.9980000  0  8 19 29 22 18 27 14 28 31
  20929745.958   -12194191.28649  -9486706.11349  20929746.7294   20929752.9104
  19910319.435    -5916572.37549  -4590953.10549  19910320.3564   19910325.6174
  22291665.593     2236030.58649   1740947.82249  22291666.5024   22291672.7264
  19864581.430   -11351384.85649  -8826076.17449  19864581.5154   19864587.2514
  23927083.306    -2322178.68149  -1777153.65249  23927084.7404   23927092.5494
  22479419.018     4739305.74849   3684238.01949  22479418.7154   22479426.0584
  23208267.846   -11619722.603 9  -9039928.310 9  23208269.463    23208275.343
  23683338.414    -6097701.72049  -4721920.99849  23683335.3634   23683343.1934
 95  3 22 16 59 29.9980000  0  8 19 29 22 18 27 14 28 31
  20909873.946   -12298611.94149  -9568072.84149  20909876.0384   20909882.2864
  19902718.018    -5956518.97049  -4622080.33749  19902718.8444   19902724.0274
  22298569.858     2272321.92249   1769226.73849  22298572.6954   22298579.2844
  19846921.824   -11444182.27749  -8898385.84849  19846922.3154   19846928.0774
  23901097.309    -2458738.48249  -1883563.84649  23901097.7544   23901104.9904
  22489428.452     4791919.94049   3725235.99649  22489430.6814   22489438.2274
  23187176.031   -11730567.396 9  -9126300.827 9  23187176.540    23187183.366
  23655637.364    -6243259.50749  -4835342.56449  23655636.6844   23655643.4514
 95  3 22 16 59 59.9980000  0  8 19 29 22 18 27 14 28 31
  20890034.217   -12402873.81249  -9649315.83349  20890035.5344   20890042.0044
  19895177.872    -5996145.44649  -4652958.12149  19895178.1924   19895183.3094
  22305515.593     2308806.24249   1797656.03049  22305515.0134   22305522.0044
  19829316.159   -11536698.50349  -8970476.41749  19829317.2604   19829322.8174
  23875118.579    -2595269.02249  -1989951.24549  23875117.5464   23875124.8074
  22499459.404     4844624.31949   3766304.26449  22499459.9834   22499467.4564
  23166140.324   -11841126.258 9  -9212450.520 9  23166136.890    23166144.862
  23627927.744    -6388869.35149  -4948804.68549  23627927.2304   23627935.7594
 95  3 22 17  0 29.9980000  0  8 19 29 22 18 27 14 28 31
  20870224.693   -12506974.88649  -9730433.54149  20870226.1734   20870231.8844
  19887698.140    -6035445.49849  -4683581.55449  19887699.6574   19887704.7354
  22312496.088     2345490.06449   1826240.77849  22312496.1194   22312502.7364
  19811767.444   -11628922.11049  -9042338.97649  19811767.7034   19811773.2414
  23849137.411    -2731784.47349  -2096326.86549  23849138.2434   23849147.3414
  22509506.700     4897423.19549   3807446.15549  22509507.6574   22509514.9564
  23145154.273   -11951396.926 9  -9298375.661 9  23145153.713    23145160.508
  23600202.066    -6534537.07649  -5062311.93849  23600208.4064   23600215.1154
 95  3 22 17  0 59.9980000  0  8 19 29 22 18 27 14 28 31
  20850447.210   -12610907.29749  -9811419.81949  20850448.2024   20850454.3624
  19880286.763    -6074394.68949  -4713931.58849  19880287.8294   19880293.1084
  22319520.977     2382397.91649   1855000.09049  22319519.4344   22319526.2504
  19794278.830   -11720822.70249  -9113949.83349  19794279.7884   19794285.3554
  23823160.452    -2868284.65349  -2202690.58649  23823163.8394   23823171.7504
  22519575.011     4950330.70649   3848672.71249  22519576.3484   22519583.8774
  23124226.356   -12061370.306 9  -9384069.149 9  23124226.471    23124233.137
  23572477.431    -6680240.26549  -5175846.78849  23572480.8204   23572489.2494
 95  3 22 17  1 29.9970000  0  8 19 29 22 18 27 14 28 31
  20830702.138   -12714672.21849  -9892275.58349  20830702.4954   20830708.9504
  19872944.211    -6112981.65049  -4743999.36649  19872945.1024   19872950.1244
  22326593.512     2419542.66049   1883943.98849  22326587.7574   22326594.5024
  19776853.819   -11812395.39249  -9185305.18249  19776853.9054   19776859.6414
  23797192.243    -3004754.22449  -2309030.46049  23797192.7034   23797202.9054
  22529666.455     5003356.23649   3889991.21149  22529666.5784   22529674.0604
  23103355.215   -12171036.635 9  -9469523.359 9  23103357.312    23103364.190
  23544747.011    -6825941.15049  -5289379.85949  23544757.2324   23544763.7514
 95  3 22 17  1 59.9970000  0  8 19 29 22 18 27 14 28 31
  20810984.703   -12818281.38149  -9973009.98049  20810986.4854   20810992.3684
  19865668.706    -6151212.26249  -4773789.47049  19865669.9994   19865675.2014
  22333706.628     2456942.25049   1913086.47749  22333705.0564   22333711.3794
  19759490.524   -11903635.82549  -9256401.62649  19759491.8744   19759497.3814
  23771230.601    -3141186.55049  -2415341.31649  23771230.8524   23771238.8104
  22539783.742     5056514.97449   3931413.52749  22539782.5114   22539790.1964
  23082546.053   -12280402.162 9  -9554743.204 9  23082546.393    23082552.730
  23517037.165    -6971624.82649  -5402899.50449  23517034.7944   23517041.6274
 95  3 22 17  2 29.9970000  0  8 19 29 22 18 27 14 28 31
  20791298.218   -12921733.06549 -10053621.66849  20791300.1404   20791305.8654
  19858463.053    -6189078.30049  -4803295.49349  19858464.2824   19858469.3394
  22340868.097     2494596.70349   1942427.55949  22340870.2724   22340876.8094
  19742195.917   -11994523.77149  -9327223.41049  19742196.1074   19742201.5054
  23745271.183    -3277579.19749  -2521621.26349  23745277.0194   23745285.7964
  22549924.190     5109821.14449   3972950.72349  22549926.0654   22549934.1334
  23061794.595   -12389457.461 9  -9639721.308 9  23061793.887    23061800.449
  23489320.710    -7117261.45949  -5516382.48549  23489321.0264   23489328.7764
 95  3 22 17  2 59.9970000  0  8 19 29 22 18 27 14 28 31
  20771642.058   -13025031.24949 -10134113.74849  20771643.0014   20771649.3104
  19851325.179    -6226584.08649  -4832520.79749  19851327.0844   19851332.2454
  22348077.810     2532495.82649   1971959.29349  22348082.0764   22348089.1074
  19724966.986   -12085060.95349  -9397771.87449  19724967.7004   19724972.8794
  23719327.597    -3413933.92749  -2627871.65149  23719329.4904   23719339.0604
  22560096.667     5163266.64549   4014596.47349  22560096.5884   22560103.6714
  23041100.994   -12498197.549 9  -9724453.798 9  23041100.660    23041107.510
  23461620.362    -7262834.13049  -5629815.62249  23461620.2424   23461627.9524
 95  3 22 17  3 29.9970000  0  8 19 29 22 18 27 14 28 31
  20752014.167   -13128175.92649 -10214486.20649  20752015.1864   20752021.4534
  19844252.683    -6263750.34449  -4861481.53449  19844254.8984   19844260.0884
  22355337.747     2570625.36649   2001670.56649  22355338.0934   22355344.9554
  19707802.463   -12175260.78549  -9468057.46749  19707803.0324   19707808.6454
  23693387.984    -3550249.08249  -2734091.19549  23693389.6354   23693398.0904
  22570291.395     5216847.04449   4056347.36849  22570292.0244   22570299.9904
  23020466.041   -12606621.679 9  -9808940.087 9  23020468.028    23020475.444
  23433926.849    -7408354.56749  -5743208.06949  23433928.5324   23433936.5184
 95  3 22 17  3 59.9970000  0  8 19 29 22 18 27 14 28 31
  20732418.057   -13231154.19949 -10294729.00149  20732419.2704   20732425.2654
  19837242.613    -6300593.15249  -4890190.23649  19837243.8654   19837249.0904
  22362633.451     2608971.57649   2031550.67349  22362635.3614   22362641.9374
  19690702.280   -12265126.47849  -9538082.68649  19690702.1924   19690707.8514
  23667451.571    -3686545.45349  -2840296.14149  23667453.5464   23667461.9974
  22580507.773     5270544.79949   4098189.69349  22580510.3174   22580518.9744
  22999893.297   -12714730.953 9  -9893181.031 9  22999895.107    22999902.648
  23406239.746    -7553851.47049  -5856582.19849  23406241.5354   23406250.2434
 95  3 22 17  4 29.9970000  0  8 19 29 22 18 27 14 28 31
  20712853.895   -13333962.32649 -10374839.22349  20712855.4214   20712861.9894
  19830295.161    -6337103.83849  -4918640.13949  19830295.9694   19830301.2624
  22369971.613     2647518.97849   2061587.55549  22369970.6724   22369977.4254
  19673660.238   -12354679.46649  -9607864.23249  19673660.8934   19673666.3114
  23641514.681    -3822847.44149  -2946505.45449  23641516.8454   23641525.0464
  22590745.685     5324336.15849   4140104.95649  22590746.4664   22590754.8214
  22979380.670   -12822529.236 9  -9977179.650 9  22979382.066    22979388.766
  23378557.191    -7699349.07049  -5969956.87949  23378553.9464   23378563.1864
 95  3 22 17  4 59.9970000  0  8 19 29 22 18 27 14 28 31
  20693325.082   -13436585.96849 -10454805.68549  20693326.4044   20693333.1794
  19823409.644    -6373287.35049  -4946835.09949  19823410.6484   19823415.8824
  22377346.864     2686278.83749   2091789.98849  22377346.6094   22377353.0614
  19656675.323   -12443938.52449  -9677416.74749  19656675.5244   19656681.0054
  23615579.941    -3959152.18949  -3052716.91449  23615576.8754   23615586.1934
  22600996.244     5378208.40749   4182083.22849  22600998.2234   22601006.0274
  22958930.279   -12930016.205 9 -10060935.693 9  22958927.887    22958935.277
  23350861.949    -7844858.65549  -6083340.91949  23350863.5944   23350873.6284
 95  3 22 17  5 29.9970000  0  8 19 29 22 18 27 14 28 31
  20673831.473   -13539027.99549 -10534630.63049  20673832.6864   20673838.9444
  19816585.824    -6409143.93549  -4974775.31049  19816587.3474   19816592.4584
  22384764.777     2725256.42049   2122162.09049  22384763.8984   22384770.3654
  19639744.735   -12532909.48249  -9746744.77349  19639744.8444   19639750.1944
  23589643.063    -4095445.01349  -3158919.08949  23589642.6824   23589650.7094
  22611266.488     5432165.79749   4224127.86049  22611266.7424   22611274.2684
  22938533.241   -13037189.929 9 -10144447.639 9  22938533.690    22938541.258
  23323167.275    -7990390.72549  -6196742.46949  23323168.7414   23323178.5914
 95  3 22 17  5 59.9970000  0  8 19 29 22 18 27 14 28 31
  20654370.507   -13641292.34249 -10614317.11949  20654372.3174   20654378.4634
  19809828.131    -6444656.49149  -5002447.45449  19809829.5284   19809834.7194
  22392216.389     2764447.06149   2152700.20349  22392221.4364   22392228.3684
  19622869.570   -12621587.27849  -9815844.35449  19622869.9374   19622875.2964
  23563708.930    -4231725.10149  -3265111.33349  23563710.0894   23563717.2504
  22621548.143     5486200.01249   4266232.34649  22621549.3114   22621556.6264
  22918195.085   -13144046.515 9 -10227712.492 9  22918199.129    22918206.839
  23295470.413    -8135940.03549  -6310157.42449  23295471.9834   23295481.7724
 95  3 22 17  6 29.9970000  0  8 19 29 22 18 27 14 28 31
  20634941.223   -13743397.66649 -10693879.70449  20634942.2544   20634948.7854
  19803135.126    -6479828.47649  -5029854.20149  19803136.6054   19803142.0754
  22399714.200     2803837.86849   2183394.29449  22399717.4604   22399724.4624
  19606050.723   -12709970.24349  -9884714.19949  19606051.0504   19606056.8804
  23537779.183    -4367985.29049  -3371288.05349  23537779.3534   23537788.0004
  22631840.952     5540295.96049   4308384.92749  22631843.5894   22631850.9974
  22897920.732   -13250586.152 9 -10310730.362 9  22897925.077    22897933.209
  23267777.252    -8281494.13049  -6423576.10849  23267774.1514   23267783.7424
 95  3 22 17  6 59.9970000  0  8 19 29 22 18 27 14 28 31
  20615539.457   -13845353.13549 -10773325.51249  20615540.6254   20615547.0934
  19796504.669    -6514672.65649  -5057005.53149  19796505.8974   19796511.2764
  22407248.692     2843411.85449   2214231.11849  22407248.2894   22407255.0414
  19589290.303   -12798048.56749  -9953346.66449  19589290.7274   19589296.2604
  23511854.382    -4504224.42949  -3477448.38849  23511853.7634   23511861.9524
  22642149.386     5594450.85849   4350583.44349  22642149.0484   22642156.3704
  22877702.928   -13356805.920 9 -10393498.991 9  22877712.278    22877720.367
  23240072.674    -8427046.77249  -6536993.67149  23240075.7504   23240084.7264
 95  3 22 17  7 29.9970000  0  8 19 29 22 18 27 14 28 31
  20596167.149   -13947157.30449 -10852653.42049  20596168.4774   20596174.4414
  19789940.000    -6549170.24549  -5083886.78749  19789941.3444   19789946.2094
  22414808.927     2883150.56449   2245196.30049  22414810.2454   22414817.1224
  19572590.821   -12885804.43649 -10021727.86549  19572591.2014   19572596.6014
  23485933.761    -4640436.90249  -3583587.96149  23485934.4344   23485941.5934
  22652466.124     5648664.46249   4392827.71049  22652465.7014   22652473.2734
  22857562.739   -13462695.892 9 -10476010.625 9  22857561.951    22857569.236
  23212376.646    -8572584.78049  -6650399.83649  23212380.0754   23212389.2884
 95  3 22 17  7 59.9970000  0  8 19 29 22 18 27 14 28 31
  20576827.783   -14048785.88949 -10931844.51149  20576828.9674   20576835.3744
  19783443.587    -6583308.55949  -5110488.07649  19783445.0464   19783450.2114
  22422396.861     2923044.60349   2276282.51649  22422401.9554   22422408.7054
  19555956.356   -12973218.68049 -10089842.85949  19555956.5824   19555962.2814
  23460015.560    -4776634.55549  -3689715.98649  23460016.7664   23460024.6724
  22662789.592     5702923.23849   4435107.17149  22662790.3574   22662798.5814
  22837470.885   -13568249.840 9 -10558260.414 9  22837476.332    22837483.012
  23184691.263    -8718092.08149  -6763782.06149  23184691.3284   23184699.7094
 95  3 22 17  8 29.9970000  0  8 19 29 22 18 27 14 28 31
  20557523.335   -14150233.50549 -11010894.59449  20557524.0364   20557530.3534
  19777017.647    -6617076.16449  -5136800.51849  19777019.1534   19777024.3684
  22430025.373     2963099.81249   2307494.31849  22430024.2154   22430031.1064
  19539390.008   -13060275.70349 -10157679.50049  19539390.3534   19539395.8004
  23434103.384    -4912804.62849  -3795822.50649  23434104.5814   23434112.3294
  22673124.559     5757237.91649   4477430.19249  22673126.4494   22673134.4574
  22817447.705   -13673461.114 9 -10640243.202 9  22817455.582    22817462.228
  23157007.498    -8863562.78849  -6877135.80549  23157009.0334   23157016.1714
 95  3 22 17  8 59.9970000  0  8 19 29 22 18 27 14 28 31
  20538253.539   -14251497.14049 -11089801.30249  20538254.1784   20538260.4904
  19770665.328    -6650455.13549  -5162810.12449  19770667.4794   19770672.7464
  22437677.935     3003332.64449   2338844.52049  22437680.1044   22437686.9014
  19522893.536   -13146965.28749 -10225229.82749  19522894.2354   19522899.5104
  23408199.758    -5048935.25549  -3901898.28249  23408198.8704   23408207.4374
  22683475.358     5811625.64949   4519810.14649  22683475.9834   22683484.2224
  22797504.611   -13778324.907 9 -10721955.224 9  22797500.330    22797507.520
  23129328.234    -9008990.35049  -6990455.92949  23129335.8514   23129341.8054
 95  3 22 17  9 29.9970000  0  8 19 29 22 18 27 14 28 31
  20519018.680   -14352572.42749 -11168561.24549  20519020.3594   20519026.6934
  19764389.726    -6683438.03949  -5188511.11349  19764391.0164   19764396.2094
  22445371.214     3043752.62349   2370340.54349  22445372.0634   22445378.5344
  19506468.889   -13233276.87549 -10292485.61549  19506469.4394   19506474.7994
  23382303.898    -5185011.64949  -4007931.80349  23382304.3724   23382312.9194
  22693838.044     5866088.53449   4562248.63749  22693839.6314   22693848.0974
  22777612.213   -13882836.380 9 -10803392.724 9  22777612.137    22777619.774
  23101670.765    -9154360.82749  -7103731.61249  23101673.0744   23101678.8394
 95  3 22 17  9 59.9970000  0  8 19 29 22 18 27 14 28 31
  20499818.579   -14453469.40649 -11247182.25149  20499819.9954   20499826.5324
  19758185.681    -6716037.96849  -5213913.68149  19758187.4484   19758192.6134
  22453098.170     3084358.24549   2401981.22049  22453098.9124   22453105.6514
  19490116.908   -13319210.82049 -10359447.12549  19490116.5784   19490122.3564
  23356422.171    -5321022.72149  -4113914.45149  23356423.2154   23356430.1444
  22704214.476     5920625.56249   4604744.92349  22704218.4314   22704226.3144
  22757787.959   -13986995.283 9 -10884555.486 9  22757791.293    22757798.677
  23074018.210    -9299679.47949  -7216966.89449  23074019.3324   23074025.8294
 95  3 22 17 10 29.9970000  0  8 19 29 22 18 27 14 28 31
  20480647.570   -14554213.00649 -11325683.73349  20480649.1744   20480655.4814
  19752054.107    -6748266.21349  -5239026.61649  19752054.5274   19752059.7054
  22460859.177     3125149.07649   2433766.22649  22460860.7494   22460867.7394
  19473831.336   -13404788.09849 -10426130.71349  19473831.7514   19473837.2834
  23330549.805    -5456969.26449  -4219846.82149  23330553.6104   23330560.3614
  22714607.847     5975226.28149   4647290.83849  22714608.9094   22714616.8914
  22738037.087   -14090805.732 9 -10965446.721 9  22738037.644    22738043.880
  23046378.897    -9444939.86049  -7330156.75349  23046378.2884   23046384.3344
 95  3 22 17 10 59.9970000  0  8 19 29 22 18 27 14 28 31
  20461507.110   -14654798.27049 -11404061.84149  20461508.8134   20461514.7744
  19745987.558    -6780146.99749  -5263868.80349  19745987.9564   19745993.0864
  22468659.109     3166123.80749   2465694.52749  22468658.2464   22468664.9294
  19457613.108   -13490019.32349 -10492544.66649  19457613.1544   19457618.1784
  23304690.951    -5592873.39049  -4325746.09849  23304690.0694   23304699.2664
  22725007.485     6029873.80449   4689873.20649  22725007.6294   22725015.9614
  22718351.456   -14194264.673 9 -11046064.053 9  22718350.082    22718356.317
  23018752.466    -9590126.44149  -7443289.10749  23018750.0574   23018756.8004
 95  3 22 17 11 29.9970000  0  8 19 29 22 18 27 14 28 31
  20442397.914   -14755219.53149 -11482312.15149  20442399.1004   20442405.4884
  19739982.227    -6811700.70449  -5288456.12349  19739983.4914   19739988.9594
  22476484.693     3207268.59249   2497755.33749  22476487.8564   22476495.0714
  19441459.009   -13574908.66849 -10558692.21449  19441459.1594   19441464.6034
  23278835.639    -5728752.98649  -4431626.27049  23278834.5924   23278841.6134
  22735410.615     6084551.38749   4732479.00549  22735412.7374   22735420.7634
  22698726.978   -14297370.461 9 -11126406.208 9  22698728.814    22698736.742
  22991134.503    -9735232.96749  -7556359.10249  22991137.1254   22991144.7744
 95  3 22 17 11 59.9970000  0  8 19 29 22 18 27 14 28 31
  20423319.030   -14855477.46349 -11560435.19749  20423320.6334   20423327.2574
  19734040.003    -6842928.32549  -5312789.35649  19734041.0674   19734046.5954
  22484349.210     3248591.47949   2529954.92449  22484351.2994   22484358.5124
  19425368.486   -13659460.49249 -10624576.75149  19425369.2774   19425375.3284
  23252980.268    -5864614.06449  -4537492.03949  23252980.4664   23252988.4354
  22745822.167     6139257.19549   4775106.81049  22745822.6714   22745830.5334
  22679171.014   -14400119.813 9 -11206470.620 9  22679176.015    22679184.359
  22963539.933    -9880254.20149  -7669362.63149  22963540.2314   22963548.6724
 95  3 22 17 12 29.9970000  0  8 19 29 22 18 27 14 28 31
  20404272.844   -14955568.83049 -11638428.46249  20404273.8154   20404280.2434
  19728159.182    -6873832.75849  -5336870.75449  19728160.2194   19728165.4504
  22492245.902     3290102.53249   2562301.14249  22492251.1764   22492257.7944
  19409344.827   -13743668.82049 -10690193.62949  19409345.2644   19409350.9314
  23227125.134    -6000475.54749  -4643358.13249  23227127.1334   23227134.1854
  22756237.399     6193993.50649   4817758.35749  22756238.9254   22756246.9214
  22659690.732   -14502510.158 9 -11286255.291 9  22659691.954    22659699.555
  22935958.365   -10025173.87449  -7782287.04149  22935962.3194   22935972.2964
 95  3 22 17 12 59.9970000  0  8 19 29 22 18 27 14 28 31
  20385258.773   -15055485.98549 -11716285.97649  20385260.2954   20385266.7754
  19722337.976    -6904416.57549  -5360702.32049  19722340.1474   19722345.4454
  22500183.123     3331803.67649   2594795.48449  22500186.4344   22500193.6204
  19393386.698   -13827529.63749 -10755539.72649  19393387.1784   19393392.4984
  23201274.292    -6136325.31149  -4749215.07049  23201275.8164   23201283.7754
  22766662.867     6248769.97449   4860441.20949  22766662.3804   22766670.3724
  22640275.072   -14604540.704 9 -11365759.580 9  22640276.765    22640283.332
  22908398.845   -10170007.22649  -7895144.17849  22908400.4584   22908410.7194
 95  3 22 17 13 29.9970000  0  8 19 29 22 18 27 14 28 31
  20366277.486   -15155231.61649 -11794009.82749  20366279.1354   20366285.5074
  19716584.639    -6934656.91049  -5384266.24149  19716585.8044   19716591.0174
  22508157.734     3373687.16249   2627431.90649  22508156.4314   22508163.5994
  19377493.699   -13911049.22949 -10820619.94149  19377493.6484   19377498.8774
  23175429.373    -6272135.56149  -4855041.23349  23175431.9764   23175439.4644
  22777092.354     6303590.62649   4903158.48049  22777094.1754   22777102.2704
  22620929.428   -14706211.383 9 -11444983.440 9  22620929.118    22620935.936
  22880850.302   -10314773.11049  -8007948.73349  22880852.1274   22880862.5144
 95  3 22 17 13 59.9970000  0  8 19 29 22 18 27 14 28 31
  20347330.187   -15254805.04349 -11871599.50749  20347331.2054   20347337.1484
  19710898.447    -6964537.18449  -5407549.58849  19710899.9404   19710905.2434
  22516167.110     3415757.37349   2660213.83649  22516162.2604   22516169.5124
  19361663.662   -13994234.66449 -10885439.76849  19361663.8634   19361669.2744
  23149593.026    -6407898.99249  -4960830.91449  23149596.2474   23149604.4464
  22787534.935     6358457.44449   4945911.72449  22787535.5704   22787543.2994
  22601651.331   -14807521.671 9 -11523926.473 9  22601650.240    22601657.324
  22853312.233   -10459482.10649  -8120708.95249  22853314.8804   22853324.6684
 95  3 22 17 14 29.9970000  0  8 19 29 22 18 27 14 28 31
  20328412.990   -15354213.19849 -11949060.38549  20328414.2334   20328420.6734
  19705280.040    -6994063.60049  -5430557.20449  19705280.8994   19705286.3574
  22524201.279     3457997.74049   2693128.35849  22524200.3114   22524207.6654
  19345895.515   -14077095.74249 -10950006.84249  19345896.2774   19345901.9014
  23123764.203    -6543625.67349  -5066591.94049  23123768.2944   23123776.5254
  22797982.019     6413361.36549   4988693.88749  22797983.6454   22797991.7384
  22582439.122   -14908477.827 9 -11602593.565 9  22582438.481    22582446.278
  22825782.501   -10604156.68349  -8233442.36449  22825784.9344   22825792.6864
 95  3 22 17 14 59.9970000  0  8 19 29 22 18 27 14 28 31
  20309529.435   -15453449.13849 -12026387.07749  20309530.3064   20309536.4694
  19699732.491    -7023214.45449  -5453272.17849  19699733.8304   19699739.0514
  22532267.772     3500394.05549   2726164.40549  22532268.3604   22532275.6794
  19330190.124   -14159632.49949 -11014321.19949  19330190.0954   19330195.6134
  23097948.558    -6679305.47549  -5172316.45349  23097949.4504   23097957.2724
  22808436.128     6468302.57849   5031505.10749  22808438.4494   22808445.5764
  22563298.440   -15009072.656 9 -11680979.105 9  22563296.228    22563303.345
  22798258.682   -10748808.64449  -8346158.16649  22798259.5764   22798265.7264
 95  3 22 17 15 29.9960000  0  8 19 29 22 18 27 14 28 31
  20290677.679   -15552512.99249 -12103579.69049  20290679.0664   20290685.1414
  19694258.393    -7051979.77949  -5475686.73449  19694260.0824   19694265.2834
  22540360.832     3542924.02849   2759304.60449  22540361.4244   22540368.6544
  19314547.750   -14241829.18649 -11078370.57549  19314548.3574   19314554.0004
  23072135.049    -6814947.40849  -5278011.41249  23072138.2164   23072145.6234
  22818897.839     6523276.30849   5074341.65449  22818899.4324   22818907.7044
  22544222.614   -15109296.854 9 -11759075.850 9  22544224.980    22544231.081
  22770741.170   -10893415.49949  -8458838.81149  22770742.0984   22770747.5434
 95  3 22 17 15 59.9960000  0  8 19 29 22 18 27 14 28 31
  20271859.853   -15651405.78549 -12180638.99849  20271860.5704   20271866.5644
  19688854.143    -7080382.99249  -5497819.13649  19688855.0464   19688860.2034
  22548476.719     3585590.64349   2792551.27449  22548480.3034   22548487.5524
  19298974.382   -14323669.53749 -11142142.29049  19298974.4334   19298979.7834
  23046327.202    -6950579.90249  -5383698.97949  23046328.1284   23046335.6104
  22829370.272     6578292.63749   5117211.42749  22829368.9764   22829377.0704
  22525220.629   -15209152.189 9 -11836885.160 9  22525222.748    22525228.998
  22743236.523   -11037961.63049  -8571472.11849  22743236.6314   22743241.2224
 95  3 22 17 16 29.9960000  0  8 19 29 22 18 27 14 28 31
  20253074.104   -15750125.65049 -12257563.56449  20253074.7874   20253080.6354
  19683517.375    -7108423.98749  -5519669.27949  19683519.0734   19683524.4454
  22556618.619     3628381.44949   2825894.71249  22556623.1614   22556630.6184
  19283473.440   -14405127.07849 -11205615.71049  19283473.9614   19283479.3214
  23020519.342    -7086199.81549  -5489376.75949  23020520.3504   23020528.1294
  22839844.611     6633347.44649   5160111.16449  22839846.3084   22839853.6354
  22506292.121   -15308627.589 9 -11914398.422 9  22506292.815    22506299.029
  22715746.312   -11182422.90849  -8684039.32149  22715746.5934   22715752.6194
 95  3 22 17 16 59.9960000  0  8 19 29 22 18 27 14 28 31
  20234321.515   -15848670.08449 -12334351.42449  20234322.5524   20234328.3354
  19678251.089    -7136100.05449  -5541235.06149  19678252.4994   19678257.9624
  22564783.737     3671290.03849   2859329.92549  22564788.7024   22564795.1324
  19268048.183   -14486188.31149 -11268780.31849  19268048.6974   19268054.2654
  22994713.941    -7221803.54149  -5595041.94849  22994716.4394   22994723.3154
  22850329.881     6688436.10949   5203037.28349  22850328.8534   22850336.2024
  22487441.254   -15407719.780 9 -11991613.079 9  22487436.075    22487442.833
  22688277.970   -11326776.74149  -8796522.81449  22688276.9844   22688283.5564
 95  3 22 17 17 29.9960000  0  8 19 29 22 18 27 14 28 31
  20215601.808   -15947040.50349 -12411003.69649  20215603.1664   20215609.2364
  19673051.170    -7163431.60349  -5562532.39149  19673051.7944   19673056.8074
  22572972.153     3714330.08749   2892867.56349  22572978.8814   22572986.2794
  19252700.052   -14566842.93149 -11331628.07849  19252700.2324   19252706.3454
  22968914.031    -7357393.90349  -5700696.71249  22968913.1874   22968922.1724
  22860815.095     6743547.07249   5245980.77549  22860816.7384   22860824.2764
  22468653.362   -15506428.589 9 -12068528.997 9  22468652.669    22468659.612
  22660826.942   -11471013.13149  -8908914.78549  22660828.2704   22660837.1904
 95  3 22 17 17 59.9960000  0  8 19 29 22 18 27 14 28 31
  20196915.280   -16045244.92049 -12487526.61549  20196915.4064   20196921.5164
  19667915.250    -7190417.48749  -5583560.37849  19667916.4914   19667921.5144
  22581188.571     3757515.33749   2926518.34249  22581196.9394   22581203.9034
  19237429.331   -14647093.11849 -11394160.69949  19237429.2064   19237434.8264
  22943110.555    -7492971.86449  -5806341.79549  22943113.7284   22943122.2534
  22871306.712     6798662.92849   5288928.05649  22871304.6834   22871313.0754
  22449939.085   -15604753.581 9 -12145145.853 9  22449941.877    22449948.959
  22633400.980   -11615137.80249  -9021219.71149  22633401.6294   22633411.7464
 95  3 22 17 18 29.9960000  0  8 19 29 22 18 27 14 28 31
  20178253.630   -16143309.77949 -12563940.79049  20178254.3654   20178260.4894
  19662849.565    -7217038.13349  -5604303.76349  19662850.7164   19662856.1504
  22589444.108     3800846.72449   2960283.00149  22589443.0304   22589449.8234
  19222231.500   -14726952.95049 -11456389.15449  19222232.6364   19222237.7864
  22917318.949    -7628528.55449  -5911970.31849  22917318.9244   22917326.4644
  22881788.729     6853772.48049   5331870.43749  22881791.3214   22881800.6274
  22431297.263   -15702694.331 9 -12221463.296 9  22431304.021    22431310.304
  22605989.274   -11759164.47049  -9133448.24349  22605993.3704   22606004.6214
 95  3 22 17 18 59.9960000  0  8 19 29 22 18 27 14 28 31
  20159619.762   -16241228.68149 -12640241.21849  20159621.0844   20159627.5214
  19657854.289    -7243288.69549  -5624758.76549  19657855.3824   19657861.0524
  22597729.063     3844332.32749   2994167.82049  22597717.9444   22597725.4294
  19207107.434   -14806435.15849 -11518323.35149  19207107.4674   19207113.1494
  22891528.502    -7764044.77049  -6017567.30649  22891530.6784   22891537.9514
  22892274.575     6908875.86149   5374808.01349  22892277.2514   22892285.4104
  22412740.685   -15800242.723 9 -12297475.001 9  22412741.254    22412747.714
  22578604.315   -11903092.97149  -9245600.27449  22578605.5674   22578615.6834
 95  3 22 17 19 29.9960000  0  8 19 29 22 18 27 14 28 31
  20141011.763   -16339011.36249 -12716435.51649  20141013.6254   20141019.6614
  19652928.130    -7269174.43449  -5644929.49249  19652929.5194   19652934.9354
  22606016.486     3887969.81449   3028170.99249  22606022.0294   22606029.2894
  19192052.288   -14885544.12249 -11579966.70649  19192053.3424   19192059.4884
  22865750.866    -7899518.65449  -6123131.30449  22865750.5754   22865757.8534
  22902757.729     6963969.27149   5417737.81649  22902760.6384   22902769.6574
  22394251.249   -15897395.667 9 -12373178.576 9  22394253.352    22394259.921
  22551236.243   -12046921.42849  -9357674.34449  22551236.5674   22551245.7764
 95  3 22 17 19 59.9960000  0  8 19 29 22 18 27 14 28 31
  20122429.851   -16436667.90149 -12792531.51649  20122430.2834   20122436.4364
  19648073.232    -7294690.18449  -5664811.92949  19648074.1694   19648079.3274
  22614354.667     3931749.05049   3062284.61449  22614352.7404   22614359.6574
  19177067.217   -14964296.22549 -11641331.98649  19177067.5214   19177073.2604
  22839982.057    -8034935.70949  -6228651.01349  22839982.3104   22839989.3184
  22913242.965     7019058.94649   5460664.69749  22913244.6564   22913253.4084
  22375843.827   -15994153.435 9 -12448574.216 9  22375841.600    22375848.114
  22523888.235   -12190644.96149  -9469666.64649  22523887.6594   22523895.6534
 95  3 22 17 20 29.9960000  0  8 19 29 22 18 27 14 28 31
  20103873.686   -16534176.73549 -12868512.43149  20103874.7634   20103881.1594
  19643283.581    -7319854.33349  -5684420.37749  19643285.3014   19643290.7424
  22622707.562     3975650.32249   3096493.33149  22622706.9814   22622714.2324
  19162147.489   -15042702.35549 -11702427.68249  19162147.4854   19162153.1274
  22814222.501    -8170291.21749  -6334122.78249  22814224.5324   22814231.9484
  22923727.858     7074144.95349   5503588.75849  22923727.1724   22923736.0994
  22357505.706   -16090518.567 9 -12523663.908 9  22357503.730    22357511.348
  22496562.369   -12334260.79449  -9581575.01249  22496559.0314   22496565.1884
 95  3 22 17 20 59.9960000  0  8 19 29 22 18 27 14 28 31
  20085352.630   -16631505.61149 -12944353.11149  20085353.8364   20085359.9084
  19638560.778    -7344673.68049  -5703760.15149  19638562.4594   19638567.9604
  22631084.913     4019663.49649   3130789.25249  22631082.5374   22631089.5974
  19147294.488   -15120751.25949 -11763245.02749  19147295.1834   19147300.7794
  22788474.224    -8305596.36549  -6439555.32649  22788476.5574   22788484.2094
  22934206.634     7129223.47049   5546506.92549  22934208.2554   22934217.1234
  22339239.844   -16186491.568 9 -12598448.041 9  22339240.444    22339247.214
  22469250.851   -12477759.87949  -9693392.39849  22469252.4014   22469256.6764
 95  3 22 17 21 29.9960000  0  8 19 29 22 18 27 14 28 31
  20066867.769   -16728641.59649 -13020043.48649  20066869.1964   20066875.6984
  19633904.832    -7369145.85949  -5722829.40149  19633905.6494   19633911.2614
  22639475.092     4063795.49149   3165177.76849  22639480.7784   22639487.2024
  19132514.022   -15198424.79949 -11823769.87149  19132514.3264   19132520.1434
  22762734.681    -8440858.71349  -6544954.52649  22762736.5374   22762744.6654
  22944689.501     7184305.15649   5589427.60449  22944690.4074   22944699.2664
  22321054.213   -16282066.299 9 -12672921.844 9  22321053.366    22321059.679
  22441969.233   -12621129.46849  -9805108.87049  22441968.8764   22441973.8534
 95  3 22 17 21 59.9960000  0  8 19 29 22 18 27 14 28 31
  20048425.309   -16825564.21849 -13095567.59149  20048425.6164   20048431.5524
  19629314.573    -7393263.65949  -5741622.52049  19629316.1894   19629321.5644
  22647904.834     4108045.91149   3199658.55849  22647901.5374   22647908.3274
  19117805.311   -15275719.11249 -11883999.21149  19117805.8374   19117811.5424
  22737002.850    -8576089.52049  -6650329.14049  22737003.1514   22737011.2774
  22955175.833     7239390.48249   5632351.12749  22955173.2294   22955180.7764
  22302940.507   -16377240.940 9 -12747083.876 9  22302942.972    22302948.835
  22414709.022   -12764370.94349  -9916725.49949  22414709.9334   22414715.8244
 95  3 22 17 22 29.9960000  0  8 19 29 22 18 27 14 28 31
  20030022.501   -16922269.00349 -13170921.97449  20030023.3304   20030029.3184
  19624794.910    -7417014.81649  -5760129.94649  19624796.1194   19624801.6384
  22656340.115     4152411.40649   3234229.02449  22656343.6664   22656351.0824
  19103172.445   -15352617.41949 -11943919.98249  19103172.6264   19103178.1874
  22711267.426    -8711313.67349  -6755698.59849  22711271.3454   22711279.1814
  22965655.043     7294473.48849   5675272.83049  22965655.2694   22965664.2384
  22284905.197   -16472011.241 9 -12820930.850 9  22284908.254    22284915.014
  22387473.871   -12907483.77349 -10028241.88649  22387475.6694   22387482.4034
 95  3 22 17 22 59.9960000  0  8 19 29 22 18 27 14 28 31
  20011659.095   -17018769.87449 -13246117.46049  20011659.8144   20011665.8974
  19620349.406    -7440378.13749  -5778335.15249  19620350.3484   19620356.0544
  22664806.047     4196906.01449   3268900.09449  22664810.8554   22664817.9314
  19088616.381   -15429110.43249 -12003524.93449  19088616.3814   19088621.8964
  22685537.322    -8846532.10649  -6861063.60349  22685540.1414   22685547.4224
  22976138.017     7349566.20249   5718202.06949  22976139.9064   22976147.4194
  22266957.417   -16566370.429 9 -12894457.462 9  22266952.178    22266959.615
  22360264.507   -13050449.61549 -10139643.75349  22360269.4094   22360277.6314
 95  3 22 17 23 29.9960000  0  8 19 29 22 18 27 14 28 31
  19993328.880   -17115088.69549 -13321171.08049  19993330.7164   19993337.0894
  19615977.014    -7463359.96849  -5796243.09149  19615977.4544   19615983.1784
  22673300.028     4241523.78549   3303667.13749  22673301.0624   22673308.6984
  19074134.818   -15505209.26849 -12062822.73949  19074135.1644   19074140.7324
  22659810.451    -8981738.45049  -6966419.17449  22659810.9474   22659818.8134
  22986624.627     7404668.29249   5761138.59649  22986625.3584   22986632.7404
  22249076.537   -16660315.060 9 -12967661.049 9  22249074.527    22249082.394
  22333084.830   -13193268.64049 -10250931.22349  22333092.5594   22333101.0914
 95  3 22 17 23 59.9960000  0  8 19 29 22 18 27 14 28 31
  19975033.421   -17211232.33149 -13396088.19349  19975035.1594   19975041.5154
  19611679.072    -7485941.73249  -5813839.30049  19611680.3964   19611685.7144
  22681819.390     4286259.12849   3338525.79349  22681813.7714   22681821.6314
  19059726.540   -15580928.13849 -12121824.46549  19059726.5524   19059732.0934
  22634084.052    -9116923.97949  -7071758.51649  22634085.9824   22634093.6344
  22997111.404     7459779.52649   5804082.28749  22997112.4604   22997120.4274
  22231279.948   -16753841.700 9 -13040538.922 9  22231277.700    22231284.284
  22305942.456   -13335937.43549 -10362101.63649  22305945.1174   22305952.5884
 95  3 22 17 24 29.9960000  0  8 19 29 22 18 27 14 28 31
  19956768.621   -17307214.59049 -13470879.55749  19956770.4374   19956776.8704
  19607457.480    -7508125.73149  -5831125.55949  19607458.7814   19607464.3794
  22690353.613     4331109.58249   3373474.14449  22690348.8364   22690356.4244
  19045389.357   -15656265.86649 -12180529.19649  19045390.3084   19045396.0144
  22608371.759    -9252080.09049  -7177074.95249  22608366.5894   22608374.1784
  23007598.567     7514890.33249   5847025.61549  23007600.4834   23007607.6474
  22213558.893   -16846949.486 9 -13113090.423 9  22213559.991    22213565.644
  22278826.570   -13478451.08249 -10473151.15749  22278825.9264   22278834.2234
 95  3 22 17 24 59.9960000  0  8 19 29 22 18 27 14 28 31
  19938537.841   -17403021.98149 -13545534.65949  19938538.9324   19938545.0744
  19603309.903    -7529924.57049  -5848111.69949  19603310.6414   19603316.0014
  22698899.936     4376075.46049   3408512.44049  22698905.6044   22698912.6914
  19031125.706   -15731224.21849 -12238938.31849  19031126.2924   19031131.8444
  22582658.180    -9387181.31949  -7282348.64549  22582657.7344   22582664.8684
  23018080.582     7569985.89149   5889957.09249  23018084.2824   23018092.0134
  22195921.709   -16939632.589 9 -13185311.000 9  22195922.529    22195928.476
  22251738.128   -13620807.42849 -10584078.10349  22251737.1674   22251743.9804
 95  3 22 17 25 29.9960000  0  8 19 29 22 18 27 14 28 31
  19920338.674   -17498660.44249 -13620058.13649  19920339.5914   19920345.8614
  19599230.026    -7551358.05449  -5864813.14349  19599231.8564   19599237.6544
  22707482.427     4421146.14649   3443632.39649  22707482.2364   22707489.8274
  19016933.851   -15805800.19649 -12297049.48149  19016934.6164   19016940.3364
  22556958.822    -9522226.64949  -7387578.74249  22556959.1474   22556966.6864
  23028561.251     7625045.35449   5932860.41949  23028561.7344   23028569.6954
  22178361.084   -17031890.119 9 -13257199.958 9  22178366.384    22178373.140
  22224676.423   -13763020.35649 -10694893.30949  22224674.9944   22224681.1594
 95  3 22 17 25 59.9960000  0  8 19 29 22 18 27 14 28 31
  19902172.962   -17594122.80649 -13694444.38949  19902173.9184   19902179.9434
  19595221.703    -7572422.70749  -5881227.18149  19595223.3764   19595229.2324
  22716084.894     4466330.26249   3478840.72649  22716080.8404   22716087.9484
  19002818.231   -15879980.00949 -12354851.94049  19002818.5544   19002824.3584
  22531268.328    -9657213.50549  -7492763.29049  22531272.2214   22531279.6484
  23039028.486     7680056.08049   5975725.79449  23039030.0234   23039038.1894
  22160895.844   -17123717.137 9 -13328753.459 9  22160892.369    22160899.816
  22197641.009   -13905070.59449 -10805581.74449  22197642.1204   22197648.8724
 95  3 22 17 26 29.9960000  0  8 19 29 22 18 27 14 28 31
  19884038.680   -17689414.56449 -13768697.70449  19884040.2064   19884046.5614
  19591279.121    -7593140.42249  -5897370.88049  19591280.9464   19591286.1024
  22724692.955     4511625.62849   3514135.76249  22724700.6924   22724707.3904
  18988780.781   -15953748.39449 -12412333.80049  18988780.9944   18988786.6354
  22505594.067    -9792143.34449  -7597903.40449  22505595.8824   22505603.5994
  23049484.836     7735003.94649   6018542.17749  23049486.2474   23049493.3814
  22143499.318   -17215108.604 9 -13399967.577 9  22143501.401    22143508.412
  22170639.830   -14046950.82349 -10916137.70949  22170641.7154   22170649.3024
 95  3 22 17 26 59.9960000  0  8 19 29 22 18 27 14 28 31
  19865935.499   -17784551.94249 -13842830.71549  19865936.1884   19865942.4924
  19587402.213    -7613514.78249  -5913247.03349  19587403.7114   19587409.0194
  22733347.913     4557024.58649   3549511.51549  22733339.6604   22733346.5764
  18974817.619   -16027123.40149 -12469509.14349  18974818.3124   18974824.1014
  22479930.820    -9927018.53049  -7703000.91349  22479929.9024   22479937.9374
  23059929.037     7789903.62749   6061321.01449  23059932.6544   23059941.0254
  22126192.908   -17306066.656 9 -13470843.959 9  22126193.158    22126199.087
  22143668.019   -14188665.56649 -11026564.72349  22143673.6124   22143681.9894
 95  3 22 17 27 29.9960000  0  8 19 29 22 18 27 14 28 31
  19847856.870   -17879552.30149 -13916856.96649  19847858.0204   19847864.3554
  19583594.335    -7633532.14249  -5928845.00749  19583594.5444   19583600.0884
  22741992.169     4602519.02449   3584961.66049  22741997.5004   22742004.1014
  18960931.230   -16100096.36949 -12526371.20849  18960931.7274   18960937.8624
  22454274.041   -10061849.12249  -7808063.68049  22454272.9554   22454280.2994
  23070374.617     7844783.32649   6104084.27549  23070376.6814   23070385.2164
  22108966.196   -17396591.030 9 -13541382.410 9  22108966.316    22108972.483
  22116739.205   -14330198.39549 -11136849.97349  22116741.1694   22116748.7914
 95  3 22 17 27 59.9960000  0  8 19 29 22 18 27 14 28 31
  19829805.145   -17974415.60249 -13990776.41049  19829806.1704   19829812.7264
  19579855.203    -7653179.49849  -5944154.65449  19579856.1264   19579862.0204
  22750668.873     4648104.29449   3620482.59049  22750671.8024   22750678.4944
  18947121.327   -16172668.47949 -12582920.90549  18947121.8894   18947128.0254
  22428623.553   -10196641.50249  -7913096.66649  22428622.5314   22428630.1914
  23080817.305     7899657.06349   6146842.87849  23080818.1134   23080827.1284
  22091820.648   -17486682.516 9 -13611583.546 9  22091822.298    22091828.812
  22089843.686   -14471547.53549 -11246992.10549  22089843.6474   22089850.7874
 95  3 22 17 28 29.9960000  0  8 19 29 22 18 27 14 28 31
  19811779.058   -18069140.85049 -14064588.29349  19811780.6154   19811787.1184
  19576187.363    -7672453.20149  -5959173.15149  19576188.6404   19576194.2534
  22759366.660     4693771.13549   3656067.08449  22759361.3954   22759369.2374
  18933388.603   -16244839.60949 -12639158.16249  18933388.6394   18933394.0914
  22402978.546   -10331395.81549  -8018099.97349  22402978.8314   22402987.8294
  23091262.748     7954535.50649   6189605.16549  23091261.9334   23091269.3614
  22074764.311   -17576342.535 9 -13681448.483 9  22074760.869    22074767.921
  22062977.768   -14612724.50049 -11357000.08149  22062979.8994   22062986.5704
 95  3 22 17 28 59.9950000  0  8 19 29 22 18 27 14 28 31
  19793785.415   -18163701.69249 -14138272.05849  19793786.3574   19793792.6664
  19572593.047    -7691343.25249  -5973892.70149  19572593.9364   19572599.2394
  22768063.627     4739518.66249   3691714.45849  22768067.5964   22768074.5424
  18919733.428   -16316593.89349 -12695070.61649  18919733.8634   18919739.5664
  22377346.702   -10466098.95649  -8123063.42249  22377346.8794   22377354.2874
  23101706.017     8009424.42949   6232375.59649  23101707.8634   23101716.0674
  22057787.835   -17665559.140 9 -13750967.909 9  22057783.831    22057790.635
  22036150.413   -14753714.01149 -11466861.99849  22036150.4744   22036157.4194
 95  3 22 17 29 29.9950000  0  8 19 29 22 18 27 14 28 31
  19775824.130   -18258085.19149 -14211817.63349  19775825.6284   19775832.1474
  19569069.191    -7709858.35949  -5988320.08649  19569070.4154   19569075.5074
  22776789.188     4785339.50549   3727418.96749  22776786.5424   22776794.0884
  18906159.922   -16387920.26849 -12750649.61849  18906160.6464   18906166.8634
  22351720.403   -10600768.36549  -8228000.57349  22351719.9114   22351727.5054
  23112143.435     8064284.55049   6275123.60649  23112146.7234   23112156.3204
  22040886.493   -17754339.997 9 -13820147.790 9  22040889.146    22040895.994
  22009356.330   -14894520.94449 -11576581.64849  22009356.3794   22009362.8074
 95  3 22 17 29 59.9950000  0  8 19 29 22 18 27 14 28 31
  19757900.134   -18352274.47449 -14285211.87249  19757902.0504   19757908.2974
  19565616.377    -7728006.19849  -6002461.29449  19565617.3034   19565622.3844
  22785523.730     4831247.82749   3763191.64649  22785522.8304   22785529.8434
  18892667.008   -16458827.17249 -12805901.75649  18892668.0534   18892673.8704
  22326097.616   -10735401.09849  -8332909.15649  22326099.7424   22326106.8634
  23122575.433     8119078.64049   6317820.14349  23122573.7574   23122583.3524
  22024075.156   -17842677.130 9 -13888981.911 9  22024079.234    22024085.135
  21982594.713   -15035147.03549 -11686160.38749  21982595.3484   21982602.1714
 95  3 22 17 30 29.9950000  0  8 19 29 22 18 27 14 28 31
  19740017.625   -18446257.50149 -14358445.39049  19740017.7884   19740024.1264
  19562231.868    -7745789.64149  -6016318.55149  19562233.3754   19562238.7124
  22794273.711     4877247.00449   3799035.10149  22794276.0114   22794283.7244
  18879254.424   -16529314.36449 -12860826.85749  18879254.8784   18879260.4714
  22300488.192   -10869987.63349  -8437781.73749  22300488.6394   22300496.4284
  23132983.051     8173791.83449   6360453.65649  23132985.3644   23132995.6864
  22007351.565   -17930564.866 9 -13957465.846 9  22007354.227    22007360.435
  21955870.875   -15175581.29149 -11795589.63449  21955870.4634   21955877.8214
 95  3 22 17 30 59.9950000  0  8 19 29 22 18 27 14 28 31
  19722172.587   -18540025.64849 -14431511.46949  19722174.6284   19722180.6464
  19558920.216    -7763195.93149  -6029881.91749  19558920.7504   19558926.7144
  22803057.770     4923349.58749   3834959.12449  22803048.8784   22803057.0804
  18865920.204   -16599383.20449 -12915425.96649  18865920.8694   18865926.7724
  22274886.271   -11004518.61349  -8542611.02349  22274888.6174   22274896.1474
  23143379.960     8228421.29949   6403021.91249  23143381.1074   23143391.1784
  21990715.111   -18017994.958 9 -14025593.182 9  21990717.667    21990723.665
  21929186.521   -15315808.32649 -11904857.42349  21929186.8814   21929194.0184
 95  3 22 17 31 29.9950000  0  8 19 29 22 18 27 14 28 31
  19704369.740   -18633580.45149 -14504411.30949  19704371.3694   19704377.8784
  19555682.433    -7780206.23949  -6043136.73049  19555683.6954   19555689.5284
  22811848.272     4969580.54849   3870983.14149  22811846.3594   22811854.3964
  18852667.217   -16669029.30049 -12969695.66149  18852667.5894   18852673.6834
  22249299.363   -11138978.62949  -8647385.01049  22249301.4624   22249309.0144
  23153762.445     8282983.74149   6445537.94749  23153764.5834   23153774.1444
  21974169.642   -18104956.161 9 -14093355.149 9  21974169.508    21974175.805
  21902542.500   -15455810.85649 -12013950.26449  21902545.1564   21902552.4004
 95  3 22 17 31 59.9950000  0  8 19 29 22 18 27 14 28 31
  19686606.773   -18726929.37349 -14577150.72249  19686607.7754   19686614.1954
  19552521.380    -7796819.34849  -6056082.04749  19552522.7124   19552527.8144
  22820674.246     5015945.47049   3907111.58049  22820669.4204   22820677.2704
  18839493.501   -16738258.25749 -13023640.31249  18839494.1934   18839500.1104
  22223728.286   -11273362.39049  -8752099.59149  22223729.2764   22223736.4134
  23164137.959     8337503.66349   6488020.82649  23164139.8804   23164148.9814
  21957708.871   -18191446.562 9 -14160750.254 9  21957710.520    21957717.187
  21875945.415   -15595594.96649 -12122872.89949  21875945.2204   21875952.8014
 95  3 22 17 32 29.9950000  0  8 19 29 22 18 27 14 28 31
  19668881.270   -18820074.98549 -14649731.71149  19668882.5554   19668888.7224
  19549438.264    -7813027.62949  -6068711.91149  19549438.2974   19549443.6814
  22829512.990     5062421.99849   3943326.97049  22829513.8584   22829521.4094
  18826400.800   -16807060.25649 -13077252.27349  18826401.1464   18826407.0744
  22198173.069   -11407660.54149  -8856747.45949  22198172.2354   22198179.7674
  23174510.517     8391997.65749   6530483.51649  23174508.8594   23174519.1994
  21941340.728   -18277467.246 9 -14227779.357 9  21941341.205    21941347.990
  21849387.418   -15735159.68149 -12231624.57649  21849387.1044   21849394.9724
 95  3 22 17 32 59.9950000  0  8 19 29 22 18 27 14 28 31
  19651193.699   -18913023.20949 -14722158.88949  19651195.2864   19651201.2304
  19546429.338    -7828830.58749  -6081025.93049  19546430.8584   19546436.5754
  22838385.115     5109016.54349   3979634.31449  22838380.4854   22838387.9164
  18813391.405   -16875423.37649 -13130522.25049  18813392.0604   18813397.8234
  22172632.122   -11541877.58249  -8961332.10449  22172632.2794   22172638.8844
  23184871.739     8446469.69849   6572929.07949  23184874.8514   23184884.7084
  21925060.240   -18363015.135 9 -14294440.053 9  21925062.101    21925067.991
  21822869.121   -15874502.59149 -12340203.42649  21822871.0474   21822878.6934
 95  3 22 17 33 29.9950000  0  8 19 29 22 18 27 14 28 31
  19633538.955   -19005795.71449 -14794449.14949  19633540.8514   19633547.1204
  19543497.701    -7844241.74649  -6093034.64749  19543498.3284   19543504.5434
  22847264.065     5155701.99049   4016012.55149  22847264.3614   22847271.1144
  18800465.747   -16943350.12249 -13183452.18949  18800466.3094   18800472.2064
  22147103.647   -11676031.84949  -9065867.85149  22147103.4984   22147110.5444
  23195231.282     8500912.07649   6615351.53749  23195234.7824   23195244.4274
  21908878.055   -18448093.377 9 -14360734.779 9  21908872.964    21908878.507
  21796390.837   -16013643.32749 -12448624.74249  21796393.1414   21796401.1794
 95  3 22 17 33 59.9950000  0  8 19 29 22 18 27 14 28 31
  19615919.792   -19098387.34849 -14866598.46349  19615921.6304   19615927.9044
  19540640.680    -7859255.42749  -6104733.64549  19540641.5814   19540647.1684
  22856153.145     5202454.44149   4052443.06349  22856161.8104   22856166.1284
  18787623.021   -17010836.57349 -13236039.04549  18787624.2004   18787630.2594
  22121583.935   -11810137.86049  -9170366.00349  22121584.0504   22121591.2194
  23205586.157     8555313.61749   6657742.15949  23205587.1154   23205597.5464
  21892767.731   -18532701.846 9 -14426663.442 9  21892771.880    21892778.293
  21769952.467   -16152588.78049 -12556893.89849  21769952.2454   21769960.2754
 95  3 22 17 34 29.9950000  0  8 19 29 22 18 27 14 28 31
  19598333.575   -19190809.13049 -14938615.43049  19598334.2264   19598340.4454
  19537859.527    -7873867.09449  -6116119.39749  19537861.1414   19537866.0934
  22865062.476     5249271.92949   4088924.23749  22865069.7754   22865078.6074
  18774865.484   -17077878.67049 -13288279.65449  18774866.4184   18774872.5114
  22096072.054   -11944198.58249  -9274828.87249  22096072.6614   22096079.8614
  23215927.663     8609667.35549   6700095.54449  23215930.3894   23215939.9434
  21876764.773   -18616836.453 9 -14492222.877 9  21876761.607    21876768.382
  21743551.699   -16291315.82349 -12664992.86449  21743553.2694   21743561.0664
 95  3 22 17 34 59.9950000  0  8 19 29 22 18 27 14 28 31
  19580778.254   -19283060.61049 -15010499.69749  19580779.1544   19580785.6734
  19535155.004    -7888082.41249  -6127196.30349  19535155.6804   19535161.3784
  22873990.894     5296158.94749   4125459.51349  22873992.5634   22874000.3974
  18762193.861   -17144474.87249 -13340172.80549  18762193.6794   18762199.4754
  22070563.931   -12078219.84449  -9379260.97649  22070569.0904   22070576.4484
  23226259.396     8663968.95149   6742408.30149  23226264.0944   23226273.6004
  21860839.866   -18700490.997 9 -14557408.227 9  21860842.452    21860849.596
  21717200.224   -16429812.62949 -12772912.41249  21717199.0784   21717205.5904
 95  3 22 17 35 29.9950000  0  8 19 29 22 18 27 14 28 31
  19563256.782   -19375134.37249 -15082245.48649  19563258.0874   19563264.2384
  19532527.318    -7901890.07849  -6137955.55249  19532528.3834   19532533.9314
  22882917.186     5343104.32049   4162040.20049  22882924.8734   22882934.4904
  18749604.766   -17210625.80349 -13391719.00449  18749605.6634   18749611.0334
  22045074.802   -12212193.68149  -9483656.12049  22045075.1514   22045081.9004
  23236585.829     8718212.31649   6784675.65649  23236585.9914   23236595.7504
  21845013.431   -18783661.530 9 -14622216.430 9  21845015.383    21845022.220
  21690888.050   -16568076.02849 -12880650.08949  21690888.4374   21690894.4974
 95  3 22 17 35 59.9950000  0  8 19 29 22 18 27 14 28 31
  19545770.438   -19467025.47349 -15153848.94049  19545772.0604   19545778.0594
  19529974.799    -7915303.66749  -6148407.72849  19529975.9514   19529981.8074
  22891859.112     5390100.44249   4198660.45749  22891869.2184   22891877.0464
  18737099.508   -17276344.89849 -13442928.70149  18737099.6304   18737105.3474
  22019589.294   -12346113.53749  -9588009.21249  22019590.6434   22019598.2714
  23246890.329     8772383.70749   6826886.93449  23246895.0204   23246904.8004
  21829282.375   -18866361.519 9 -14686657.966 9  21829278.519    21829284.600
  21664622.918   -16706094.69949 -12988197.06849  21664623.9344   21664630.2484
 95  3 22 17 36 29.9950000  0  8 19 29 22 18 27 14 28 31
  19528316.879   -19558741.43149 -15225315.90949  19528318.9134   19528325.2594
  19527494.250    -7928340.17449  -6158566.07749  19527495.1464   19527500.7294
  22900823.470     5437153.38849   4235325.00249  22900823.2954   22900830.9204
  18724674.535   -17341635.09849 -13493804.18949  18724675.1744   18724681.2684
  21994118.084   -12479966.25949  -9692309.98149  21994119.3634   21994127.3734
  23257193.470     8826485.25249   6869043.76849  23257190.2164   23257199.8184
  21813631.229   -18948591.549 9 -14750733.296 9  21813630.595    21813636.662
  21638402.948   -16843870.34049 -13095554.66549  21638405.3274   21638413.1044
 95  3 22 17 36 59.9950000  0  7 19 29 22 18 27 28 31
  19510900.839   -19650267.17749 -15296634.66649  19510902.1704   19510908.3294
  19525083.153    -7941009.06549  -6168437.97349  19525084.2554   19525089.7314
  22909788.634     5484253.27049   4272026.14049  22909786.6274   22909793.9494
  18712332.854   -17406491.83249 -13544341.90549  18712333.4404   18712339.5634
  21968661.164   -12613752.58849  -9796559.02149  21968660.8534   21968668.5104
  21798074.243   -19030353.016 9 -14814443.513 9  21798071.530    21798078.205
  21612228.296   -16981413.94349 -13202731.46649  21612231.6954   21612239.9374
 95  3 22 17 37 29.9950000  0  7 19 29 22 18 27 28 31
  19493519.974   -19741605.75749 -15367807.58249  19493521.0424   19493527.4504
  19522743.280    -7953301.10549  -6178016.22449  19522745.3624   19522750.5964
  22918759.313     5531401.10049   4308764.63849  22918758.2254   22918766.0714
  18700076.287   -17470904.20949 -13594533.37849  18700076.0764   18700081.8994
  21943216.591   -12747465.83349  -9900751.11649  21943215.8334   21943223.5104
  21782601.386   -19111640.848 9 -14877784.674 9  21782603.068    21782609.694
  21586103.649   -17118714.43349 -13309718.84249  21586104.3904   21586112.5284
 95  3 22 17 37 59.9950000  0  7 19 29 22 18 27 28 31
  19476173.087   -19832760.47649 -15438837.22749  19476174.9214   19476181.0144
  19520473.158    -7965233.38949  -6187314.13649  19520474.8044   19520480.4844
  22927742.242     5578598.93849   4345542.12049  22927739.7654   22927747.6044
  18687903.749   -17534869.28949 -13644376.30749  18687904.0184   18687909.8124
  21917784.397   -12881108.28249 -10004888.05049  21917784.8394   21917792.4264
  21767222.935   -19192455.308 9 -14940756.966 9  21767224.685    21767231.270
  21560026.782   -17255758.89649 -13416506.70349  21560025.7824   21560034.1534
 95  3 22 17 38 29.9950000  0  7 19 29 22 18 27 28 31
  19458861.355   -19923738.76049 -15509729.39549  19458862.2964   19458868.5734
  19518270.419    -7976814.22749  -6196338.19449  19518270.9504   19518277.2744
  22936735.271     5625852.13449   4382362.73649  22936731.8974   22936739.3084
  18675817.376   -17598385.18149 -13693869.21749  18675817.3294   18675823.3924
  21892362.413   -13014696.45249 -10108982.69349  21892363.3544   21892371.6144
  21751935.082   -19272796.067 9 -15003360.146 9  21751936.427    21751942.673
  21533994.771   -17392551.80649 -13523098.56149  21533996.1114   21534002.7504
 95  3 22 17 38 59.9950000  0  7 19 29 22 18 27 28 31
  19441583.951   -20014535.09949 -15580479.78249  19441584.3294   19441590.7894
  19516135.335    -7988034.98849  -6205081.67149  19516135.7594   19516141.5614
  22945734.398     5673165.37149   4419230.12949  22945735.4794   22945743.0324
  18663815.655   -17661453.68149 -13743013.50149  18663816.1374   18663821.9554
  21866952.654   -13148232.19849 -10213036.47749  21866952.9864   21866960.2674
  21736736.593   -19352658.290 9 -15065590.424 9  21736739.531    21736745.165
  21508019.678   -17529069.17049 -13629475.69349  21508018.1514   21508024.1354
 95  3 22 17 39 29.9950000  0  7 19 29 22 18 27 28 31
  19424340.977   -20105144.11249 -15651084.20549  19424342.0914   19424348.4724
  19514069.342    -7998886.44949  -6213537.38849  19514070.9014   19514075.9454
  22954753.662     5720553.15749   4456155.62649  22954752.8484   22954760.8084
  18651897.419   -17724086.31249 -13791818.15549  18651897.5614   18651902.9724
  21841550.904   -13281708.68249 -10317044.08549  21841552.8694   21841560.5324
  21721634.583   -19432034.148 9 -15127441.717 9  21721634.699    21721640.699
  21482093.704   -17665299.31049 -13735629.00949  21482093.7924   21482099.7534
 95  3 22 17 39 59.9950000  0  7 19 29 22 18 27 28 31
  19407138.479   -20195542.65449 -15721524.62049  19407139.9104   19407146.1334
  19512074.953    -8009369.46149  -6221705.99849  19512076.1064   19512081.1474
  22963787.119     5768032.16849   4493152.20149  22963787.9344   22963795.4984
  18640059.127   -17786293.55549 -13840291.34149  18640059.6574   18640065.2144
  21816165.969   -13415120.23449 -10421001.09449  21816165.9674   21816172.9604
  21706621.758   -19510911.775 9 -15188904.789 9  21706624.845    21706630.905
  21456223.047   -17801237.61549 -13841554.92549  21456224.9024   21456230.8974
 95  3 22 17 40 29.9950000  0  7 19 29 22 18 27 28 31
  19389980.101   -20285718.07749 -15791791.17549  19389979.9314   19389985.4064
  19510152.477    -8019467.65649  -6229574.74949  19510154.2164   19510159.6294
  22972843.694     5815605.87049   4530222.54049  22972840.8984   22972848.3504
  18628301.936   -17848074.05249 -13888431.99749  18628303.0724   18628308.3774
  21790789.182   -13548468.24549 -10524908.59149  21790790.1314   21790796.7644
  21691711.994   -19589279.728 9 -15249970.720 9  21691711.786    21691717.707
  21430409.461   -17936889.00349 -13947257.27949  21430411.3704   21430417.7024
 95  3 22 17 40 59.9950000  0  7 19 29 22 18 27 28 31
  19372861.246   -20375670.56349 -15861884.02449  19372862.6714   19372868.4824
  19508307.316    -8029169.70949  -6237134.82249  19508308.1094   19508313.9734
  22981906.327     5863259.62749   4567355.26249  22981908.7314   22981916.9084
  18616628.310   -17909421.53849 -13936235.24249  18616629.2684   18616634.7534
  21765424.620   -13681753.32949 -10628767.05549  21765427.0034   21765433.8334
  21676899.821   -19667133.166 9 -15310635.720 9  21676896.885    21676902.794
  21404649.313   -18072260.84549 -14052741.79449  21404650.6914   21404657.5834
 95  3 22 17 41 29.9950000  0  7 19 29 22 18 27 28 31
  19355788.299   -20465391.92949 -15931796.77249  19355789.4004   19355795.2714
  19506539.418    -8038461.77649  -6244375.42249  19506540.1304   19506545.4394
  22990989.393     5910983.66049   4604542.75449  22990990.7734   22990997.7914
  18605039.266   -17970324.93449 -13983692.44449  18605039.7564   18605045.2814
  21740074.416   -13814971.62749 -10732573.49349  21740076.2544   21740083.8524
  21662179.929   -19744465.532 9 -15370894.694 9  21662180.580    21662186.858
  21378942.589   -18207370.16149 -14158021.75049  21378941.0904   21378947.6774
 95  3 22 17 41 59.9950000  0  7 19 29 22 18 27 28 31
  19338757.446   -20554888.19749 -16001534.12549  19338758.8714   19338765.0504
  19504852.701    -8047325.74449  -6251282.44549  19504853.5434   19504858.3714
  23000080.220     5958765.43049   4641775.21049  23000083.1634   23000090.8384
  18593539.488   -18030754.53649 -14030780.45349  18593540.2764   18593545.9984
  21714739.623   -13948111.87249 -10836319.10649  21714740.0694   21714747.9554
  21647567.759   -19821270.180 9 -15430742.454 9  21647565.239    21647571.201
  21353281.351   -18342218.47849 -14263098.32749  21353280.9434   21353287.0044
 95  3 22 17 42 29.9950000  0  7 19 29 22 18 27 28 31
  19321765.416   -20644180.63049 -16071112.64149  19321767.0604   19321773.0274
  19503250.104    -8055748.21349  -6257845.44549  19503250.6894   19503255.6264
  23009188.338     6006591.16749   4679041.95049  23009184.6434   23009191.7864
  18582134.983   -18090686.55949 -14077480.73549  18582135.5324   18582141.3264
  21689420.510   -14081169.57749 -10940000.40149  21689420.7064   21689427.7304
  21633051.340   -19897551.992 9 -15490182.800 9  21633049.283    21633055.714
  21327667.839   -18476802.64149 -14367969.06949  21327669.6974   21327676.7014
 95  3 22 17 42 59.9940000  0  7 19 29 22 18 27 28 31
  19304811.548   -20733275.27449 -16140537.04449  19304812.9664   19304818.8744
  19501730.462    -8063725.55349  -6264061.58649  19501732.5874   19501738.1644
  23018289.442     6054465.55549   4716346.60649  23018294.1004   23018302.7354
  18570826.714   -18150111.44249 -14123785.84649  18570827.6664   18570833.3664
  21664117.626   -14214128.13949 -11043604.44949  21664119.7144   21664126.9974
  21618633.878   -19973308.163 9 -15549213.572 9  21618633.330    21618640.125
  21302113.460   -18611091.35449 -14472609.59849  21302114.9364   21302121.8774
 95  3 22 17 43 29.9940000  0  7 19 29 22 18 27 28 31
  19287893.806   -20822179.10749 -16209812.75649  19287895.0484   19287901.1244
  19500295.916    -8071267.03049  -6269938.08249  19500297.6464   19500303.3084
  23027401.927     6102398.76549   4753697.11249  23027415.7634   23027423.1674
  18559613.587   -18209036.89849 -14169701.79549  18559614.3764   18559620.0484
  21638835.397   -14346998.60749 -11147139.85349  21638835.4894   21638842.4734
  21604319.640   -20048550.453 9 -15607843.918 9  21604314.909    21604321.668
  21276616.446   -18745070.44049 -14577008.86049  21276618.7724   21276625.7344
 95  3 22 17 43 59.9940000  0  7 19 29 22 18 27 28 31
  19271011.839   -20910895.45549 -16278942.37949  19271012.9834   19271018.8854
  19498943.245    -8078378.46349  -6275479.48649  19498944.5654   19498949.9764
  23036554.585     6150406.61149   4791105.74149  23036550.3834   23036559.2744
  18548498.970   -18267446.90249 -14215216.08949  18548499.1834   18548504.9304
  21613567.018   -14479772.52149 -11250600.01449  21613568.7884   21613576.5384
  21590094.410   -20123269.693 9 -15666066.696 9  21590096.266    21590102.985
  21251190.822   -18878694.81149 -14681131.71649  21251191.0064   21251197.9464
 95  3 22 17 44 29.9940000  0  7 19 29 22 18 27 28 31
  19254163.810   -20999428.79049 -16347929.38749  19254165.5014   19254171.5394
  19497666.445    -8085088.54849  -6280708.15049  19497667.2184   19497672.6344
  23045701.221     6198484.81449   4828569.16949  23045698.6534   23045708.9634
  18537477.825   -18325364.64949 -14260346.80649  18537477.8604   18537483.4914
  21588316.475   -14612474.28449 -11354003.93149  21588317.0954   21588324.0554
  21575975.115   -20197476.176 9 -15723889.918 9  21575975.568    21575982.133
  21225833.474   -19011952.92449 -14784969.17749  21225833.9874   21225839.9384
 95  3 22 17 44 59.9940000  0  7 19 29 22 18 27 28 31
  19237355.927   -21087758.54649 -16416757.76349  19237356.9464   19237362.9864
  19496463.004    -8091412.18749  -6285635.69049  19496464.1294   19496469.1384
  23054857.016     6246624.89549   4866080.91449  23054860.2694   23054869.2094
  18526548.647   -18382800.18149 -14305101.77949  18526548.3754   18526554.0114
  21563076.742   -14745100.08849 -11457348.68849  21563078.8254   21563085.5954
  21561957.614   -20271162.599 9 -15781307.909 9  21561953.490    21561960.016
  21200545.548   -19144846.82349 -14888522.82449  21200545.1324   21200551.2044
 95  3 22 17 45 29.9940000  0  7 19 29 22 18 27 28 31
  19220587.126   -21175881.35549 -16485424.88449  19220587.8804   19220593.9824
  19495331.495    -8097359.27449  -6290269.81449  19495332.5594   19495337.9364
  23064032.109     6294799.56249   4903619.48749  23064027.8604   23064037.3864
  18515707.190   -18439762.58449 -14349488.07549  18515708.6824   18515714.5634
  21537854.661   -14877649.80549 -11560634.15949  21537855.4184   21537862.5634
  21548030.471   -20344330.659 9 -15838321.974 9  21548030.108    21548036.699
  21175319.026   -19277401.64449 -14991812.26349  21175320.8224   21175326.5584
 95  3 22 17 45 59.9940000  0  7 19 29 22 18 27 28 31
  19203857.285   -21263793.48749 -16553927.83849  19203858.4064   19203864.5444
  19494271.124    -8102931.47349  -6294611.81049  19494272.0454   19494277.9734
  23073201.340     6342990.45749   4941170.78549  23073198.4954   23073206.8644
  18504956.199   -18496258.97049 -14393511.23949  18504957.3954   18504963.4734
  21512645.905   -15010122.16749 -11663859.35049  21512646.4374   21512653.5914
  21534206.466   -20416976.711 9 -15894929.287 9  21534206.149    21534212.241
  21150154.497   -19409646.06649 -15094859.82649  21150154.6634   21150161.9444
 95  3 22 17 46 29.9940000  0  7 19 29 22 18 27 28 31
  19187171.485   -21351479.55949 -16622254.64849  19187172.6284   19187178.4904
  19493281.376    -8108127.75849  -6298660.88949  19493282.9484   19493288.9404
  23082362.107     6391189.58049   4978728.48649  23082370.9864   23082379.8224
  18494292.511   -18552301.21349 -14437180.53449  18494293.0074   18494298.7984
  21487451.093   -15142515.23849 -11767022.72949  21487453.3544   21487459.4214
  21520485.114   -20489100.434 9 -15951129.585 9  21520481.865    21520487.677
  21125041.864   -19541605.64449 -15197685.43549  21125043.4124   21125050.3764
 95  3 22 17 46 59.9940000  0  7 19 29 22 18 27 28 31
  19170528.846   -21438937.79849 -16690403.91949  19170529.8704   19170535.6184
  19492366.865    -8112937.82749  -6302409.02849  19492368.0534   19492373.0524
  23091543.580     6439399.26649   5016294.37749  23091544.8764   23091552.3894
  18483715.420   -18607886.43349 -14480493.70949  18483715.9714   18483721.4434
  21462275.739   -15274811.85949 -11870110.97949  21462277.7964   21462284.3884
  21506857.269   -20560697.278 9 -16006919.336 9  21506857.220    21506863.314
  21099985.613   -19673281.20149 -15300289.72549  21099986.6164   21099993.2574
 95  3 22 17 47 29.9940000  0  7 19 29 22 18 27 28 31
  19153926.855   -21526181.20849 -16758385.78849  19153928.0714   19153933.7214
  19491528.752    -8117342.85649  -6305841.55449  19491529.8664   19491534.6374
  23100724.225     6487643.54149   5053887.26549  23100724.9944   23100734.6164
  18473226.351   -18663006.49849 -14523444.41849  18473226.6694   18473232.3474
  21437118.161   -15407020.68849 -11973130.80349  21437119.1954   21437126.0974
  21493333.292   -20631763.780 9 -16062295.828 9  21493333.606    21493339.492
  21074987.938   -19804652.35049 -15402656.81649  21074987.9644   21074993.3704
 95  3 22 17 47 59.9940000  0  6 19 29 18 27 28 31
  19137363.306   -21613223.17649 -16826210.68849  19137364.4914   19137370.1824
  19490768.287    -8121337.74249  -6308954.48849  19490769.8854   19490774.9324
  18462825.470   -18717662.12349 -14566033.22749  18462826.2444   18462831.6474
  21411973.559   -15539155.99849 -12076093.35349  21411974.4144   21411981.1884
  21479913.114   -20702303.409 9 -16117261.773 9  21479910.400    21479916.441
  21050051.119   -19935701.08949 -15504772.67749  21050050.2454   21050055.4304
 95  3 22 17 48 29.9940000  0  6 19 29 18 27 28 31
  19120835.514   -21700076.02649 -16893888.22949  19120836.7434   19120842.5054
  19490087.271    -8124921.17449  -6311746.80449  19490087.5754   19490093.5104
  18452515.609   -18771839.65249 -14608249.50049  18452516.6454   18452522.1734
  21386844.299   -15671210.07049 -12178992.59549  21386845.7514   21386852.0384
  21466588.772   -20772316.723 9 -16171817.609 9  21466587.239    21466593.089
  21025178.546   -20066401.70749 -15606617.26849  21025178.7374   21025184.4404
 95  3 22 17 48 59.9940000  0  6 19 29 18 27 28 31
  19104341.787   -21786753.41549 -16961429.04249  19104342.5424   19104348.3454
  19489483.238    -8128094.46149  -6314219.51949  19489483.5804   19489489.5624
  18442298.669   -18825533.62049 -14650088.96849  18442298.8524   18442304.4844
  21361729.009   -15803187.79149 -12281832.34449  21361731.0644   21361737.6524
  21453365.120   -20841808.466 9 -16225967.017 9  21453363.431    21453368.726
  21000371.950   -20196745.30949 -15708183.67049  21000374.5884   21000381.0604
 95  3 22 17 49 29.9940000  0  7 19 29  2 18 27 28 31
  19087882.695   -21873246.64649 -17028826.35449  19087883.5154   19087889.0594
  19488957.789    -8130853.90849  -6316369.76349  19488958.8804   19488963.8754
  23284872.938    -1622775.56359  -1226784.02659  23284876.0134   23284886.6904
  18432172.704   -18878741.54649 -14691549.69749  18432173.7384   18432179.2524
  21336628.819   -15935098.82549 -12384620.12649  21336629.6174   21336635.2844
  21440239.850   -20910775.337 9 -16279707.425 9  21440239.111    21440245.379
  20975635.872   -20326731.58249 -15809471.63549  20975638.5054   20975645.8664
 95  3 22 17 49 59.9940000  0  7 19 29  2 18 27 28 31
  19071461.490   -21959539.68649 -17096067.67649  19071462.4004   19071468.3574
  19488510.230    -8133204.56949  -6318201.48549  19488511.5574   19488516.1094
  23255244.531    -1778470.88149  -1348104.84849  23255247.0614   23255258.4674
  18422141.193   -18931458.79749 -14732628.09149  18422142.0414   18422147.5944
  21311543.938   -16066927.35849 -12487343.60649  21311542.5794   21311549.3504
  21427215.652   -20979209.907 9 -16333033.068 9  21427216.279    21427223.101
  20950968.837   -20456364.89349 -15910484.56749  20950970.4234   20950977.6364
 95  3 22 17 50 29.9940000  0  7 19 29  2 18 27 28 31
  19055079.180   -22045626.00549 -17163147.91649  19055080.9194   19055086.4344
  19488140.450    -8135150.27449  -6319717.65149  19488141.1534   19488146.0364
  23225644.933    -1934043.24249  -1469329.86349  23225643.8114   23225654.9134
  18412203.158   -18983681.30049 -14773320.96249  18412204.5864   18412209.9434
  21286473.313   -16198663.99749 -12589995.48649  21286474.2734   21286480.3244
  21414293.872   -21047105.879 9 -16385939.028 9  21414296.208    21414302.675
  20926366.688   -20585647.46149 -16011224.18449  20926368.8654   20926375.9764
 95  3 22 17 50 59.9940000  0  7 19 29  2 18 27 28 31
  19038739.286   -22131495.41649 -17230059.13849  19038740.4104   19038746.0884
  19487848.496    -8136683.73049  -6320912.57649  19487849.1794   19487855.1124
  23196058.386    -2089494.70949  -1590460.65549  23196061.5094   23196072.4264
  18402358.422   -19035421.54749 -14813638.05249  18402358.7874   18402363.9844
  21261421.619   -16330316.71849 -12692581.98349  21261421.7374   21261427.8764
  21401480.857   -21114455.458 9 -16438419.217 9  21401480.420    21401485.999
  20901832.691   -20714584.06749 -16111694.22049  20901833.1614   20901840.0204
 95  3 22 17 51 29.9940000  0  7 19 29  2 18 27 28 31
  19022440.261   -22217142.69649 -17296797.27449  19022442.3234   19022447.6824
  19487632.741    -8137817.17649  -6321795.81249  19487633.8694   19487639.7224
  23166502.205    -2244845.07349  -1711512.66649  23166500.0334   23166510.3414
  18392604.413   -19086682.77849 -14853581.88749  18392604.1534   18392609.2514
  21236383.897   -16461883.45749 -12795101.46749  21236385.4194   21236391.5464
  21388768.748   -21181255.585 9 -16490471.263 9  21388768.348    21388774.655
  20877361.005   -20843174.60249 -16211894.59649  20877362.8034   20877369.7044
 95  3 22 17 51 59.9940000  0  7 19 29  2 18 27 28 31
  19006185.049   -22302570.21449 -17363364.16849  19006186.0694   19006191.6504
  19487490.314    -8138564.80449  -6322378.40849  19487491.8704   19487496.9224
  23136954.962    -2400108.64349  -1832497.08749  23136953.8194   23136964.6254
  18382942.286   -19137450.64849 -14893141.28749  18382943.2784   18382948.5354
  21211365.211   -16593352.74149 -12897545.02049  21211367.4584   21211373.7504
  21376154.768   -21247505.413 9 -16542094.505 9  21376161.448    21376168.309
  20852959.322   -20971412.31049 -16311820.03349  20852959.8264   20852966.3464
 95  3 22 17 52 29.9940000  0  7 19 29  2 18 27 28 31
  18989970.619   -22387775.27049 -17429757.71649  18989972.1114   18989977.7234
  19487419.092    -8138937.10649  -6322668.54949  19487420.8034   19487425.3624
  23107424.620    -2555285.73749  -1953414.13749  23107424.6214   23107434.8784
  18373376.781   -19187720.08049 -14932312.28249  18373377.5244   18373382.9314
  21186365.278   -16724729.29249 -12999916.31049  21186367.2124   21186373.7164
  21363657.979   -21313209.804 9 -16593292.732 9  21363658.789    21363665.140
  20828626.609   -21099288.72049 -16411463.94249  20828626.4714   20828632.6464
 95  3 22 17 52 59.9940000  0  7 19 29  2 18 27 28 31
  18973801.558   -22472743.32949 -17495966.59549  18973803.1074   18973808.7304
  19487418.333    -8138943.67149  -6322673.70349  19487419.4134   19487424.3744
  23077908.778    -2710371.32849  -2074259.92349  23077912.3514   23077922.7064
  18363907.257   -19237482.71949 -14971088.37649  18363907.8324   18363913.2164
  21161384.842   -16856010.80449 -13102213.54249  21161384.9014   21161391.6164
  21351257.631   -21378368.834 9 -16644066.001 9  21351259.330    21351265.330
  20804362.659   -21226791.64449 -16510816.83149  20804363.2444   20804369.5704
 95  3 22 17 53 29.9940000  0  7 19 29  2 18 27 28 31
  18957677.120   -22557478.32449 -17561993.85849  18957678.4234   18957684.1914
  19487487.437    -8138583.51349  -6322393.09449  19487488.0464   19487493.5984
  23048412.766    -2865366.63949  -2195035.35349  23048418.2434   23048428.4494
  18354537.316   -19286724.52349 -15009458.62949  18354537.3214   18354542.5054
  21136422.411   -16987194.17249 -13204434.29949  21136421.8334   21136428.3444
  21338968.302   -21442984.026 9 -16694415.499 9  21338963.450    21338969.249
  20780170.854   -21353909.55649 -16609869.71649  20780173.5954   20780180.4784
 95  3 22 17 53 59.9940000  0  7 19 29  2 18 27 28 31
  18941593.423   -22641997.25749 -17627852.76649  18941595.0084   18941600.9134
  19487628.916    -8137837.90749  -6321812.13049  19487630.1944   19487636.0514
  23018944.851    -3020248.09049  -2315722.08549  23018945.5464   23018955.3234
  18345266.309   -19335445.33749 -15047422.91749  18345266.3494   18345271.5534
  21111476.962   -17118278.98849 -13306578.27249  21111477.1074   21111483.2254
  21326768.881   -21507056.517 9 -16744342.114 9  21326770.538    21326776.481
  20756060.395   -21480631.48349 -16708614.03749  20756058.7944   20756065.9444
 95  3 22 17 54 29.9940000  0  7 19 29  2 18 27 28 31
  18925550.131   -22726306.78849 -17693548.50449  18925551.5704   18925557.3514
  19487847.721    -8136688.26549  -6320916.33549  19487848.6834   19487854.6794
  22989498.023    -3174995.37849  -2436304.29649  22989497.9574   22989507.5554
  18336090.047   -19383662.13049 -15084994.46249  18336091.0164   18336096.4204
  21086550.699   -17249266.32149 -13408646.28049  21086551.3554   21086557.6584
  21314683.076   -21570583.554 9 -16793843.701 9  21314681.879    21314687.833
  20732017.790   -21606956.22349 -16807048.86949  20732019.8654   20732027.2464
 95  3 22 17 54 59.9940000  0  7 19 29  2 18 27 28 31
  18909543.594   -22810418.15749 -17759089.83449  18909545.5024   18909551.5944
  19488146.881    -8135120.57549  -6319694.79349  19488147.2114   19488152.4394
  22960074.741    -3329605.67249  -2556779.74049  22960076.2984   22960086.0154
  18327007.266   -19431395.32549 -15122189.17849  18327007.4884   18327013.0564
  21061641.335   -17380158.36249 -13510640.04449  21061643.1274   21061649.8064
  21302697.604   -21633561.191 9 -16842917.190 9  21302698.019    21302704.201
  20708054.333   -21732888.55149 -16905177.91749  20708055.9164   20708062.8014
 95  3 22 17 55 29.9940000  0  7 19 29  2 18 27 28 31
  18893572.498   -22894347.96449 -17824489.68449  18893574.4184   18893580.1444
  19488525.826    -8133127.33549  -6318141.67049  19488526.3914   19488531.1274
  22930678.428    -3484082.37349  -2677151.10949  22930679.9964   22930689.1014
  18318013.994   -19478654.96149 -15159014.87749  18318014.4364   18318019.7404
  21036752.155   -17510949.73349 -13612555.37449  21036753.9104   21036761.1184
  21290820.310   -21695986.109 9 -16891559.989 9  21290818.748    21290825.095
  20684167.486   -21858426.53849 -17002999.68649  20684167.1394   20684173.9464
 95  3 22 17 55 59.9930000  0  7 19 29  2 18 27 28 31
  18877636.723   -22978093.31249 -17889745.79949  18877638.2344   18877644.0304
  19488981.834    -8130731.17049  -6316274.57249  19488982.5754   19488987.4434
  22901308.251    -3638422.40149  -2797415.99249  22901310.0064   22901319.6364
  18309108.323   -19525457.70049 -15195484.56249  18309108.2584   18309113.3304
  21011883.682   -17641633.57349 -13714386.91249  21011886.2054   21011892.5964
  21279039.054   -21757861.577 9 -16939774.642 9  21279043.624    21279049.849
  20660350.920   -21983573.04149 -17100516.41649  20660352.5604   20660358.8694
 95  3 22 17 56 29.9930000  0  7 19 29  2 18 27 28 31
  18861735.552   -23061653.86349 -17954857.91849  18861737.0444   18861742.8774
  19489509.825    -8127951.59549  -6314108.71149  19489511.3214   19489517.3454
  22871957.073    -3792667.63049  -2917606.99249  22871958.3184   22871968.1984
  18300285.033   -19571821.61349 -15231612.30649  18300285.3184   18300290.8704
  20987033.016   -17772234.64149 -13816153.95649  20987033.9434   20987040.1064
  21267371.693   -21819200.149 9 -16987570.938 9  21267371.975    21267377.754
  20636606.316   -22108354.08449 -17197748.36749  20636607.3774   20636613.6914
 95  3 22 17 56 59.9930000  0  7 19 29  2 18 27 28 31
  18845869.408   -23145029.99149 -18019826.32649  18845871.3074   18845876.9364
  19490110.173    -8124802.30449  -6311654.75049  19490110.7334   19490117.0114
  22842622.125    -3946824.22649  -3037728.92249  22842623.4214   22842632.3714
  18291549.011   -19617733.80749 -15267388.04949  18291548.6664   18291554.4334
  20962192.276   -17902764.96749 -13917865.88349  20962194.2824   20962200.7984
  21255802.174   -21880002.825 9 -17034949.655 9  21255801.650    21255807.616
  20612933.278   -22232762.90449 -17294690.27049  20612932.9634   20612939.3844
 95  3 22 17 57 29.9930000  0  7 19 29  2 18 27 28 31
  18830040.751   -23228212.48249 -18084643.85049  18830042.1984   18830047.8714
  19490780.173    -8121281.29349  -6308911.13949  19490781.0224   19490786.7244
  22813307.404    -4100874.77249  -3157768.15749  22813307.9934   22813318.6154
  18282903.307   -19663161.83349 -15302786.52949  18282903.9244   18282909.3224
  20937368.914   -18033216.60949 -14019516.48849  20937369.7334   20937376.5014
  21244330.987   -21940266.474 9 -17081908.356 9  21244333.708    21244340.163
  20589331.338   -22356785.91949 -17391331.54349  20589332.3814   20589338.3724
 95  3 22 17 57 59.9930000  0  7 19 29  2 18 27 28 31
  18814250.781   -23311189.24549 -18149301.06249  18814252.1024   18814257.9864
  19491521.171    -8117384.17349  -6305874.46149  19491522.6614   19491527.8004
  22784012.367    -4254820.10149  -3277725.47049  22784013.8774   22784022.4384
  18274352.109   -19708097.46849 -15337801.32349  18274352.9104   18274358.1904
  20912558.733   -18163600.99149 -14121114.66749  20912558.7234   20912565.1234
  21232966.227   -21999992.916 9 -17128448.453 9  21232968.074    21232974.448
  20565803.792   -22480426.85949 -17487675.09949  20565804.2464   20565810.3644
 95  3 22 17 58 29.9930000  0  7 19 29  2 18 27 28 31
  18798501.421   -23393952.75249 -18213792.10449  18798502.7154   18798508.4914
  19492336.037    -8113100.83849  -6302536.84449  19492337.5944   19492342.1594
  22754733.493    -4408660.22149  -3397600.82249  22754739.0524   22754748.9544
  18265898.861   -19752522.90549 -15372418.56749  18265899.0974   18265904.4854
  20887757.949   -18293928.95649 -14222668.88649  20887757.9794   20887764.5404
  21221703.735   -22059181.649 9 -17174569.554 9  21221704.908    21221711.077
  20542348.547   -22603680.83749 -17583717.12949  20542349.3934   20542356.2254
 95  3 22 17 58 59.9930000  0  7 19 29  2 18 27 28 31
  18782793.623   -23476501.01849 -18278115.42049  18782794.3774   18782800.3134
  19493222.834    -8108440.15449  -6298905.18549  19493224.3824   19493229.4364
  22725483.145    -4562375.86049  -3517379.10349  22725485.8504   22725496.9404
  18257545.239   -19796424.12449 -15406627.32249  18257545.2064   18257550.7424
  20862967.981   -18424192.53549 -14324172.93949  20862970.1334   20862976.2964
  21210547.180   -22117831.658 9 -17220270.863 9  21210544.203    21210550.385
  20518969.665   -22726533.21249 -17679446.22349  20518971.2124   20518977.9614
 95  3 22 17 59 29.9930000  0  7 19 29  2 18 27 28 31
  18767126.351   -23558828.98349 -18342267.08449  18767127.6224   18767133.5664
  19494183.096    -8103399.49949  -6294977.44149  19494183.9624   19494189.5914
  22696254.419    -4715977.77749  -3637068.75149  22696257.9554   22696266.9954
  18249288.347   -19839808.68149 -15440433.48449  18249289.1504   18249294.6984
  20838195.420   -18554376.63049 -14425615.06249  20838196.3974   20838203.0184
  21199491.177   -22175943.040 9 -17265552.475 9  21199485.889    21199492.470
  20495667.944   -22848983.68149 -17774862.15249  20495669.6134   20495675.5234
 95  3 22 17 59 59.9930000  0  7 19 29  2 18 27 28 31
  18751501.834   -23640939.28449 -18406249.13549  18751502.6454   18751508.7584
  19495212.530    -8097987.79949  -6290760.57449  19495213.6924   19495219.5704
  22667048.150    -4869468.65649  -3756671.95849  22667049.0144   22667056.7554
  18241127.780   -19882694.92949 -15473851.35649  18241128.1774   18241133.2724
  20813436.446   -18684486.17549 -14526999.09449  20813437.4824   20813444.0014
  21188526.353   -22233514.606 9 -17310413.454 9  21188530.626    21188537.058
  20472445.062   -22971034.67149 -17869966.78649  20472444.3564   20472450.0574
 95  3 22 18  0 29.9930000  0  7 19 29  2 18 27 28 31
  18735915.251   -23722845.88549 -18470072.46049  18735916.1274   18735922.1434
  19496312.490    -8092210.91049  -6286259.13949  19496313.3314   19496318.6334
  22637863.544    -5022834.13349  -3876177.43449  22637863.4204   22637874.0314
  18233061.499   -19925084.94049 -15506882.55249  18233062.1184   18233066.8694
  20788691.438   -18814522.38449 -14628325.96649  20788692.4634   20788699.0754
  21177677.952   -22290551.445 9 -17354857.760 9  21177677.051    21177682.579
  20449293.280   -23092685.55849 -17964759.65249  20449295.1304   20449300.9554
 95  3 22 18  0 59.9930000  0  7 19 29  2 18 27 28 31
  18720362.494   -23804574.47949 -18533757.07549  18720363.8564   18720369.9224
  19497480.757    -8086065.92149  -6281470.87649  19497482.1394   19497487.3914
  22608701.359    -5176075.27549  -3995585.96549  22608702.5684   22608713.4734
  18225084.423   -19967004.66849 -15539547.28949  18225084.7954   18225090.3784
  20763961.655   -18944479.61049 -14729591.29149  20763962.3004   20763969.0994
  21166924.106   -22347057.648 9 -17398888.578 9  21166923.940    21166929.925
  20426220.410   -23213937.39049 -18059241.56549  20426221.2324   20426227.6514
 95  3 22 18  1 29.9930000  0  7 19 29  2 18 27 28 31
  18704844.313   -23886127.55249 -18597304.92649  18704844.9304   18704850.6834
  19498721.365    -8079546.80049  -6276391.08849  19498722.6604   19498727.4554
  22579565.625    -5329194.13449  -4114899.24049  22579565.2194   22579574.5424
  18217195.465   -20008461.15649 -15571851.05249  18217195.7574   18217201.5724
  20739247.614   -19074356.88949 -14830794.33349  20739247.7754   20739254.7264
  21156264.735   -22403035.538 9 -17442507.727 9  21156271.868    21156277.871
  20403221.162   -23334788.72749 -18153411.41849  20403224.0884   20403230.6344
 95  3 22 18  1 59.9930000  0  7 19 29  2 18 27 28 31
  18689357.795   -23967507.79249 -18660718.09149  18689358.7704   18689364.5504
  19500031.897    -8072661.26749  -6271025.77649  19500033.0914   19500038.1574
  22550454.814    -5482163.65049  -4234096.14649  22550456.3434   22550465.5974
  18209396.859   -20049443.14949 -15603785.08149  18209397.3004   18209402.6944
  20714547.936   -19204150.62649 -14931932.26649  20714548.4544   20714555.2754
  21145718.947   -22458480.764 9 -17485711.815 9  21145720.471    21145726.830
  20380305.114   -23455230.16249 -18247261.86349  20380305.0414   20380311.5434
 95  3 22 18  2 29.9930000  0  7 19 29  2 18 27 28 31
  18673904.601   -24048717.78149 -18723998.60249  18673905.1634   18673910.8254
  19501412.497    -8065408.26449  -6265374.13449  19501413.6924   19501419.1624
  22521373.361    -5634993.08649  -4353183.91649  22521373.7334   22521383.2574
  18201690.101   -20089945.82549 -15635345.63149  18201690.1124   18201695.0784
  20689865.849   -19333852.32849 -15032998.48749  20689866.9004   20689873.3624
  21135262.795   -22513394.480 9 -17528501.755 9  21135270.659    21135277.518
  20357462.418   -23575259.01149 -18340790.81349  20357464.4004   20357470.5454
 95  3 22 18  2 59.9930000  0  7 19 29  2 18 27 28 31
  18658485.470   -24129741.67949 -18787134.10349  18658486.5804   18658492.5944
  19502860.242    -8057792.86749  -6259440.10449  19502862.4774   19502868.6834
  22492317.376    -5787689.56949  -4472168.07949  22492317.2884   22492326.3094
  18194073.739   -20129965.44349 -15666529.77249  18194074.3584   18194079.7854
  20665205.414   -19463450.50249 -15133984.04849  20665205.6184   20665211.7714
  21124924.382   -22567768.748 9 -17570871.339 9  21124924.123    21124930.164
  20334703.107   -23694872.94449 -18433996.45349  20334702.7894   20334708.5984
 95  3 22 18  3 29.9930000  0  7 19 29  2 18 27 28 31
  18643104.054   -24210570.86549 -18850117.88349  18643105.4244   18643111.1754
  19504377.478    -8049828.19149  -6253233.91149  19504377.9784   19504383.8724
  22463282.872    -5940260.17849  -4591054.17249  22463283.3844   22463292.9584
  18186549.722   -20169503.67949 -15697338.79549  18186550.4794   18186556.2054
  20640560.513   -19592962.70049 -15234902.60449  20640559.9794   20640566.5404
  21114677.368   -22621606.407 9 -17612822.770 9  21114678.859    21114685.122
  20312015.433   -23814086.76249 -18526890.31549  20312016.8854   20312023.0104
 95  3 22 18  3 59.9930000  0  7 19 29  2 18 27 28 31
  18627759.464   -24291204.00149 -18912948.90049  18627761.4684   18627767.4344
  19505960.901    -8041502.47249  -6246746.37749  19505962.3144   19505968.0854
  22434273.156    -6092705.27149  -4709842.43549  22434273.8634   22434283.5324
  18179116.233   -20208567.84049 -15727778.40949  18179117.0334   18179122.4034
  20615927.564   -19722400.70549 -15335763.35049  20615928.5884   20615935.4584
  21104534.504   -22674901.547 9 -17654351.467 9  21104537.310    21104543.631
  20289404.064   -23932909.41049 -18619479.36549  20289405.2784   20289411.8764
 95  3 22 18  4 29.9930000  0  7 19 29  2 18 27 28 31
  18612458.381   -24371617.57349 -18975608.83249  18612459.2084   18612464.9524
  19507619.068    -8032796.16549  -6239962.28649  19507619.4184   19507624.6824
  22405286.889    -6245040.29049  -4828544.93649  22405285.9674   22405294.5864
  18171773.788   -20247155.16949 -15757846.47549  18171773.9234   18171779.1174
  20591311.719   -19851769.40949 -15436570.09249  20591310.9244   20591317.5434
  21094498.072   -22727652.012 9 -17695455.751 9  21094499.280    21094505.685
  20266868.852   -24051337.66249 -18711761.09249  20266869.6054   20266875.8074
 95  3 22 18  4 59.9930000  0  7 19 29  2 18 27 28 31
  18597199.426   -24451803.33249 -19038091.24249  18597200.4204   18597206.2214
  19509345.782    -8023717.40249  -6232887.97549  19509347.5134   19509352.2164
  22376316.307    -6397266.33849  -4947162.53249  22376317.6824   22376327.0344
  18164520.221   -20285272.41349 -15787548.24549  18164520.3824   18164525.6844
  20566702.924   -19981078.54349 -15537330.42249  20566704.0114   20566710.7924
  21084572.834   -22779855.898 9 -17736134.120 9  21084565.473    21084571.591
  20244411.614   -24169362.46549 -18803728.44349  20244410.6174   20244416.8054
 95  3 22 18  5 29.9930000  0  7 19 29  2 18 27 28 31
  18581980.891   -24531775.74249 -19100407.41149  18581982.3164   18581987.8554
  19511147.968    -8014257.50949  -6225516.67949  19511147.9434   19511153.0014
  22347373.095    -6549378.32649  -5065691.24549  22347372.1854   22347381.6584
  18157356.147   -20322917.65649 -15816882.21449  18157356.9094   18157362.2264
  20542105.212   -20110336.52849 -15638050.90349  20542106.9224   20542113.9164
  21074734.014   -22831517.319 9 -17776389.782 9  21074734.503    21074740.904
  20222029.547   -24286972.09549 -18895372.27849  20222029.7434   20222036.1584
 95  3 22 18  5 59.9930000  0  7 19 29  2 18 27 28 31
  18566805.023   -24611526.67549 -19162550.99849  18566806.4154   18566811.8264
  19513016.619    -8004427.04949  -6217856.62249  19513017.9904   19513023.5584
  22318447.843    -6701367.64249  -5184124.33849  22318449.7434   22318458.7084
  18150288.295   -20360059.53849 -15845823.95949  18150288.9004   18150294.5614
  20517523.942   -20239521.89649 -15738714.78949  20517523.8884   20517530.1824
  21065006.782   -22882637.352 9 -17816223.582 9  21065006.552    21065012.798
  20199730.971   -24404143.90549 -18986674.96149  20199732.3064   20199738.6754
 95  3 22 18  6 29.9930000  0  7 19 29  2 18 27 28 31
  18551668.901   -24691064.02449 -19224528.15549  18551670.7074   18551676.1924
  19514955.303    -7994244.83949  -6209922.47349  19514955.5714   19514961.2924
  22289550.147    -6853236.47549  -5302463.56549  22289549.3974   22289558.6294
  18143317.623   -20396687.68849 -15874365.38749  18143318.7904   18143324.3444
  20492955.414   -20368621.21949 -15839311.63049  20492956.7134   20492963.7124
  21055380.348   -22933218.296 9 -17855637.319 9  21055381.275    21055387.611
  20177517.442   -24520866.51249 -19077627.60649  20177520.7354   20177527.2634
 95  3 22 18  6 59.9930000  0  8 19 29  2 18 16 27 28 31
  18536568.484   -24770414.30549 -19286359.54549  18536570.7644   18536576.4424
  19516959.321    -7983718.01649  -6201719.80049  19516959.0344   19516964.3564
  22260674.398    -7004969.20849  -5420696.74949  22260676.1344   22260685.1394
  18136443.457   -20432814.84649 -15902516.43549  18136443.8384   18136449.3654
  22695085.045    -6702330.30059  -5193279.77659  22695085.2984   22695093.8834
  20468404.605   -20497634.20649 -15939841.19449  20468406.3454   20468413.2064
  21045858.164   -22983261.117 9 -17894631.744 9  21045858.670    21045864.994
  20155395.347   -24637136.00049 -19168227.18749  20155395.5534   20155401.5094
 95  3 22 18  7 29.9930000  0  8 19 29  2 18 16 27 28 31
  18521506.534   -24849571.33149 -19348040.34949  18521507.6944   18521513.3194
  19519030.464    -7972830.13649  -6193235.78449  19519031.6834   19519036.2334
  22231829.811    -7156548.49849  -5538810.34949  22231830.8574   22231840.0904
  18129665.277   -20468431.65149 -15930269.81149  18129666.3734   18129671.6814
  22670849.540    -6829686.35849  -5292518.24649  22670849.6374   22670858.7574
  20443874.947   -20626543.61249 -16040290.05649  20443875.9624   20443882.6174
  21036443.121   -23032762.304 9 -17933204.109 9  21036439.436    21036445.449
  20133357.142   -24752951.24249 -19258472.80649  20133357.3874   20133363.4994
 95  3 22 18  7 59.9930000  0  8 19 29  2 18 16 27 28 31
  18506481.335   -24928528.88549 -19409565.71449  18506482.3344   18506488.1034
  19521170.223    -7961589.18349  -6184476.64749  19521170.3914   19521175.7844
  22203015.836    -7307976.25749  -5656805.89849  22203015.2474   22203025.1254
  18122982.073   -20503555.39649 -15957638.97949  18122982.7634   18122988.0564
  22646695.412    -6956620.55649  -5391428.01649  22646695.5684   22646703.1894
  20419365.524   -20755341.64349 -16140652.13349  20419366.4244   20419372.8504
  21027120.075   -23081720.817 9 -17971353.615 9  21027122.143    21027128.888
  20111403.884   -24868311.56949 -19348363.93849  20111404.7114   20111411.4294
 95  3 22 18  8 29.9930000  0  8 19 29  2 18 16 27 28 31
  18491492.347   -25007297.66249 -19470943.98249  18491493.2434   18491498.9984
  19523376.663    -7949988.10449  -6175436.89249  19523377.7024   19523382.8204
  22174227.900    -7459252.13549  -5774683.12949  22174228.2184   22174237.2714
  18116385.141   -20538221.13149 -15984651.25949  18116386.0434   18116391.8254
  22622617.255    -7083152.87849  -5490024.62049  22622616.5834   22622624.6174
  20394876.120   -20884038.02149 -16240934.99249  20394876.7244   20394882.7864
  21017907.535   -23130132.081 9 -18009076.696 9  21017909.632    21017915.959
  20089534.713   -24983220.30849 -19437903.19049  20089537.2304   20089544.7874
 95  3 22 18  8 59.9930000  0  8 19 29  2 18 16 27 28 31
  18476542.136   -25085862.95849 -19532163.69249  18476542.6094   18476548.5334
  19525652.048    -7938022.50249  -6166113.08249  19525654.0894   19525660.2544
  22145473.157    -7610365.91449  -5892434.02049  22145471.6294   22145481.5034
  18109874.216   -20572436.72949 -16011312.77649  18109875.0054   18109880.6194
  22598615.077    -7209288.54049  -5588312.13749  22598614.2244   22598622.6314
  20370404.600   -21012635.58949 -16341140.84449  20370405.1034   20370411.2704
  21008801.414   -23177993.214 9 -18046371.095 9  21008802.368    21008808.776
  20067757.851   -25097667.68649 -19527082.94449  20067758.7044   20067765.9314
 95  3 22 18  9 29.9920000  0  8 19 29  2 18 16 27 28 31
  18461632.361   -25164208.41149 -19593212.09849  18461634.1164   18461640.1044
  19527999.166    -7925701.09749  -6156512.03849  19527999.4524   19528004.8864
  22116746.951    -7761319.14349  -6010059.83149  22116746.1474   22116756.1504
  18103452.828   -20606182.63449 -16037608.30949  18103453.4934   18103458.6364
  22574688.414    -7335023.22949  -5686287.19649  22574687.5214   22574695.4604
  20345951.926   -21141131.34849 -16441267.38449  20345952.9874   20345959.5114
  20999801.637   -23225299.441 9 -18083233.102 9  20999800.121    20999806.827
  20046069.716   -25211644.97749 -19615896.39349  20046070.0664   20046076.1514
 95  3 22 18  9 59.9920000  0  8 19 29  2 18 16 27 28 31
  18446762.036   -25242356.98449 -19654107.08949  18446763.1494   18446768.9144
  19530410.080    -7913030.41049  -6146638.82349  19530410.9274   19530415.6654
  22088050.685    -7912128.93049  -6127573.87349  22088048.2614   22088057.5894
  18097121.846   -20639455.07749 -16063534.91249  18097122.1214   18097127.1954
  22550836.629    -7460366.56549  -5783957.30549  22550835.1414   22550843.2364
  20321515.094   -21269547.22949 -16541331.67949  20321516.3204   20321522.2864
  20990903.002   -23272053.248 9 -18119664.656 9  20990902.971    20990909.510
  20024469.765   -25325155.56949 -19704346.17549  20024469.7114   20024475.1924
 95  3 22 18 10 29.9920000  0  8 19 29  2 18 16 27 28 31
  18431926.995   -25320308.54149 -19714848.56049  18431929.6284   18431935.3024
  19532884.497    -7900018.07949  -6136499.39349  19532886.9274   19532892.1654
  22059379.054    -8062794.64949  -6244975.68549  22059377.6764   22059385.8424
  18090883.245   -20672233.22849 -16089076.34749  18090884.0844   18090889.9534
  22527063.983    -7585303.80349  -5881310.97449  22527060.9824   22527069.0484
  20297092.101   -21397890.44949 -16641339.35549  20297093.4314   20297099.7734
  20982117.504   -23318257.508 9 -18155667.992 9  20982110.829    20982117.385
  20002956.857   -25438206.55849 -19792437.82549  20002956.7194   20002962.4104
 95  3 22 18 10 59.9920000  0  8 19 29  2 18 16 27 28 31
  18417131.854   -25398068.27849 -19775440.56349  18417132.2514   18417137.8674
  19535428.027    -7886654.81849  -6126086.50749  19535429.2724   19535435.4164
  22030733.837    -8213321.81949  -6362269.55549  22030733.9114   22030741.6344
  18084745.133   -20704490.63549 -16114212.00049  18084745.7604   18084751.9614
  22503364.975    -7709817.21449  -5978334.40049  22503366.6294   22503373.9614
  20272683.291   -21526164.07149 -16741292.79949  20272683.6674   20272690.0914
  20973424.140   -23363915.895 9 -18191245.969 9  20973422.729    20973428.638
  19981529.019   -25550794.83749 -19880168.92249  19981531.2704   19981538.4084
 95  3 22 18 11 29.9920000  0  8 19 29  2 18 16 27 28 31
  18402367.284   -25475651.78849 -19835895.24349  18402368.8594   18402374.5004
  19538037.684    -7872943.44249  -6115402.35649  19538038.8004   19538044.7704
  22002115.203    -8363708.10549  -6479453.62349  22002115.5584   22002124.7624
  18078708.154   -20736220.30649 -16138936.43649  18078708.1384   18078713.6984
  22479752.760    -7833910.29149  -6075030.26749  22479753.0914   22479761.3484
  20248285.562   -21654369.79349 -16841193.32949  20248286.9784   20248293.0934
  20964836.843   -23409030.341 9 -18226400.082 9  20964837.663    20964843.584
  19960193.614   -25662932.52349 -19967548.91549  19960192.3704   19960199.5774
 95  3 22 18 11 59.9920000  0  8 19 29  2 18 16 27 28 31
  18387638.029   -25553057.64949 -19896211.49549  18387638.9054   18387644.3394
  19540714.784    -7858876.88249  -6104441.44249  19540715.6004   19540721.7684
  21973526.326    -8513944.70449  -6596521.02149  21973526.4974   21973535.1624
  18072767.576   -20767435.97049 -16163260.35349  18072768.1694   18072773.0954
  22456220.188    -7957572.89949  -6171390.73849  22456219.7894   22456228.5934
  20223905.464   -21782496.11549 -16941031.99049  20223905.2304   20223911.7544
  20956356.636   -23453602.229 9 -18261131.427 9  20956355.875    20956361.919
  19938938.084   -25774618.63249 -20054577.03249  19938939.5854   19938946.5834
 95  3 22 18 12 29.9920000  0  8 19 29  2 18 16 27 28 31
  18372945.351   -25630267.35149 -19956374.90549  18372946.0714   18372951.8534
  19543459.830    -7844453.15049  -6093202.22349  19543460.7904   19543465.8724
  21944969.373    -8664020.59549  -6713463.21649  21944967.8944   21944976.8364
  18066922.513   -20798148.38349 -16187192.12349  18066923.2774   18066928.7814
  22432769.332    -8080800.05649  -6267411.88249  22432771.2444   22432778.7704
  20199538.955   -21910536.22949 -17040803.48849  20199540.2134   20199546.3854
  20947978.355   -23497627.783 9 -18295437.061 9  20947977.671    20947984.558
  19917774.650   -25885845.24149 -20141247.09349  19917774.0424   19917780.2664
 95  3 22 18 12 59.9920000  0  8 19 29  2 18 16 27 28 31
  18358289.809   -25707276.28149 -20016381.86549  18358291.8084   18358297.5384
  19546274.175    -7829664.11049  -6081678.35049  19546275.0254   19546280.1884
  21916438.857    -8813933.47649  -6830278.38849  21916440.0894   21916449.4614
  18061170.283   -20828380.23849 -16210749.42949  18061170.5544   18061176.2354
  22409400.719    -8203606.88249  -6363105.49649  22409401.3764   22409409.4704
  20175189.729   -22038490.99849 -17140508.48349  20175190.9634   20175197.2634
  20939706.796   -23541103.874 9 -18329314.543 9  20939705.303    20939711.480
  19896696.860   -25996601.66949 -20227550.77949  19896697.9854   19896703.6754
 95  3 22 18 13 29.9920000  0  8 19 29  2 18 16 27 28 31
  18343677.600   -25784068.85149 -20076220.23349  18343678.8964   18343684.5634
  19549154.974    -7814523.83149  -6069880.77949  19549155.7394   19549160.6704
  21887945.584    -8963676.88949  -6946961.47649  21887944.8934   21887953.7464
  18055507.065   -20858146.11949 -16233943.63849  18055506.8694   18055512.1704
  22386108.136    -8326008.13549  -6458483.08449  22386109.7244   22386117.5994
  20150857.514   -22166353.09949 -17240141.25449  20150859.8414   20150866.1624
  20931541.151   -23584033.776 9 -18362766.421 9  20931535.588    20931541.954
  19875708.224   -26106893.06949 -20313492.10949  19875710.0284   19875715.3714
 95  3 22 18 13 59.9920000  0  8 19 29  2 18 16 27 28 31
  18329107.330   -25860634.08449 -20135881.45749  18329108.6034   18329114.5284
  19552103.537    -7799027.53549  -6057805.79149  19552104.6094   19552110.5354
  21859480.322    -9113256.85449  -7063517.22649  21859480.6074   21859489.0344
  18049930.026   -20887450.51049 -16256778.25149  18049930.0504   18049935.4394
  22362894.396    -8448004.47749  -6553545.15349  22362894.1164   22362901.7274
  20126546.413   -22294117.11949 -17339697.61149  20126547.2274   20126553.3414
  20923472.054   -23626418.685 9 -18395793.637 9  20923469.684    20923476.297
  19854814.188   -26216705.70849 -20399060.36649  19854812.8844   19854818.9744
 95  3 22 18 14 29.9920000  0  8 19 29  2 18 16 27 28 31
  18314578.982   -25936981.81749 -20195373.19749  18314580.3054   18314586.2064
  19555119.993    -7783182.93149  -6045459.39649  19555119.9524   19555125.9644
  21831043.766    -9262684.33849  -7179954.15149  21831044.8414   21831053.7424
  18044441.129   -20916290.63949 -16279251.09749  18044441.7484   18044447.2194
  22339751.790    -8569611.03849  -6648303.47449  22339753.5424   22339761.5974
  20102250.284   -22421796.10649 -17439187.71849  20102250.7284   20102256.8264
  20915508.108   -23668261.572 9 -18428398.494 9  20915507.231    20915513.676
  19834005.363   -26326044.87849 -20484259.70149  19834006.7924   19834012.8674
 95  3 22 18 14 59.9920000  0  8 19 29  2 18 16 27 28 31
  18300092.354   -26013109.14249 -20254693.19449  18300093.9104   18300099.5264
  19558200.723    -7766986.68649  -6032838.98849  19558202.0394   19558207.9214
  21802642.282    -9411949.39349  -7296264.47449  21802641.2054   21802650.1504
  18039045.797   -20944642.77849 -16301343.69349  18039046.8324   18039052.1774
  22316688.114    -8690813.91549  -6742747.24649  22316688.2884   22316696.7874
  20077971.474   -22549377.83849 -17538602.03049  20077972.6894   20077978.6294
  20907646.323   -23709559.269 9 -18460578.522 9  20907649.078    20907655.179
  19813290.913   -26434904.04349 -20569085.00549  19813291.6964   19813297.7924
 95  3 22 18 15 29.9920000  0  8 19 29  2 18 16 27 28 31
  18285647.369   -26089020.42349 -20313844.84149  18285648.5764   18285654.3374
  19561352.554    -7750433.95949  -6019940.81249  19561352.4034   19561358.3034
  21774269.839    -9561045.87649  -7412443.46549  21774269.1864   21774277.8184
  18033746.889   -20972487.46049 -16323040.86749  18033748.1334   18033753.8104
  22293707.690    -8811587.95849  -6836856.87949  22293707.4004   22293714.3244
  20053712.176   -22676852.40149 -17637932.82349  20053714.4204   20053720.9844
  20899898.134   -23750309.532 9 -18492331.984 9  20899894.608    20899900.945
  19792669.219   -26543271.47549 -20653527.13349  19792669.8164   19792675.8324
 95  3 22 18 15 59.9920000  0  8 19 29  2 18 16 27 28 31
  18271239.871   -26164731.20849 -20372840.26449  18271241.1504   18271246.9314
  19564570.005    -7733522.57649  -6006763.16949  19564570.4804   19564575.7794
  21745926.798    -9709982.85649  -7528498.17749  21745927.2884   21745936.0394
  18028545.022   -20999822.07349 -16344340.58849  18028546.2534   18028552.1904
  22270807.362    -8931916.45249  -6930619.31649  22270808.5984   22270817.0744
  20029476.896   -22804224.08249 -17737183.45349  20029476.5764   20029483.0284
  20892237.712   -23790508.811 9 -18523656.124 9  20892244.873    20892251.164
  19772141.345   -26651139.90749 -20737580.43749  19772143.0494   19772148.7824
 95  3 22 18 16 29.9920000  0  8 19 29  2 18 16 27 28 31
  18256872.134   -26240236.23149 -20431675.35349  18256873.1524   18256878.8494
  19567856.750    -7716247.46949  -5993302.10149  19567857.1214   19567863.1904
  21717617.751    -9858751.37349  -7644421.60749  21717617.7924   21717627.0204
  18023445.544   -21026625.94749 -16365226.74049  18023445.6694   18023451.3264
  22247999.080    -9051783.08149  -7024021.87149  22247998.9164   22248006.9094
  20005258.210   -22931491.93149 -17836353.16749  20005258.7464   20005264.5834
  20884701.047   -23830150.327 9 -18554545.637 9  20884701.282    20884707.223
  19751713.222   -26758500.59549 -20821238.09149  19751712.9514   19751718.7394
 95  3 22 18 16 59.9920000  0  8 19 29  2 18 16 27 28 31
  18242544.339   -26315527.74849 -20490344.07349  18242545.6414   18242551.1644
  19571211.111    -7698609.92249  -5979558.61749  19571213.3794   19571219.0634
  21689338.481   -10007358.90649  -7760219.58849  21689338.7154   21689347.4494
  18018444.751   -21052904.13849 -16385703.27349  18018445.5164   18018450.7334
  22225278.354    -9171184.50949  -7117061.91749  22225277.4024   22225285.5254
  19981061.976   -23058647.98849 -17935435.76949  19981061.4414   19981067.7134
  20877261.049   -23869239.532 9 -18585004.769 9  20877262.887    20877268.677
  19731380.522   -26865344.42449 -20904492.99849  19731381.6404   19731387.3364
 95  3 22 18 17 29.9920000  0  8 19 29  2 18 16 27 28 31
  18228258.280   -26390601.57349 -20548843.16849  18228259.5144   18228265.1254
  19574636.537    -7680611.94649  -5965534.27049  19574638.3544   19574644.1284
  21661087.672   -10155815.80049  -7875900.20849  21661088.3264   21661096.3834
  18013542.863   -21078666.51249 -16405777.87049  18013543.1514   18013548.3594
  22202640.722    -9290129.64449  -7209746.42949  22202643.4394   22202650.9574
  19956884.846   -23185687.72949 -18034427.74249  19956886.4504   19956892.8194
  20869935.691   -23907776.534 9 -18615033.622 9  20869929.479    20869935.474
  19711145.996   -26971679.22349 -20987351.25849  19711146.4084   19711152.9934
 95  3 22 18 17 59.9920000  0  8 19 29  2 18 16 27 28 31
  18214015.276   -26465450.65949 -20607167.13749  18214016.1534   18214021.7794
  19578129.923    -7662266.58349  -5951239.24249  19578130.1714   19578135.4774
  21632868.323   -10304110.73949  -7991454.62249  21632868.6924   21632876.9884
  18008737.639   -21103915.97349 -16425452.79549  18008737.9404   18008743.6714
  22180092.658    -9408630.81349  -7302084.99149  22180093.0334   22180101.2874
  19932733.113   -23312614.89549 -18133331.99849  19932732.9574   19932739.6814
  20862705.148   -23945762.598 9 -18644633.172 9  20862700.699    20862707.578
  19691006.297   -27077514.73649 -21069820.46649  19691006.2084   19691012.8094
 95  3 22 18 18 29.9920000  0  8 19 29  2 18 16 27 28 31
  18199817.220   -26540060.30549 -20665304.52849  18199818.2654   18199824.0864
  19581685.487    -7643577.60849  -5936676.46249  19581686.7954   19581692.0784
  21604682.774   -10452231.03349  -8106872.92849  21604681.6484   21604690.7904
  18004028.617   -21128659.71649 -16444733.65649  18004029.3384   18004035.2324
  22157625.397    -9526696.40049  -7394084.12849  22157625.9694   22157634.3804
  19908597.976   -23439435.22849 -18232153.00549  19908599.9174   19908606.5024
  20855579.273   -23983198.760 9 -18673804.234 9  20855576.925    20855583.455
  19670960.649   -27182849.23549 -21151899.27149  19670961.5524   19670968.4204
 95  3 22 18 18 59.9920000  0  8 19 29  2 18 16 27 28 31
  18185662.661   -26614441.91349 -20723264.23049  18185663.9734   18185669.7814
  19585305.484    -7624556.58749  -5921854.94449  19585306.3964   19585312.2214
  21576531.954   -10600170.31749  -8222150.19749  21576529.7624   21576538.3754
  17999411.929   -21152918.90249 -16463636.93949  17999413.1634   17999418.6564
  22135242.087    -9644322.41549  -7485740.73449  22135242.4424   22135250.9844
  19884485.937   -23566145.32549 -18330888.09849  19884487.7574   19884494.2524
  20848559.305   -24020084.400 9 -18702546.317 9  20848558.246    20848564.429
  19651009.846   -27287694.39049 -21233596.77349  19651010.7664   19651016.7884
 95  3 22 18 19 29.9920000  0  8 19 29  2 18 16 27 28 31
  18171548.585   -26688612.37449 -20781059.39849  18171549.9394   18171555.7954
  19588985.591    -7605211.09049  -5906780.58049  19588987.4504   19588993.7274
  21548413.770   -10747904.77949  -8337267.88249  21548416.5954   21548425.2114
  17994889.196   -21176690.63449 -16482160.39649  17994890.0224   17994894.8604
  22112942.838    -9761504.83449  -7577051.71349  22112943.4884   22112951.3864
  19860392.940   -23692757.18549 -18429546.66849  19860394.2994   19860400.9014
  20841644.469   -24056415.487 9 -18730856.269 9  20841644.496    20841650.470
  19631149.456   -27392057.28849 -21314918.48149  19631151.4294   19631156.9414
 95  3 22 18 19 59.9920000  0  8 19 29  2 18 16 27 28 31
  18157473.046   -26762581.12649 -20838697.39249  18157474.1984   18157479.9954
  19592730.491    -7585539.27549  -5891451.93949  19592730.6244   19592737.0024
  21520344.347   -10895431.47249  -8452223.64849  21520343.2904   21520352.7264
  17990457.369   -21199980.26949 -16500308.19049  17990457.8634   17990463.0344
  22090731.176    -9878234.85649  -7668010.18049  22090730.3584   22090738.1634
  19836318.352   -23819281.13149 -18528136.72249  19836317.6084   19836323.9984
  20834844.659   -24092190.455 9 -18758732.878 9  20834836.613    20834842.987
  19611386.864   -27495921.55649 -21395851.64449  19611386.4814   19611392.7684
 95  3 22 18 20 29.9920000  0  8 19 29  2 18 16 27 28 31
  18143434.466   -26836352.96649 -20896181.94749  18143435.8644   18143441.3884
  19596534.355    -7565540.31949  -5875868.38849  19596536.2664   19596542.4034
  21492304.572   -11042767.75549  -8567031.04649  21492305.8174   21492314.9924
  17986114.865   -21222797.59349 -16518087.94349  17986115.6234   17986121.3214
  22068604.465    -9994509.02449  -7758613.41149  22068603.6784   22068611.8684
  19812259.056   -23945705.94849 -18626649.53849  19812259.9914   19812266.2664
  20828132.654   -24127410.966 9 -18786177.446 9  20828134.702    20828140.728
  19591714.848   -27599283.51049 -21476393.40049  19591716.6114   19591723.3754
 95  3 22 18 20 59.9920000  0  8 19 29  2 18 16 27 28 31
  18129431.815   -26909937.56949 -20953520.60449  18129433.5384   18129439.0304
  19600405.779    -7545210.78049  -5860027.24749  19600405.3474   19600410.4654
  21464306.279   -11189911.53149  -8681688.47149  21464305.4394   21464314.4524
  17981864.715   -21245137.57549 -16535495.74249  17981864.5524   17981870.1444
  22046562.590   -10110328.90949  -7848862.65049  22046563.7444   22046572.1424
  19788221.435   -24072020.28249 -18725076.27049  19788222.9294   19788229.1544
  20821538.858   -24162079.426 9 -18813191.848 9  20821537.162    20821544.258
  19572141.198   -27702139.83049 -21556541.16149  19572143.9534   19572150.8474
 95  3 22 18 21 29.9920000  0  8 19 29  2 18 16 27 28 31
  18115467.962   -26983320.63949 -21010702.22249  18115468.9534   18115474.5714
  19604338.664    -7524537.07249  -5843917.92849  19604339.6884   19604344.2904
  21436340.885   -11336867.54849  -8796199.57749  21436341.0604   21436350.0284
  17977707.056   -21266981.94849 -16552517.35949  17977708.0744   17977713.4704
  22024610.322   -10225696.99149  -7938759.84049  22024610.9704   22024618.2184
  19764206.042   -24198226.29449 -18823418.60049  19764207.1604   19764212.9384
  20815039.068   -24196195.645 9 -18839775.934 9  20815045.124    20815051.573
  19552671.044   -27804472.93549 -21636281.21949  19552670.9314   19552677.0204
 95  3 22 18 21 59.9920000  0  8 19 29  2 18 16 27 28 31
  18101544.071   -27056482.98149 -21067711.84149  18101546.4504   18101552.2584
  19608340.475    -7503509.33949  -5827532.73749  19608341.1224   19608346.0994
  21408405.827   -11483657.25449  -8910581.08749  21408407.5744   21408416.2564
  17973645.139   -21288326.49949 -16569149.50149  17973646.0734   17973651.7724
  22002743.971   -10340606.24849  -8028299.51349  22002743.7894   22002752.2934
  19740212.922   -24324312.39349 -18921667.48649  19740213.6374   19740219.4314
  20808654.873   -24229760.590 9 -18865930.449 9  20808657.844    20808663.796
  19533299.075   -27906271.24549 -21715604.54949  19533299.6764   19533305.8404
 95  3 22 18 22 29.9920000  0  8 19 29  2 18 16 27 28 31
  18087665.793   -27129419.46149 -21124545.46349  18087666.9814   18087672.7514
  19612407.867    -7482129.60949  -5810873.26349  19612408.9624   19612415.4384
  21380506.597   -11630270.65249  -9024825.24649  21380507.9794   21380516.6044
  17969679.934   -21309163.13849 -16585385.86849  17969680.8854   17969686.5144
  21980964.582   -10455055.08849  -8117480.43449  21980965.3314   21980972.9254
  19716243.639   -24450271.24949 -19019817.22849  19716244.3544   19716250.4664
  20802385.282   -24262775.419 9 -18891656.291 9  20802375.210    20802381.662
  19514029.000   -28007527.78049 -21794505.71949  19514030.8354   19514037.2564
 95  3 22 18 22 59.9910000  0  8 19 29  2 18 16 27 28 31
  18073828.335   -27202135.51449 -21181207.32549  18073829.7324   18073835.4504
  19616542.550    -7460403.98549  -5793944.25549  19616543.4444   19616550.0484
  21352642.576   -11776690.16049  -9138918.30649  21352645.0524   21352653.9854
  17965814.172   -21329478.43849 -16601216.00049  17965815.4644   17965820.6884
  21959273.359   -10569041.23549  -8206300.80949  21959274.7544   21959281.9734
  19692296.282   -24576117.82249 -19117879.47749  19692296.4464   19692302.5194
  20796204.679   -24295246.483 9 -18916958.424 9  20796196.690    20796203.130
  19494863.280   -28108239.12749 -21872982.08349  19494865.6024   19494872.6064
 95  3 22 18 23 29.9910000  0  8 19 29  2 18 16 27 28 31
  18060033.322   -27274630.91149 -21237697.24549  18060034.6254   18060040.0874
  19620741.617    -7438339.70949  -5776751.37049  19620742.4264   19620749.3624
  21324815.517   -11922937.42949  -9252877.14349  21324814.9604   21324823.6854
  17962045.139   -21349283.36049 -16616648.43049  17962046.5064   17962051.9944
  21937672.538   -10682566.70449  -8294762.19349  21937670.6214   21937679.5354
  19668367.071   -24701865.78649 -19215864.87849  19668367.4914   19668373.5954
  20790113.361   -24327177.933 9 -18941840.087 9  20790120.320    20790126.739
  19475804.686   -28208409.28549 -21951036.73149  19475803.8524   19475810.9994
 95  3 22 18 23 59.9910000  0  8 19 29  2 18 16 27 28 31
  18046280.120   -27346905.41049 -21294015.04049  18046281.2454   18046286.7324
  19625002.213    -7415947.94049  -5759303.29449  19625003.6024   19625009.9834
  21297017.892   -12069002.88749  -9366694.34849  21297020.0914   21297027.4494
  17958369.874   -21368601.04949 -16631701.19749  17958370.2714   17958376.1884
  21916151.241   -10795638.28249  -8382869.89849  21916154.2964   21916161.9034
  19644457.756   -24827502.69449 -19313763.74949  19644459.4174   19644465.3854
  20784143.018   -24358571.432 9 -18966302.575 9  20784146.334    20784152.813
  19456846.064   -28308040.84849 -22028671.70149  19456845.1384   19456851.5334
 95  3 22 18 24 29.9910000  0  8 19 29  2 18 16 27 28 31
  18032567.305   -27418964.16149 -21350164.72349  18032568.8994   18032574.3984
  19629324.366    -7393232.99849  -5741603.39949  19629326.0494   19629332.1614
  21269260.875   -12214868.23949  -9480355.62149  21269262.6994   21269270.9924
  17954783.183   -21387445.72049 -16646385.37849  17954784.1424   17954789.8924
  21894724.861   -10908259.04949  -8470626.34249  21894723.3074   21894731.0584
  19620572.143   -24953032.67649 -19411579.29849  19620571.8464   19620577.9804
  20778272.564   -24389427.060 9 -18990345.935 9  20778275.055    20778280.507
  19437985.694   -28407139.04249 -22105891.06349  19437987.2884   19437993.7034
 95  3 22 18 24 59.9910000  0  8 19 29  2 18 16 27 28 31
  18018896.380   -27490804.21949 -21406143.98849  18018897.9694   18018903.5524
  19633705.239    -7370207.52049  -5723661.53249  19633707.3964   19633713.0024
  21241540.143   -12360547.78949  -9593872.08949  21241541.4404   21241549.3064
  17951286.354   -21405822.01449 -16660704.59249  17951287.9744   17951293.2184
  21873374.514   -11020430.03549  -8558032.29749  21873377.5614   21873385.8354
  19596701.395   -25078469.37349 -19509322.16149  19596701.8114   19596708.2494
  20772505.522   -24419749.163 9 -19013973.554 9  20772504.769    20772510.785
  19419226.769   -28505722.21649 -22182709.10249  19419227.4214   19419233.7674
 95  3 22 18 25 29.9910000  0  8 19 29  2 18 16 27 28 31
  18005266.856   -27562424.90249 -21461952.31649  18005268.7724   18005274.6364
  19638145.999    -7346866.61549  -5705473.87449  19638148.8374   19638154.4034
  21213850.136   -12506069.72749  -9707265.77349  21213848.8944   21213857.0604
  17947875.417   -21423750.81049 -16674675.11149  17947875.8834   17947881.1564
  21852118.691   -11132144.28849  -8645082.36349  21852119.5514   21852127.8774
  19572847.201   -25203821.27249 -19606998.94349  19572848.0764   19572854.3994
  20766833.600   -24449539.157 9 -19037186.552 9  20766836.095    20766842.237
  19400563.461   -28603797.38249 -22259131.29149  19400564.1284   19400570.5614
 95  3 22 18 25 59.9910000  0  8 19 29  2 18 16 27 28 31
  17991678.797   -27633831.88349 -21517594.12149  17991680.6324   17991686.3054
  19642648.947    -7323211.46149  -5687041.35849  19642650.4194   19642655.8944
  21186188.212   -12651427.36849  -9820531.42249  21186188.1024   21186196.5334
  17944551.678   -21441216.06149 -16688284.42149  17944552.3584   17944558.2014
  21830949.312   -11243392.52149  -8731769.29349  21830949.0644   21830957.4944
  19549007.697   -25329096.20349 -19704615.75749  19549009.4964   19549015.5314
  20761265.093   -24478800.512 9 -19059987.630 9  20761267.704    20761273.855
  19381996.607   -28701371.59149 -22335163.13049  19381996.3124   19382003.0504
 95  3 22 18 26 29.9910000  0  8 19 29  2 18 16 27 28 31
  17978129.027   -27705039.06749 -21573080.23349  17978130.4704   17978136.2574
  19647207.895    -7299253.40849  -5668372.80449  19647209.6924   19647215.1104
  21158557.053   -12796629.46549  -9933675.88049  21158557.6384   21158565.4184
  17941318.414   -21458203.89149 -16701521.71449  17941319.7934   17941325.3584
  21809869.178   -11354161.99849  -8818083.17749  21809870.0474   21809878.4884
  19525179.382   -25454315.14449 -19802188.93749  19525180.6524   19525187.0324
  20755797.088   -24507544.745 9 -19082385.753 9  20755798.092    20755804.202
  19363525.583   -28798441.24949 -22410801.80549  19363524.7494   19363531.1104
 95  3 22 18 26 59.9910000  0  8 19 29  2 18 16 27 28 31
  17964617.808   -27776043.61749 -21628408.45249  17964618.8504   17964624.3524
  19651827.101    -7274992.13249  -5649467.97149  19651827.0874   19651832.8414
  21130954.082   -12941678.72949 -10046701.24649  21130955.1884   21130963.0024
  17938180.019   -21474704.55149 -16714379.39349  17938180.0994   17938185.3714
  21788881.294   -11464454.53349  -8904025.39549  21788882.0744   21788891.0364
  19501362.229   -25579475.70449 -19899716.61349  19501363.6124   19501369.9674
  20750424.633   -24535769.937 9 -19104379.424 9  20750426.582    20750432.985
  19345151.581   -28895000.53749 -22486042.79049  19345150.1374   19345156.4044
 95  3 22 18 27 29.9910000  0  8 19 29  2 18 16 27 28 31
  17951144.420   -27846847.53749 -21683580.33949  17951145.2504   17951150.9974
  19656503.313    -7250421.29649  -5630321.92749  19656502.9404   19656508.8954
  21103384.355   -13086557.60649 -10159593.81749  21103385.9214   21103393.5964
  17935131.234   -21490719.80549 -16726858.83849  17935132.1324   17935137.6844
  21767984.473   -11574266.64549  -8989593.26749  21767986.2124   21767993.6054
  19477561.442   -25704553.44249 -19997179.77149  19477562.1784   19477568.3004
  20745155.273   -24563474.951 9 -19125967.771 9  20745154.656    20745160.603
  19326874.007   -28991028.51049 -22560869.76949  19326876.2094   19326882.7534
 95  3 22 18 27 59.9910000  0  8 19 29  2 18 16 27 28 31
  17937708.765   -27917450.04949 -21738595.28549  17937709.9924   17937715.7144
  19661233.985    -7225553.20349  -5610944.25449  19661235.0854   19661241.1374
  21075855.149   -13231231.03249 -10272326.28849  21075854.9634   21075863.1374
  17932178.316   -21506238.82849 -16738951.61149  17932178.7804   17932184.4364
  21747179.166   -11683608.20549  -9074794.46549  21747178.5014   21747186.7404
  19453781.671   -25829517.34549 -20094554.21649  19453782.2354   19453788.3484
  20739976.803   -24590657.130 9 -19147148.707 9  20739981.856    20739988.240
  19308704.498   -29086509.54949 -22635270.55749  19308706.8244   19308713.1044
 95  3 22 18 28 29.9910000  0  8 19 29  2 18 16 27 28 31
  17924311.462   -27987852.97349 -21793454.70549  17924312.6094   17924318.4884
  19666020.122    -7200394.97349  -5591340.50649  19666021.8804   19666028.3884
  21048364.191   -13375697.82649 -10384897.74949  21048364.3334   21048371.6424
  17929317.181   -21521275.64549 -16750668.63249  17929317.4274   17929323.2044
  21726460.652   -11792482.36449  -9159631.47549  21726460.7844   21726468.7194
  19430024.312   -25954360.37449 -20191834.47349  19430025.3664   19430031.3614
  20734903.887   -24617315.648 9 -19167921.595 9  20734908.999    20734915.205
  19290640.915   -29181440.16549 -22709242.44449  19290642.5864   19290648.3834
 95  3 22 18 28 59.9910000  0  8 19 29  2 18 16 27 28 31
  17910951.952   -28058055.15749 -21848157.71049  17910953.8064   17910959.3694
  19670860.885    -7174946.89449  -5571510.90649  19670864.1934   19670870.4054
  21020911.366   -13519953.69749 -10497304.84649  21020912.3884   21020920.8874
  17926545.505   -21535840.66249 -16762018.02349  17926545.8574   17926551.8034
  21705830.329   -11900893.77349  -9244107.90949  21705830.8204   21705838.1264
  19406292.056   -26079072.53149 -20289012.75449  19406293.5444   19406299.0144
  20729933.677   -24643450.258 9 -19188286.242 9  20729935.874    20729941.876
  19272681.125   -29275826.17449 -22782789.95649  19272681.7274   19272687.4374
 95  3 22 18 29 29.9910000  0  8 19 29  2 18 16 27 28 31
  17897629.562   -28128065.95049 -21902711.57549  17897631.1454   17897636.6684
  19675761.288    -7149202.75849  -5551450.60149  19675763.2914   19675769.3814
  20993503.765   -13663989.32049 -10609540.32049  20993503.4744   20993511.4944
  17923863.987   -21549927.38049 -16772994.71649  17923865.2024   17923871.1474
  21685290.315   -12008824.92249  -9328210.10249  21685292.2634   21685299.8484
  19382585.222   -26203655.41149 -20386090.30349  19382585.9564   19382591.7674
  20725074.220   -24669061.317 9 -19208242.937 9  20725062.364    20725068.151
  19254825.423   -29369657.82849 -22855905.50849  19254826.0484   19254832.0414
 95  3 22 18 29 59.9910000  0  8 19 29  2 18 16 27 28 31
  17884343.124   -28197888.83549 -21957119.02549  17884344.3764   17884350.0104
  19680718.227    -7123162.91349  -5531159.88449  19680719.0054   19680724.6204
  20966133.649   -13807814.81049 -10721612.08249  20966134.6634   20966142.7034
  17921276.241   -21563534.29349 -16783597.53149  17921276.0304   17921281.7314
  21664843.145   -12116276.60249  -9411938.67549  21664844.8924   21664853.4384
  19358899.434   -26328128.99449 -20483082.68449  19358899.4834   19358905.3234
  20720295.796   -24694147.900 9 -19227790.938 9  20720288.436    20720294.891
  19237075.994   -29462937.94849 -22928591.28849  19237075.1844   19237081.2734
 95  3 22 18 30 29.9910000  0  8 19 29  2 18 16 27 28 31
  17871091.480   -28267525.71449 -22011381.53349  17871092.8684   17871098.4094
  19685730.546    -7096823.39249  -5510635.64849  19685731.6294   19685737.4604
  20938798.465   -13951456.29849 -10833540.41049  20938800.2924   20938808.5764
  17918776.096   -21576669.11549 -16793832.48349  17918776.7484   17918782.2254
  21644489.048   -12223246.67149  -9495291.96649  21644489.2544   21644496.8074
  19335225.830   -26452525.05449 -20580014.65749  19335227.6134   19335233.4644
  20715614.602   -24718713.390 9 -19246932.895 9  20715613.942    20715619.875
  19219427.715   -29555672.32549 -23000851.81849  19219428.7734   19219434.4434
 95  3 22 18 30 59.9910000  0  8 19 29  2 18 16 27 28 31
  17857877.311   -28336969.30249 -22065493.42449  17857878.2844   17857883.8434
  19690804.474    -7070164.84349  -5489862.82349  19690805.2074   19690810.7024
  20911501.879   -14094914.00149 -10945325.56549  20911501.6294   20911508.9294
  17916366.719   -21589327.05849 -16803695.83949  17916368.0624   17916373.7084
  21624221.415   -12329745.66149  -9578278.19049  21624223.4434   21624231.4094
  19311569.522   -26576843.68449 -20676886.30249  19311570.5254   19311576.4324
  20711037.622   -24742753.324 9 -19265665.330 9  20711039.376    20711045.623
  19201886.046   -29647857.71849 -23072684.57049  19201886.5064   19201891.5714
 95  3 22 18 31 29.9910000  0  8 19 29  2 18 16 27 28 31
  17844700.096   -28406212.60849 -22119449.24949  17844701.4554   17844707.0874
  19695936.738    -7043185.41649  -5468839.95749  19695939.0814   19695944.6024
  20884235.741   -14238195.60849 -11056973.49149  20884235.5624   20884243.5394
  17914047.943   -21601513.25049 -16813191.59949  17914048.9074   17914054.6694
  21604044.554   -12435782.71849  -9660904.46549  21604045.2794   21604052.7344
  19287930.635   -26701073.32349 -20773688.60249  19287930.7344   19287936.2934
  20706566.800   -24766260.115 9 -19283982.341 9  20706565.679    20706572.772
  19184448.553   -29739491.01149 -23144087.12049  19184448.8784   19184454.6264
 95  3 22 18 31 59.9910000  0  8 19 29  2 18 16 27 28 31
  17831565.576   -28475231.82049 -22173230.45749  17831567.5614   17831573.3654
  19701131.228    -7015890.43649  -5447571.20549  19701132.2324   19701138.5934
  20856999.659   -14381319.32649 -11168498.38349  20857000.1364   20857008.4894
  17911815.746   -21613246.15749 -16822334.15249  17911816.1524   17911822.1704
  21583952.197   -12541369.06749  -9743179.54549  21583952.4884   21583960.9534
  19264308.607   -26825204.19149 -20870413.93149  19264309.1744   19264314.9474
  20702190.375   -24789229.195 9 -19301880.361 9  20702194.990    20702201.149
  19167114.441   -29830579.88549 -23215065.43749  19167115.1574   19167121.0344
 95  3 22 18 32 29.9910000  0  8 19 29  2 18 16 27 28 31
  17818477.530   -28544013.58749 -22226826.64449  17818478.7864   17818484.5814
  19706385.857    -6988275.00449  -5426052.74949  19706386.8814   19706393.3464
  20829797.116   -14524271.96149 -11279889.97649  20829797.0084   20829804.8404
  17909668.741   -21624527.67449 -16831124.96949  17909669.6544   17909675.3104
  21563942.574   -12646507.09049  -9825105.28149  21563945.5104   21563953.5024
  19240708.065   -26949225.16949 -20967053.63549  19240709.0744   19240714.5784
  20697931.725   -24811658.789 9 -19319358.001 9  20697926.766    20697933.224
  19149884.412   -29921132.87049 -23285626.18849  19149883.5594   19149889.6704
 95  3 22 18 32 59.9910000  0  8 19 29  2 18 16 27 28 31
  17805434.248   -28612552.57649 -22280233.65549  17805436.2684   17805442.0704
  19711699.143    -6960353.95049  -5404296.14949  19711700.4544   19711706.2074
  20802627.127   -14667038.47349 -11391136.53549  20802629.3244   20802638.1014
  17907608.664   -21635356.03449 -16839562.67349  17907609.1344   17907614.7204
  21544025.621   -12751188.99949  -9906675.60049  21544025.0154   21544033.3374
  19217133.297   -27073107.97549 -21063585.66849  19217134.6254   19217140.4964
  20693754.466   -24833551.570 9 -19336417.338 9  20693760.783    20693767.361
  19132754.712   -30011145.61749 -23355765.97249  19132754.8694   19132760.9354
 95  3 22 18 33 29.9910000  0  8 19 29  2 18 16 27 28 31
  17792439.022   -28680849.34249 -22333451.92449  17792439.9594   17792445.5704
  19717067.471    -6932143.46049  -5382314.02149  19717069.2944   19717074.3904
  20775498.431   -14809608.49849 -11502229.98349  20775498.8244   20775507.5494
  17905635.630   -21645723.40049 -16847641.16649  17905636.1924   17905641.6924
  21524196.410   -12855392.50349  -9987873.13849  21524195.4784   21524203.5494
  19193585.232   -27196851.94349 -21160009.51549  19193587.0574   19193592.7104
  20689702.453   -24854910.828 9 -19353060.953 9  20689696.224    20689702.329
  19115729.930   -30100604.31349 -23425474.03149  19115731.3494   19115737.4424
 95  3 22 18 33 59.9910000  0  8 19 29  2 18 16 27 28 31
  17779486.477   -28748910.72849 -22386486.77149  17779488.2494   17779493.9794
  19722492.230    -6903646.79349  -5360108.89749  19722492.5984   19722497.1404
  20748409.809   -14951957.43349 -11613151.15749  20748410.8344   20748419.2364
  17903753.707   -21655611.35349 -16855346.09049  17903754.6594   17903760.3154
  21504461.337   -12959101.36249 -10068685.22849  21504460.6114   21504468.7474
  19170063.235   -27320469.52649 -21256334.88349  19170063.1964   19170068.8924
  20685732.145   -24875743.867 9 -19369294.522 9  20685731.859    20685738.298
  19098814.877   -30189500.61249 -23494743.86349  19098814.8064   19098820.6324
 95  3 22 18 34 29.9910000  0  8 19 29  2 18 16 27 28 31
  17766575.956   -28816761.00149 -22439357.11849  17766576.8604   17766582.4254
  19727967.026    -6874870.34949  -5337685.76949  19727968.8824   19727973.5274
  20721369.091   -15094066.49349 -11723885.42549  20721368.1844   20721376.4254
  17901968.968   -21664996.40249 -16862659.14249  17901968.7934   17901974.6534
  21484823.409   -13062300.61149 -10149100.22749  21484822.5704   21484830.4944
  19146564.260   -27443955.35249 -21352557.58249  19146564.6064   19146570.5054
  20681857.628   -24896057.167 9 -19385123.104 9  20681866.919    20681873.018
  19082007.608   -30277820.95149 -23563564.89449  19082007.9984   19082013.5454
 95  3 22 18 34 59.9910000  0  8 19 29  2 18 16 27 28 31
  17753702.953   -28884409.96149 -22492070.59549  17753703.7494   17753709.5344
  19733497.478    -6845810.27149  -5315041.62849  19733498.4904   19733504.2874
  20694372.431   -15235931.95749 -11834429.86649  20694372.1184   20694380.0874
  17900279.250   -21673868.76949 -16869572.70149  17900280.3854   17900286.2234
  21465284.736   -13164972.16449 -10229104.03149  21465285.0934   21465293.2604
  19123092.306   -27567303.75349 -21448673.19649  19123092.1654   19123098.2184
  20678109.623   -24915849.681 9 -19400545.874 9  20678100.155    20678106.955
  19065313.080   -30365547.86749 -23631923.51249  19065314.7344   19065319.9804
 95  3 22 18 35 29.9910000  0  8 19 29  2 18 16 27 28 31
  17740864.771   -28951870.36449 -22544637.15049  17740866.3314   17740872.1274
  19739084.799    -6816451.56149  -5292164.77549  19739084.7904   19739091.2224
  20667418.645   -15377566.46749 -11944794.36549  20667419.5784   20667428.1004
  17898686.793   -21682236.24449 -16876092.83449  17898688.0824   17898693.7234
  21445844.061   -13267127.38349 -10308705.50249  21445845.0614   21445853.3494
  19099639.324   -27690538.07949 -21544699.92549  19099641.4894   19099647.3864
  20674431.441   -24935126.942 9 -19415567.163 9  20674431.188    20674438.436
  19048731.656   -30452684.79349 -23699822.40049  19048732.9094   19048738.3484
 95  3 22 18 35 59.9900000  0  8 19 29  2 18 16 27 28 31
  17728065.207   -29019136.31049 -22597052.17749  17728066.0894   17728072.0044
  19744726.065    -6786797.67749  -5269057.92049  19744727.5434   19744734.8574
  20640506.099   -15518984.08449 -12054989.83549  20640508.2474   20640517.0824
  17897189.282   -21690106.95849 -16882225.88649  17897190.4154   17897195.9884
  21426503.242   -13368774.29449 -10387910.88549  21426503.2164   21426510.5864
  19076215.190   -27813637.78649 -21640621.74249  19076216.4264   19076222.3224
  20670853.355   -24953890.039 9 -19430187.799 9  20670860.947    20670868.052
  19032262.696   -30539236.12849 -23767264.98549  19032262.0204   19032268.4254
 95  3 22 18 36 29.9900000  0  8 19 29  2 18 16 27 28 31
  17715303.198   -29086197.48449 -22649307.64349  17715304.8124   17715310.7914
  19750422.124    -6756855.80649  -5245726.65849  19750424.5584   19750432.2074
  20613632.326   -15660221.22349 -12165044.69149  20613632.1564   20613640.3784
  17895779.900   -21697511.93949 -16887996.03049  17895781.1734   17895786.7954
  21407251.832   -13469928.97549 -10466732.72549  21407254.0744   21407261.9104
  19052813.299   -27936616.80149 -21736449.51949  19052814.1494   19052820.1684
  20667388.359   -24972147.944 9 -19444414.775 9  20667387.297    20667393.443
  19015899.189   -30625225.99849 -23834270.07149  19015898.7344   19015905.0984
 95  3 22 18 36 59.9900000  0  8 19 29  2 18 16 27 28 31
  17702584.080   -29153032.69549 -22701387.03549  17702586.4474   17702592.4974
  19756175.009    -6726633.67449  -5222177.01049  19756176.2974   19756183.4944
  20586787.778   -15801281.34349 -12274961.59749  20586789.2544   20586797.6624
  17894457.613   -21704472.18649 -16893419.62849  17894456.7534   17894462.7014
  21388096.214   -13570600.13449 -10545177.78949  21388096.7454   21388104.6434
  19029433.838   -28059481.88949 -21832188.52849  19029433.8054   19029439.4254
  20664002.739   -24989903.774 9 -19458250.522 9  20664008.304    20664014.504
  18999642.174   -30710661.14649 -23900842.90549  18999641.3514   18999646.8884
 95  3 22 18 37 29.9900000  0  8 19 29  2 18 16 27 28 31
  17689911.299   -29219633.90949 -22753284.08749  17689912.6304   17689918.5034
  19761977.871    -6696135.93449  -5198412.61649  19761980.5594   19761986.3544
  20559979.147   -15942169.72449 -12384744.69549  20559979.0404   20559987.3074
  17893214.507   -21710999.80649 -16898506.10649  17893214.7404   17893220.6094
  21369028.362   -13670796.17749 -10623252.64549  21369030.2404   21369037.8914
  19006072.688   -28182237.79149 -21927842.45949  19006074.0734   19006079.8594
  20660733.739   -25007159.813 9 -19471696.823 9  20660724.461    20660731.149
  18983489.446   -30795551.24949 -23966991.02349  18983487.8814   18983492.7374
 95  3 22 18 37 59.9900000  0  8 19 29  2 18 16 27 28 31
  17677283.948   -29285992.56749 -22804992.13249  17677284.9674   17677290.8564
  19767831.359    -6665388.66949  -5174453.78349  19767832.1134   19767837.0104
  20533200.674   -16082876.31949 -12494386.15249  20533203.5344   20533211.6474
  17892052.702   -21717106.81249 -16903264.84149  17892052.7094   17892058.5084
  21350056.064   -13770514.87449 -10700955.52049  21350054.1454   21350062.0344
  18982735.347   -28304882.56249 -22023409.78149  18982735.7114   18982741.2924
  20657526.627   -25023921.172 9 -19484757.663 9  20657534.937    20657541.560
  18967433.900   -30879912.27949 -24032726.86749  18967433.8414   18967439.8894
 95  3 22 18 38 29.9900000  0  8 19 29  2 18 16 27 28 31
  17664700.213   -29352116.87249 -22856517.57349  17664701.9394   17664707.5944
  19773730.982    -6634394.85449  -5150302.84349  19773731.0114   19773734.8514
  20506464.191   -16223385.18749 -12603873.53149  20506465.4334   20506473.9594
  17890968.909   -21722793.38149 -16907695.95949  17890970.2904   17890976.1004
  21331169.489   -13869752.02849 -10778283.18849  21331169.4524   21331178.3164
  18959411.458   -28427444.68049 -22118912.71049  18959412.6474   18959418.4614
  20654438.086   -25040193.066 9 -19497437.103 9  20654438.738    20654445.102
  18951480.913   -30963746.33249 -24098052.09549  18951480.6734   18951486.8774
 95  3 22 18 38 59.9900000  0  8 19 29  2 18 16 27 28 31
  17652154.446   -29418047.72949 -22907892.27449  17652155.9724   17652161.6524
  19779675.287    -6603154.69649  -5125959.95149  19779674.4454   19779679.4234
  20479763.763   -16363698.11649 -12713208.23749  20479765.0194   20479772.6714
  17889970.640   -21728043.21849 -16911786.76149  17889971.3374   17889977.1804
  21312376.409   -13968519.98249 -10855245.23449  21312374.9844   21312382.2174
  18936103.255   -28549932.74949 -22214357.94049  18936104.1164   18936109.8664
  20651436.522   -25055983.353 9 -19509741.256 9  20651433.886    20651440.614
  18935627.855   -31047045.81149 -24162960.76949  18935629.2794   18935635.1004
 95  3 22 18 39 29.9900000  0  8 19 29  2 18 16 27 28 31
  17639642.511   -29483797.33949 -22959125.74049  17639644.0774   17639649.7874
  19785663.519    -6571665.79249  -5101423.21349  19785666.4944   19785672.2274
  20453101.814   -16503813.94149 -12822389.35149  20453101.8734   20453109.9254
  17889056.512   -21732848.53649 -16915531.18049  17889057.1494   17889062.9054
  21293670.167   -14066814.73949 -10931838.55749  21293669.7724   21293677.6384
  18912809.342   -28672342.54549 -22309742.17549  18912810.2244   18912816.0274
  20648516.995   -25071293.426 9 -19521671.209 9  20648520.520    20648526.895
  18919879.998   -31129804.39149 -24227447.96049  18919881.2874   18919886.5484
 95  3 22 18 39 59.9900000  0  8 19 29  2 18 16 27 28 31
  17627164.661   -29549372.67749 -23010223.40549  17627165.6584   17627171.5024
  19791700.847    -6539938.44949  -5076700.67549  19791703.3174   19791710.0934
  20426475.741   -16643735.08049 -12931418.73949  20426475.9544   20426483.6194
  17888229.161   -21737193.69849 -16918917.04349  17888230.3054   17888236.0544
  21275056.394   -14164632.59849 -11008060.28649  21275055.3414   21275063.2404
  18889529.950   -28794675.46849 -22405066.51549  18889531.0124   18889536.7784
  20645710.311   -25086126.363 9 -19533229.374 9  20645697.907    20645704.095
  18904237.447   -31212011.96449 -24291505.78849  18904237.4934   18904243.3444
 95  3 22 18 40 29.9900000  0  8 19 29  2 18 16 27 28 31
  17614717.117   -29614779.67149 -23061189.89849  17614718.8764   17614724.8524
  19797788.860    -6507948.23749  -5051773.29249  19797790.5284   19797798.7244
  20399884.707   -16783468.87649 -13040302.17049  20399885.5604   20399893.1044
  17887492.412   -21741066.21849 -16921934.61749  17887493.2024   17887498.9454
  21256528.667   -14261981.33449 -11083916.44849  21256531.0414   21256538.5604
  18866266.093   -28916927.46849 -22500327.79349  18866267.2304   18866273.0384
  20642983.874   -25100479.136 9 -19544413.389 9  20642966.805    20642972.899
  18888700.257   -31293645.42449 -24355116.26449  18888702.7434   18888708.8644
 95  3 22 18 40 59.9900000  0  8 19 29  2 18 16 27 28 31
  17602306.339   -29680006.11049 -23112015.69449  17602306.8054   17602312.6794
  19803926.670    -6475689.51749  -5026636.68949  19803929.6624   19803937.6204
  20373328.468   -16923023.47849 -13149045.94449  20373329.1634   20373336.9794
  17886843.725   -21744476.88549 -16924592.29749  17886844.1724   17886850.3044
  21238095.137   -14358870.44749 -11159414.46649  21238093.4194   21238101.2254
  18843022.918   -29039076.88549 -22595509.13549  18843022.7564   18843028.7534
  20640328.898   -25114348.630 9 -19555220.814 9  20640327.135    20640333.722
  18873277.381   -31374700.48149 -24418276.03349  18873278.7964   18873284.8334
 95  3 22 18 41 29.9900000  0  8 19 29  2 18 16 27 28 31
  17589934.283   -29745016.03749 -23162672.78449  17589935.7354   17589941.4654
  19810118.858    -6443170.17949  -5001297.02249  19810118.7004   19810126.1804
  20346808.321   -17062379.28649 -13257634.83049  20346810.3634   20346817.6954
  17886281.145   -21747436.03149 -16926898.14549  17886281.5544   17886287.0184
  21219748.053   -14455284.25649 -11234542.11249  21219747.1064   21219754.8554
  18819800.447   -29161106.50549 -22690597.13649  18819801.3914   18819807.3554
  20637780.655   -25127726.913 9 -19565645.471 9  20637781.782    20637787.749
  18857964.031   -31455174.74449 -24480983.23649  18857965.1294   18857971.0954
 95  3 22 18 41 59.9900000  0  8 19 29  2 18 16 27 28 31
  17577605.853   -29809804.62149 -23213157.39449  17577607.0264   17577612.4324
  19816357.406    -6410389.20849  -4975753.49049  19816357.4834   19816363.5794
  20320329.872   -17201535.06149 -13366067.85649  20320329.7824   20320337.1804
  17885801.638   -21749959.91949 -16928864.83849  17885801.2564   17885806.5674
  21201487.382   -14551233.39149 -11309307.68949  21201488.3234   21201496.0254
  18796602.184   -29283019.42749 -22785594.20349  18796602.1784   18796608.0774
  20635340.153   -25140618.512 9 -19575690.898 9  20635328.610    20635334.953
  18842760.381   -31535070.19049 -24543239.41449  18842761.2954   18842767.4144
 95  3 22 18 42 29.9900000  0  8 19 29  2 18 16 27 28 31
  17565320.032   -29874369.41649 -23263467.63049  17565320.6864   17565326.3924
  19822646.825    -6377343.11149  -4950003.35749  19822646.4904   19822651.5184
  20293888.475   -17340491.65349 -13474345.66749  20293887.1924   20293894.8684
  17885398.266   -21752071.10049 -16930509.94249  17885399.4234   17885404.9644
  21183316.178   -14646720.79749 -11383713.44749  21183317.6624   21183326.4094
  18773425.442   -29404808.86949 -22880495.05049  18773426.4384   18773432.3454
  20632957.623   -25153026.618 9 -19585359.574 9  20632967.285    20632973.397
  18827666.663   -31614394.84149 -24605050.81649  18827666.2814   18827672.3234
 95  3 22 18 42 59.9900000  0  8 19 29  2 18 16 27 28 31
  17553072.731   -29938721.13049 -23313611.82449  17553074.8874   17553080.5564
  19828979.446    -6344055.88249  -4924065.32849  19828980.2594   19828986.0314
  20267482.418   -17479247.13749 -13582466.78949  20267483.0544   20267490.2214
  17885074.753   -21753772.25649 -16931835.53949  17885075.3584   17885081.4974
  21165237.166   -14741731.20449 -11457747.52049  21165237.8474   21165245.2474
  18750272.604   -29526479.86649 -22975303.60349  18750273.2214   18750279.0904
  20630699.509   -25164960.675 9 -19594658.860 9  20630696.216    20630702.273
  18812678.555   -31693163.46249 -24666428.95149  18812677.5784   18812683.3714
 95  3 22 18 43 29.9900000  0  8 19 29  2 18 16 27 28 31
  17540866.022   -30002876.87249 -23363603.31749  17540866.6994   17540872.5354
  19835358.510    -6310523.98049  -4897936.65749  19835360.6574   19835366.9564
  20241116.548   -17617796.60049 -13690427.36249  20241117.9774   20241125.4684
  17884833.025   -21755045.71349 -16932827.86749  17884833.4624   17884839.3764
  21147251.714   -14836246.20849 -11531395.56949  21147251.9474   21147260.2644
  18727140.070   -29648045.38049 -23070029.96249  18727140.1784   18727145.9494
  20628505.992   -25176421.947 9 -19603589.745 9  20628515.183    20628521.587
  18797794.380   -31771373.90649 -24727372.14149  18797794.3964   18797800.7764
 95  3 22 18 43 59.9900000  0  8 19 29  2 18 16 27 28 31
  17528690.296   -30066855.03349 -23413456.43349  17528691.9954   17528697.8394
  19841786.882    -6276741.97949  -4871613.09349  19841788.5424   19841795.0654
  20214789.838   -17756155.30949 -13798239.29749  20214789.4494   20214796.0734
  17884671.925   -21755894.62549 -16933489.38349  17884672.0764   17884677.6204
  21129360.177   -14930267.82649 -11604659.16249  21129360.6524   21129368.2004
  18704022.963   -29769522.71849 -23164687.61549  18704023.6614   18704029.6384
  20626423.278   -25187411.961 9 -19612153.417 9  20626424.261    20626430.477
  18783014.659   -31849027.96749 -24787881.79649  18783016.9604   18783023.2384
 95  3 22 18 44 29.9900000  0  8 19 29  2 18 16 27 28 31
  17516549.752   -30130654.78349 -23463170.51949  17516551.2904   17516557.1124
  19848257.653    -6242725.26649  -4845106.63749  19848261.5734   19848268.5894
  20188494.469   -17894330.05649 -13905907.89549  20188494.7304   20188502.7694
  17884594.386   -21756300.80049 -16933805.90549  17884594.6384   17884600.2694
  21111569.143   -15023770.38249 -11677518.30749  21111567.9814   21111575.3424
  18680922.442   -29890909.77949 -23259274.92249  18680924.3964   18680930.3934
  20624419.500   -25197925.650 9 -19620345.928 9  20624423.380    20624430.087
  18768346.432   -31926121.40549 -24847954.59149  18768346.7964   18768352.4124
 95  3 22 18 44 59.9900000  0  8 19 29  2 18 16 27 28 31
  17504443.894   -30194271.53349 -23512742.01449  17504445.3314   17504451.0214
  19854775.110    -6208476.42349  -4818419.29649  19854778.7944   19854786.2334
  20162238.334   -18032313.10449 -14013427.10149  20162237.9884   20162245.5944
  17884602.759   -21756254.76749 -16933770.06549  17884603.2114   17884609.0824
  21093874.676   -15116745.25949 -11749966.27949  21093875.6464   21093882.9564
  18657841.151   -30012210.29649 -23353794.78949  18657841.4804   18657847.6144
  20622515.311   -25207960.026 9 -19628164.963 9  20622513.889    20622520.529
  18753784.701   -32002650.34249 -24907587.51949  18753784.2364   18753789.5494
 95  3 22 18 45 29.9900000  0  8 19 29  2 18 16 27 28 31
  17492376.521   -30257688.50349 -23562157.83449  17492377.4954   17492383.2234
  19861337.390    -6173993.81749  -4791549.80049  19861340.9704   19861347.9654
  20136015.681   -18170106.69649 -14120798.69549  20136016.3894   20136023.5984
  17884694.509   -21755773.04949 -16933394.72549  17884694.8664   17884700.5394
  21076279.131   -15209199.55049 -11822008.57749  21076281.6304   21076289.2824
  18634776.712   -30133413.22449 -23448238.60449  18634777.4064   18634783.4534
  20620706.127   -25217513.081 9 -19635608.931 9  20620696.280    20620702.495
  18739330.737   -32078606.05349 -24966773.77549  18739329.9944   18739335.7054
 95  3 22 18 45 59.9900000  0  8 19 29  2 18 16 27 28 31
  17480352.657   -30320881.55349 -23611399.17249  17480352.5274   17480357.8554
  19867946.546    -6139284.73649  -4764503.83949  19867946.7444   19867953.4894
  20109831.351   -18307707.96449 -14228020.41049  20109832.1344   20109839.6784
  17884865.155   -21754876.16649 -16932695.88249  17884865.9904   17884871.6994
  21058783.929   -15301140.22149 -11893650.66249  21058786.2324   21058793.4694
  18611735.081   -30254492.63449 -23542586.17549  18611736.6314   18611742.6374
  20618973.219   -25226587.015 9 -19642679.567 9  20618969.415    20618975.508
  18724984.454   -32153987.13949 -25025512.27149  18724985.0064   18724991.1434
 95  3 22 18 46 29.9900000  0  8 19 29  2 18 16 27 28 31
  17468371.404   -30383837.95549 -23660456.11149  17468372.1464   17468377.5554
  19874594.545    -6104348.40249  -4737280.80249  19874595.4894   19874601.8814
  20083685.904   -18445102.66349 -14335081.15349  20083686.3064   20083694.0384
  17885116.469   -21753554.08249 -16931665.71249  17885117.4084   17885123.5564
  21041386.623   -15392566.10949 -11964891.62549  21041388.1964   21041395.9684
  18588723.782   -30375419.67949 -23636815.01849  18588724.9904   18588731.1824
  20617337.660   -25235182.800 9 -19649377.626 9  20617333.342    20617339.869
  18710752.536   -32228778.16549 -25083790.98849  18710752.9504   18710758.7114
 95  3 22 18 46 59.9900000  0  8 19 29  2 18 16 27 28 31
  17456435.990   -30446558.76749 -23709329.47249  17456436.9084   17456442.4364
  19881286.362    -6069184.54349  -4709880.45749  19881287.5604   19881293.0404
  20057582.576   -18582276.07349 -14441969.46949  20057583.4054   20057591.2384
  17885447.614   -21751815.79349 -16930311.22549  17885448.1414   17885454.1224
  21024082.735   -15483497.75949 -12035747.45949  21024084.5334   21024091.5444
  18565740.548   -30496197.28549 -23730927.42249  18565741.9584   18565747.6954
  20615786.458   -25243308.676 9 -19655709.511 9  20615787.360    20615793.655
  18696630.850   -32302982.59349 -25141612.60949  18696632.1544   18696638.1934
 95  3 22 18 47 29.9900000  0  8 19 29  2 18 16 27 28 31
  17444544.151   -30509049.78649 -23758023.77049  17444545.0394   17444550.7214
  19888021.048    -6033798.90949  -4682307.31049  19888020.8234   19888026.9624
  20031518.780   -18719235.37849 -14548690.93649  20031520.2524   20031528.3834
  17885856.212   -21749667.40249 -16928637.17949  17885856.9354   17885862.3254
  21006869.102   -15573957.07349 -12106235.25049  21006870.5624   21006878.2154
  18542786.935   -30616827.85549 -23824925.25149  18542786.8204   18542792.6344
  20614320.700   -25250974.636 9 -19661683.021 9  20614328.143    20614334.764
  18682622.678   -32376604.30049 -25198980.15549  18682622.6084   18682628.5274
 95  3 22 18 47 59.9900000  0  8 19 29  2 18 16 27 28 31
  17432693.201   -30571323.26049 -23806548.55549  17432694.9764   17432700.6834
  19894793.953    -5998203.55849  -4654570.76049  19894793.9484   19894800.2234
  20005496.779   -18855983.95749 -14655248.21849  20005498.1244   20005505.8724
  17886346.168   -21747094.72649 -16926632.52449  17886346.7604   17886352.0684
  20989743.409   -15663953.86749 -12176362.63649  20989745.3384   20989752.3234
  18519856.596   -30737325.64349 -23918819.61249  18519856.9594   18519862.6554
  20612968.794   -25258185.227 9 -19667301.716 9  20612956.618    20612963.379
  18668722.587   -32449646.37049 -25255896.04449  18668722.9434   18668728.9044
 95  3 22 18 48 29.9900000  0  8 19 29  2 18 16 27 28 31
  17420879.749   -30633404.74349 -23854923.73649  17420881.1714   17420886.8694
  19901605.518    -5962406.81449  -4626677.28049  19901605.7884   19901611.9254
  19979515.752   -18992518.90749 -14761639.01949  19979515.9264   19979523.6684
  17886915.809   -21744095.78849 -16924295.71449  17886917.3054   17886923.1154
  20972705.937   -15753491.07649 -12246131.90249  20972706.3914   20972713.7294
  18496944.697   -30857726.02149 -24012638.07249  18496945.3714   18496951.2984
  20611676.799   -25264946.218 9 -19672570.049 9  20611669.688    20611676.477
  18654930.186   -32522118.99849 -25312368.20949  18654931.9224   18654938.6494
 95  3 22 18 48 59.9890000  0  8 19 29  2 18 16 27 28 31
  17409100.724   -30695303.04149 -23903156.17949  17409102.1884   17409107.8394
  19908454.507    -5926403.57549  -4598622.88449  19908456.7274   19908463.0074
  19953573.759   -19128842.28349 -14867864.98149  19953574.9684   19953582.1504
  17887566.630   -21740681.46449 -16921635.23149  17887566.9474   17887572.8584
  20955755.008   -15842567.75049 -12315542.29449  20955755.6684   20955763.1564
  18474050.362   -30978040.42949 -24106389.54549  18474050.4244   18474056.1424
  20610465.392   -25271261.335 9 -19677490.959 9  20610468.496    20610474.946
  18641243.700   -32594041.79949 -25368411.94449  18641245.3034   18641252.1194
 95  3 22 18 49 29.9890000  0  8 19 29  2 18 16 27 28 31
  17397355.827   -30757023.90549 -23951250.36249  17397357.0954   17397362.7584
  19915350.311    -5890173.97349  -4570392.10149  19915350.8964   19915357.6254
  19927668.310   -19264977.23449 -14973944.10549  19927669.5224   19927676.6884
  17888293.065   -21736862.90249 -16918659.75449  17888293.6844   17888299.8304
  20938894.402   -15931179.19649 -12384590.18249  20938893.7964   20938901.5424
  18451170.671   -31098269.28749 -24200074.36149  18451171.6204   18451177.3174
  20609344.650   -25277130.136 9 -19682064.092 9  20609351.355    20609357.847
  18627663.416   -32665418.61349 -25424030.23049  18627663.3464   18627669.4114
 95  3 22 18 49 59.9890000  0  8 19 29  2 18 16 27 28 31
  17385644.574   -30818565.57149 -23999204.91149  17385646.2454   17385651.9464
  19922287.240    -5853716.08549  -4541983.43849  19922288.5164   19922295.1874
  19901801.056   -19400910.66749 -15079866.20649  19901801.8744   19901809.5764
  17889096.524   -21732638.85649 -16915368.31649  17889097.4364   17889103.3824
  20922125.718   -16019294.03849 -12453251.11149  20922126.2104   20922133.7824
  18428309.019   -31218409.61149 -24293690.18049  18428309.6324   18428315.3784
  20608329.521   -25282549.588 9 -19686287.087 9  20608319.678    20608327.418
  18614185.369   -32736237.24849 -25479213.57149  18614186.9894   18614192.5064
 95  3 22 18 50 29.9890000  0  8 19 29  2 18 16 27 28 31
  17373969.738   -30879919.73149 -24047013.35549  17373971.0814   17373976.7824
  19929273.077    -5817007.60749  -4513379.50449  19929274.1334   19929281.1314
  19875975.246   -19536632.38549 -15185623.34449  19875975.0844   19875982.6954
  17889978.771   -21728003.39549 -16911756.30049  17889979.5324   17889985.0984
  20905456.619   -16106894.21149 -12521510.99749  20905456.4044   20905464.4674
  18405465.827   -31338452.76049 -24387230.29349  18405466.3464   18405471.8334
  20607356.898   -25287516.667 9 -19690157.573 9  20607375.507    20607381.960
  18600816.416   -32806496.28349 -25533960.85449  18600817.1364   18600822.7914
 95  3 22 18 50 59.9890000  0  8 19 29  2 18 16 27 28 31
  17362332.307   -30941072.29549 -24094664.71649  17362334.0854   17362339.8294
  19936303.274    -5780058.75149  -4484588.27649  19936305.5854   19936312.5164
  19850184.559   -19672156.51949 -15291226.52149  19850185.3704   19850193.3124
  17890940.614   -21722948.13949 -16907817.17449  17890941.3994   17890947.1174
  20888881.364   -16193986.71849 -12589375.29549  20888883.0444   20888890.5954
  18382643.567   -31458383.55149 -24480682.85849  18382644.2054   18382649.7404
  20606511.000   -25292034.236 9 -19693677.793 9  20606515.390    20606522.285
  18587555.465   -32876184.05449 -25588263.01049  18587555.7454   18587561.8134
 95  3 22 18 51 29.9890000  0  8 19 29  2 18 16 27 28 31
  17350736.565   -31002011.35049 -24142149.70149  17350737.5634   17350743.4344
  19943376.955    -5742899.02549  -4455632.72949  19943377.1804   19943383.4814
  19824435.323   -19807469.08949 -15396664.84649  19824436.3694   19824443.6124
  17891983.987   -21717467.89149 -16903546.88449  17891984.4894   17891990.2564
  20872408.507   -16280564.26249 -12656838.33149  20872407.5404   20872415.2824
  18359842.925   -31578198.67249 -24574045.27749  18359843.9134   18359849.5484
  20605732.824   -25296097.184 9 -19696843.762 9  20605742.281    20605748.904
  18574408.629   -32945267.77549 -25642094.47749  18574409.3554   18574415.5354
 95  3 22 18 51 59.9890000  0  8 19 29  2 18 16 27 28 31
  17339177.943   -31062751.50849 -24189479.70649  17339179.1984   17339184.9814
  19950480.243    -5705564.73449  -4426541.16249  19950481.9204   19950488.2334
  19798727.422   -19942562.89249 -15501932.69349  19798728.6554   19798736.6624
  17893108.312   -21711556.69949 -16898940.78849  17893109.5454   17893115.2564
  20856026.601   -16366646.16849 -12723915.15149  20856026.4394   20856034.9004
  18337061.540   -31697912.92649 -24667329.10049  18337063.2284   18337068.8284
  20605061.692   -25299716.933 9 -19699664.380 9  20605053.396    20605059.964
  18561376.882   -33013752.41149 -25695459.12249  18561377.6744   18561383.3794
 95  3 22 18 52 29.9890000  0  8 19 29  2 18 16 27 28 31
  17327661.307   -31123273.87649 -24236640.00349  17327662.3724   17327668.0704
  19957618.615    -5668051.11849  -4397309.86149  19957621.0634   19957627.3774
  19773063.799   -20077434.09549 -15607027.08149  19773064.1664   19773071.2504
  17894317.015   -21705210.24949 -16893995.53249  17894317.2854   17894323.4764
  20839738.902   -16452235.72949 -12790608.32949  20839739.6014   20839747.0304
  18314304.017   -31817502.83249 -24760516.02549  18314306.1354   18314311.6004
  20604453.714   -25302885.690 9 -19702133.577 9  20604450.110    20604457.259
  18548459.748   -33081630.43649 -25748351.08449  18548460.5834   18548466.4674
 95  3 22 18 52 59.9890000  0  8 19 29  2 18 16 27 28 31
  17316186.537   -31183571.99849 -24283625.57149  17316187.7904   17316193.5654
  19964790.203    -5630373.95749  -4367951.12249  19964790.9194   19964796.3494
  19747439.076   -20212084.24849 -15711949.23149  19747440.3054   19747447.7594
  17895604.412   -21698446.33549 -16888724.97949  17895604.2044   17895610.5074
  20823542.055   -16537336.50249 -12856920.64249  20823545.1574   20823552.9994
  18291571.297   -31936971.72549 -24853608.65849  18291571.9964   18291577.3654
  20603929.170   -25305606.161 9 -19704253.464 9  20603933.275    20603939.815
  18535659.496   -33148893.35449 -25800763.74949  18535660.8744   18535666.4724
 95  3 22 18 53 29.9890000  0  8 19 29  2 18 16 27 28 31
  17304757.827   -31243630.58449 -24330424.48349  17304759.0914   17304764.7744
  19971995.971    -5592502.67549  -4338441.11349  19971997.5204   19972003.1884
  19721861.795   -20346508.13249 -15816695.05249  19721860.7774   19721868.1584
  17896970.442   -21691263.06449 -16883127.65549  17896971.0944   17896976.8454
  20807445.955   -16621935.87149 -12922842.25349  20807446.7484   20807454.7754
  18268862.264   -32056307.71449 -24946597.73449  18268863.2334   18268868.5754
  20603493.471   -25307872.585 9 -19706019.553 9  20603501.973    20603508.343
  18522975.885   -33215544.45149 -25852699.66849  18522977.6044   18522983.3224
 95  3 22 18 53 59.9890000  0  8 19 29  2 18 16 27 28 31
  17293376.177   -31303438.05249 -24377027.71549  17293378.0994   17293383.7414
  19979248.677    -5554391.83449  -4308744.43949  19979249.6234   19979255.6244
  19696319.670   -20480728.80449 -15921282.53749  19696319.3624   19696326.5804
  17898418.349   -21683657.97749 -16877201.64749  17898418.4904   17898424.1884
  20791444.223   -16706027.22349 -12988368.00249  20791444.8674   20791452.6454
  18246177.300   -32175515.44249 -25039486.86149  18246178.3844   18246183.8514
  20603147.276   -25309689.679 9 -19707435.503 9  20603156.334    20603162.595
  18510405.992   -33281602.20149 -25904173.24249  18510407.2134   18510413.0894
 95  3 22 18 54 29.9890000  0  8 19 29  2 18 16 27 28 31
  17282045.180   -31362989.58749 -24423431.51749  17282046.0654   17282051.7024
  19986547.128    -5516038.54449  -4278858.86149  19986547.4464   19986554.2004
  19670812.314   -20614758.78249 -16025721.43249  19670814.0164   19670821.7534
  17899941.821   -21675650.86549 -16870962.38149  17899942.2634   17899947.9484
  20775537.718   -16789609.73049 -13053497.24349  20775539.9214   20775547.6734
  18223518.019   -32294595.74349 -25132276.69749  18223518.1334   18223523.7854
  20602897.083   -25311062.174 9 -19708505.012 9  20602894.822    20602901.252
  18497947.459   -33347075.67549 -25955191.53949  18497948.1014   18497953.9304
 95  3 22 18 54 59.9890000  0  8 19 29  2 18 16 27 28 31
  17270758.606   -31422298.80349 -24469646.50349  17270759.9894   17270765.3634
  19993889.674    -5477445.57049  -4248786.50049  19993891.2434   19993898.1574
  19645344.388   -20748593.46049 -16130008.13649  19645345.6714   19645353.3154
  17901540.573   -21667243.47349 -16864411.20549  17901542.1624   17901547.6914
  20759729.044   -16872689.10149 -13118234.43249  20759730.2324   20759738.5154
  18200879.689   -32413551.41049 -25224969.40949  18200881.5554   18200887.1824
  20602723.376   -25311991.419 9 -19709229.127 9  20602718.366    20602724.422
  18485596.938   -33411971.56849 -26005759.76949  18485598.7784   18485604.7974
 95  3 22 18 55 29.9890000  0  8 19 29  2 18 16 27 28 31
  17259515.996   -31481379.97049 -24515683.78649  17259516.9824   17259522.6014
  20001279.742    -5438609.75349  -4218524.90049  20001280.8804   20001288.7244
  19619915.744   -20882228.30049 -16234139.13549  19619915.9324   19619923.8174
  17903217.991   -21658431.39549 -16857544.68249  17903218.7634   17903224.9814
  20744019.326   -16955255.98549 -13182572.28449  20744018.3354   20744026.1594
  18178270.122   -32532365.32349 -25317551.66849  18178272.1154   18178277.6514
  20602637.285   -25312476.189 9 -19709606.896 9  20602625.993    20602632.557
  18473357.383   -33476296.96549 -26055883.45449  18473357.7144   18473363.5594
 95  3 22 18 55 59.9890000  0  8 19 29  2 18 16 27 28 31
  17248311.226   -31540260.33149 -24561564.59849  17248312.5244   17248317.9054
  20008706.948    -5399564.95349  -4188100.46249  20008711.2744   20008718.4824
  19594527.936   -21015645.16149 -16338100.27249  19594527.8334   19594535.0404
  17904967.698   -21649237.37449 -16850380.54749  17904968.3464   17904974.6614
  20728403.411   -17037312.34349 -13246512.32149  20728403.2584   20728411.7594
  18155687.605   -32651040.54349 -25410025.85449  18155688.8774   18155694.4544
  20602608.064   -25312521.448 9 -19709642.199 9  20602617.416    20602623.575
  18461224.041   -33540046.05149 -26105558.07149  18461226.8294   18461232.5994
 95  3 22 18 56 29.9890000  0  8 19 29  2 18 16 27 28 31
  17237141.081   -31598959.69649 -24607304.37049  17237142.5584   17237147.9604
  20016174.208    -5360349.94749  -4157543.39749  20016173.5574   20016181.4354
  19569184.903   -21148818.37949 -16441871.56149  19569185.1664   19569193.0894
  17906788.918   -21639666.44049 -16842922.70949  17906790.1974   17906795.7284
  20712882.260   -17118875.11249 -13310067.74549  20712882.0654   20712890.3484
  18133133.807   -32769562.26449 -25502380.43149  18133134.8704   18133140.2214
  20602683.119   -25312130.427 9 -19709337.532 9  20602691.770    20602698.453
  18449207.412   -33603214.07049 -26154779.90549  18449206.3004   18449212.5234
 95  3 22 18 56 59.9890000  0  8 19 29  2 18 16 27 28 31
  17226008.823   -31657462.02049 -24652890.61749  17226009.9474   17226015.2814
  20023670.306    -5320951.39349  -4126843.29749  20023671.0584   20023678.5724
  19543892.469   -21281737.59849 -16545444.92049  19543892.3264   19543899.1224
  17908686.367   -21629698.18549 -16835155.27149  17908687.0504   17908692.6354
  20697456.950   -17199924.30249 -13373222.97849  20697459.3094   20697467.3144
  18110610.108   -32887926.13749 -25594612.01049  18110610.9364   18110616.3874
  20602843.801   -25311298.940 9 -19708689.648 9  20602849.912    20602856.800
  18437299.055   -33665781.67049 -26203533.88549  18437300.4984   18437306.2704
 95  3 22 18 57 29.9890000  0  8 19 29  2 18 16 27 28 31
  17214917.094   -31715752.48849 -24698311.77249  17214917.6504   17214923.1414
  20031205.174    -5281364.70049  -4095996.60749  20031204.3654   20031211.6154
  19518647.350   -21414404.31549 -16648821.54249  19518646.4604   19518653.4904
  17910659.630   -21619329.48449 -16827075.79849  17910659.7354   17910665.5064
  20682131.754   -17280448.89449 -13435969.43849  20682135.9424   20682143.9414
  18088113.567   -33006141.92749 -25686728.19849  18088115.2174   18088120.7374
  20603095.109   -25310030.775 9 -19707701.506 9  20603091.494    20603098.118
  18425509.319   -33727735.03549 -26251809.24149  18425511.1764   18425517.1024
 95  3 22 18 57 59.9890000  0  8 19 29  2 18 16 27 28 31
  17203866.943   -31773814.54849 -24743554.95149  17203868.4754   17203874.1034
  20038774.037    -5241585.98049  -4065000.28249  20038774.9394   20038781.6804
  19493448.725   -21546815.16349 -16751998.78449  19493449.4334   19493456.7394
  17912710.556   -21608554.37149 -16818679.64149  17912710.2364   17912716.1384
  20666909.253   -17360462.87149 -13498318.01249  20666909.8754   20666917.8614
  18065645.731   -33124220.67949 -25778737.60849  18065645.6204   18065651.1834
  20603416.360   -25308326.891 9 -19706373.833 9  20603415.544    20603422.397
  18413839.164   -33789065.75349 -26299599.41749  18413840.3054   18413846.1104
 95  3 22 18 58 29.9890000  0  8 19 29  2 18 16 27 28 31
  17192863.229   -31831642.38649 -24788615.61349  17192864.3194   17192870.1044
  20046382.638    -5201609.58249  -4033849.92549  20046382.6274   20046389.2004
  19468295.971   -21678992.73749 -16854994.26749  19468296.4574   19468303.8294
  17914840.460   -21597358.34849 -16809955.50049  17914840.8394   17914846.9134
  20651781.287   -17439965.96549 -13560268.50149  20651781.2584   20651788.5474
  18043198.748   -33242177.71549 -25870652.16849  18043199.1254   18043204.8204
  20603811.547   -25306191.356 9 -19704709.802 9  20603822.071    20603828.097
  18402285.791   -33849785.95349 -26346913.85749  18402286.0364   18402291.4224
 95  3 22 18 58 59.9890000  0  8 19 29  2 18 16 27 28 31
  17181903.626   -31889237.57449 -24833494.98949  17181904.4544   17181909.9904
  20054030.019    -5161424.97349  -4002537.32449  20054029.1834   20054035.7114
  19443185.255   -21810949.45149 -16957817.64849  19443186.2174   19443193.9064
  17917050.186   -21585742.89749 -16800904.53349  17917051.3174   17917057.2574
  20636750.942   -17518945.74049 -13621811.22349  20636751.3494   20636758.6224
  18020772.248   -33360022.88049 -25962479.56049  18020774.0184   18020779.6624
  20604313.564   -25303624.744 9 -19702709.866 9  20604310.220    20604317.264
  18390846.425   -33909899.02449 -26393755.21249  18390846.8014   18390852.3544
 95  3 22 18 59 29.9890000  0  8 19 29  2 18 16 27 28 31
  17170984.327   -31946610.41949 -24878201.11449  17170986.6234   17170992.3144
  20061714.165    -5121034.93149  -3971064.66449  20061715.4084   20061721.9824
  19418116.887   -21942685.05549 -17060468.74449  19418117.3834   19418124.6844
  17919338.442   -21573716.43249 -16791533.30249  17919339.7934   17919345.9484
  20621816.763   -17597412.68849 -13682954.33449  20621819.5724   20621827.2744
  17998373.217   -33477736.64849 -26054204.55949  17998374.0124   17998379.3544
  20604891.480   -25300623.892 9 -19700371.569 9  20604881.129    20604888.362
  18379519.781   -33969416.14049 -26440132.18149  18379521.0094   18379526.3294
 95  3 22 18 59 59.9890000  0  8 19 29  2 18 16 27 28 31
  17160107.460   -32003777.40049 -24922746.82549  17160108.3074   17160113.7174
  20069438.604    -5080453.95749  -3939443.21449  20069438.0464   20069443.8814
  19393088.830   -22074212.78449 -17162957.86049  19393088.8714   19393095.7764
  17921704.407   -21561290.18749 -16781850.55149  17921704.6154   17921710.3684
  20606982.231   -17675374.52249 -13743703.85049  20606983.9534   20606992.1954
  17975997.160   -33595318.93149 -26145827.10849  17975998.7684   17976004.3374
  20605536.455   -25297192.432 9 -19697697.749 9  20605533.962    20605541.627
  18368302.962   -34028356.83249 -26486059.99249  18368304.4814   18368309.9254
 95  3 22 19  0 29.9890000  0  8 19 29  2 18 16 27 28 31
  17149268.249   -32060738.77049 -24967132.31649  17149269.0254   17149274.4034
  20077193.897    -5039681.40749  -3907672.47349  20077196.8264   20077203.3134
  19368097.713   -22205535.32549 -17265287.09049  19368099.0994   19368105.5474
  17924143.762   -21548465.46649 -16771857.29549  17924144.9464   17924151.2484
  20592244.476   -17752826.76149 -13804056.25849  20592244.8254   20592253.2884
  17953650.469   -33712756.06549 -26237336.55349  17953651.2514   17953656.6624
  20606262.436   -25293327.466 9 -19694686.133 9  20606269.649    20606276.536
  18357198.686   -34086716.76049 -26531535.25649  18357199.0844   18357204.4194
 95  3 22 19  0 59.9890000  0  8 19 29  2 18 16 27 28 31
  17138470.082   -32117480.67449 -25011346.80049  17138471.2624   17138476.7794
  20084992.438    -4998708.58249  -3875745.68049  20084993.8034   20084999.9634
  19343148.487   -22336645.24549 -17367450.63949  19343149.7694   19343157.1394
  17926658.357   -21535253.39349 -16761562.20949  17926659.2644   17926665.3264
  20577600.604   -17829781.87649 -13864021.31449  20577601.5144   20577608.7344
  17931335.041   -33830023.12849 -26328713.47749  17931335.7764   17931341.6994
  20607085.709   -25289030.234 9 -19691337.677 9  20607087.610    20607094.579
  18346205.548   -34144490.65349 -26576553.86349  18346205.4384   18346210.8064
 95  3 22 19  1 29.9890000  0  8 19 29  2 18 16 27 28 31
  17127718.510   -32173984.39849 -25055375.68849  17127718.8584   17127724.5524
  20092825.304    -4957544.14149  -3843669.59249  20092826.0444   20092833.2224
  19318238.202   -22467546.33549 -17469451.46749  19318240.0574   19318247.0264
  17929244.078   -21521662.52349 -16750971.95549  17929245.4394   17929251.4164
  20563049.721   -17906243.74749 -13923602.00549  20563050.9484   20563058.4714
  17909050.724   -33947119.80849 -26419957.63549  17909053.1994   17909058.8124
  20607984.824   -25284303.810 9 -19687654.778 9  20607986.994    20607993.719
  18335321.899   -34201687.75849 -26621123.01749  18335320.9274   18335326.5804
 95  3 22 19  1 59.9880000  0  8 19 29  2 18 16 27 28 31
  17117011.402   -32230244.54749 -25099214.77449  17117012.9434   17117018.5784
  20100692.580    -4916202.55549  -3811455.46849  20100693.2874   20100700.5424
  19293371.069   -22598234.45249 -17571286.34349  19293370.8904   19293378.2774
  17931902.407   -21507694.84849 -16740088.09049  17931903.6164   17931909.7574
  20548598.751   -17982203.78349 -13982791.65549  20548596.3514   20548604.4854
  17886800.175   -34064052.02149 -26511073.63949  17886801.6934   17886807.4004
  20608961.501   -25279155.870 9 -19683643.435 9  20608966.845    20608973.402
  18324545.865   -34258306.28049 -26665241.33749  18324546.7314   18324552.4084
 95  3 22 19  2 29.9880000  0  8 19 29  2 18 16 27 28 31
  17106352.120   -32286261.32149 -25142864.21849  17106353.2884   17106358.8204
  20108593.367    -4874685.57849  -3779104.66649  20108593.3564   20108600.9284
  19268541.937   -22728700.64649 -17672948.28249  19268544.0114   19268550.7664
  17934632.533   -21493348.59949 -16728909.23649  17934633.5274   17934639.3064
  20534237.435   -18057671.38849 -14041597.60149  20534235.9084   20534243.7024
  17864579.741   -34180825.41849 -26602065.88749  17864580.6054   17864586.3284
  20610019.967   -25273595.579 9 -19679310.777 9  20610024.707    20610031.539
  18313883.650   -34314342.44849 -26708905.87249  18313883.5254   18313888.8954
 95  3 22 19  2 59.9880000  0  8 19 29  2 18 16 27 28 31
  17095741.959   -32342024.47149 -25186316.03349  17095741.9944   17095747.4134
  20116523.496    -4832996.46149  -3746619.71749  20116526.7514   20116534.7884
  19243762.003   -22858925.79949 -17774422.40849  19243763.0294   19243770.0554
  17937434.581   -21478625.26649 -16717436.55049  17937435.8074   17937441.5874
  20519971.755   -18132621.11949 -14099999.99849  20519973.2004   20519981.0804
  17842387.639   -34297443.92549 -26692937.44649  17842388.6104   17842394.3514
  20611162.102   -25267627.857 9 -19674660.631 9  20611159.818    20611166.976
  18303330.533   -34369792.28449 -26752113.52149  18303331.8864   18303337.4634
 95  3 22 19  3 29.9880000  0  8 19 29  2 18 16 27 28 31
  17085174.405   -32397548.06049 -25229581.17549  17085176.2134   17085181.7904
  20124486.593    -4791151.37849  -3714013.26249  20124489.8464   20124497.8344
  19219028.512   -22988905.02349 -17875704.88749  19219028.9654   19219035.7014
  17940310.255   -21463514.29449 -16705661.80249  17940311.3334   17940317.0384
  20505813.881   -18207029.70049 -14157980.72949  20505814.1894   20505821.5544
  17820222.395   -34413926.07849 -26783702.75349  17820222.9344   17820228.7144
  20612378.968   -25261257.259 9 -19669696.558 9  20612373.132    20612379.342
  18292893.186   -34424647.09949 -26794857.52149  18292893.3434   18292898.7664
 95  3 22 19  3 59.9880000  0  8 19 29  2 18 16 27 28 31
  17074653.611   -32452837.22349 -25272663.64849  17074654.9784   17074660.8754
  20132481.607    -4749142.57149  -3681279.20849  20132483.7394   20132491.7134
  19194345.365   -23118611.89649 -17976775.14849  19194346.2274   19194353.0284
  17943262.306   -21448000.15449 -16693572.90149  17943263.2124   17943269.0794
  20491759.089   -18280896.15649 -14215539.03849  20491757.5454   20491765.3714
  17798084.192   -34530260.48449 -26874352.93449  17798085.3124   17798090.6024
  20613662.532   -25254483.779 9 -19664418.540 9  20613661.849    20613668.164
  18282572.531   -34478869.35249 -26837108.62249  18282574.9184   18282580.8314
 95  3 22 19  4 29.9880000  0  8 19 29  2 18 16 27 28 31
  17064176.585   -32507892.83449 -25315564.13349  17064178.3154   17064184.0624
  20140508.217    -4706969.82549  -3648417.42149  20140508.8474   20140516.8914
  19169715.847   -23248040.98649 -18077628.95249  19169716.2264   19169723.7514
  17946292.810   -21432079.68949 -16681167.37749  17946292.9814   17946298.9534
  20477804.990   -18354221.78049 -14272675.91149  20477804.1374   20477812.2164
  17775976.152   -34646442.28249 -26964884.19949  17775976.6054   17775982.2054
  20615017.616   -25247306.545 9 -19658825.913 9  20615027.617    20615034.497
  18272380.387   -34532445.80349 -26878856.49949  18272379.5734   18272385.3614
 95  3 22 19  4 59.9880000  0  8 19 29  2 18 16 27 28 31
  17053742.924   -32562719.24149 -25358286.01649  17053745.2884   17053751.1394
  20148561.911    -4664649.41149  -3615440.58149  20148563.4374   20148570.3674
  19145134.692   -23377217.10049 -18178285.62049  19145135.1784   19145142.3144
  17949397.081   -21415762.33949 -16668452.59949  17949398.1644   17949403.5904
  20463952.575   -18427010.81249 -14329394.65849  20463952.7394   20463961.0454
  17753893.834   -34762479.96949 -27055303.16849  17753895.2424   17753900.7714
  20616472.095   -25239727.966 9 -19652920.554 9  20616469.560    20616476.602
  18262303.570   -34585388.64149 -26920110.65349  18262305.0104   18262310.7794
 95  3 22 19  5 29.9880000  0  8 19 29  2 18 16 27 28 31
  17043353.428   -32617323.25449 -25400834.60649  17043354.2254   17043359.9854
  20156642.714    -4622186.44549  -3582352.65449  20156643.2494   20156650.5094
  19120600.493   -23506148.63249 -18278751.71249  19120600.2724   19120607.5674
  17952578.413   -21399044.58849 -16655425.81849  17952579.2284   17952584.9434
  20450199.589   -18499283.97449 -14385711.42949  20450199.7844   20450208.0374
  17731844.392   -34878351.99649 -27145593.05149  17731845.6054   17731851.4634
  20617981.000   -25231743.308 9 -19646698.766 9  20617989.077    20617996.297
  18252349.993   -34637705.05049 -26960876.68549  18252349.3954   18252355.1944
 95  3 22 19  5 59.9880000  0  8 19 29  2 18 16 27 28 31
  17033005.524   -32671700.31649 -25443206.34849  17033006.5634   17033012.4924
  20164751.362    -4579582.56449  -3549154.91049  20164751.3964   20164757.4194
  19096107.296   -23634853.28949 -18379041.01649  19096108.2744   19096115.9214
  17955831.698   -21381949.83249 -16642105.27349  17955832.3234   17955838.1244
  20436539.983   -18571061.62549 -14441642.08149  20436540.2114   20436549.1634
  17709825.154   -34994061.48049 -27235756.28049  17709826.8174   17709832.4104
  20619588.347   -25223357.749 9 -19640164.602 9  20619584.819    20619591.522
  18242505.983   -34689417.68649 -27001172.24749  18242508.9424   18242514.8344
 95  3 22 19  6 29.9880000  0  8 19 29  2 18 16 27 28 31
  17022698.395   -32725862.47349 -25485410.63749  17022699.7604   17022705.5474
  20172882.885    -4536848.56749  -3515855.78949  20172883.6504   20172889.1494
  19071653.318   -23763371.04749 -18479184.68349  19071652.4004   19071659.7844
  17959150.822   -21364507.02949 -16628513.52049  17959151.7714   17959157.0764
  20422972.000   -18642358.88949 -14497198.40949  20422973.5704   20422981.9384
  17687833.405   -35109632.25349 -27325811.42449  17687834.4954   17687840.0944
  20621254.251   -25214582.158 9 -19633326.514 9  20621254.403    20621261.977
  18232774.308   -34740577.44649 -27041036.99549  18232773.5234   18232779.2994
 95  3 22 19  6 59.9880000  0  8 19 29  2 18 16 27 28 31
  17012432.144   -32779813.46649 -25527450.38249  17012433.6494   17012439.3404
  20181044.072    -4493968.55249  -3482442.87949  20181043.7394   20181048.9624
  19047230.470   -23891704.82849 -18579184.99749  19047230.6764   19047238.3534
  17962536.314   -21346719.64349 -16614653.25849  17962536.5814   17962542.5304
  20409498.767   -18713174.93349 -14552379.76049  20409497.4764   20409505.7754
  17665865.988   -35225071.69549 -27415764.22949  17665866.9044   17665872.4694
  20622999.503   -25205420.722 9 -19626187.778 9  20622998.946    20623005.254
  18223138.554   -34791199.49049 -27080482.74449  18223140.1694   18223145.9404
 95  3 22 19  7 29.9880000  0  8 19 29  2 18 16 27 28 31
  17002205.845   -32833553.89449 -25569326.05249  17002207.2094   17002212.9464
  20189234.216    -4450923.34249  -3448901.25149  20189235.1474   20189240.4224
  19022846.694   -24019846.60949 -18679035.70149  19022846.7164   19022853.9224
  17965983.923   -21328596.25249 -16600531.17749  17965985.1424   17965991.3694
  20396110.280   -18783514.29849 -14607189.69449  20396112.9344   20396120.4434
  17643923.724   -35340380.28549 -27505615.07649  17643924.7564   17643930.3934
  20624824.545   -25195880.920 9 -19618754.220 9  20624813.264    20624820.666
  18213609.782   -34841285.10549 -27119510.50049  18213609.4794   18213615.2124
 95  3 22 19  7 59.9880000  0  8 19 29  2 18 16 27 28 31
  16992021.274   -32887076.55649 -25611032.03449  16992022.0804   16992027.7684
  20197456.295    -4407706.33449  -3415225.76649  20197458.9634   20197464.1534
  18998498.761   -24147788.93449 -18778730.96649  18998499.8684   18998507.2444
  17969496.310   -21310138.77649 -16586148.76949  17969497.4234   17969504.0904
  20382818.649   -18853373.47349 -14661625.44149  20382818.6144   20382827.1294
  17622002.792   -35455572.61149 -27595375.32349  17622004.1714   17622009.9324
  20626695.561   -25185965.315 9 -19611027.825 9  20626700.470    20626708.088
  18204182.766   -34890820.88649 -27158109.81249  18204183.1084   18204189.3044
 95  3 22 19  8 29.9880000  0  8 19 29  2 18 16 27 28 31
  16981876.391   -32940385.13949 -25652571.19949  16981877.6414   16981883.4434
  20205716.697    -4364313.37149  -3381413.18349  20205716.2434   20205721.5654
  18974195.160   -24275511.14449 -18878254.73149  18974194.6634   18974202.1994
  17973075.307   -21291328.84349 -16571491.72549  17973077.1414   17973083.4824
  20369615.951   -18922745.00649 -14715681.20749  20369617.7214   20369626.3004
  17600107.652   -35570635.66449 -27685034.84149  17600108.4504   17600113.8134
  20628650.922   -25175668.692 9 -19603004.545 9  20628659.668    20628667.192
  18194864.562   -34939783.94549 -27196262.84849  18194866.1274   18194871.8834
 95  3 22 19  8 59.9880000  0  8 19 29  2 18 16 27 28 31
  16971775.744   -32993467.42249 -25693934.02749  16971776.7084   16971782.2484
  20214007.352    -4320734.94649  -3347456.05949  20214008.5694   20214014.7104
  18949936.737   -24402985.56749 -18977585.40049  18949937.3854   18949945.0034
  17976725.234   -21272152.73949 -16556549.34949  17976726.2504   17976732.2964
  20356511.105   -18991614.59649 -14769345.85449  20356512.0264   20356520.3874
  17578241.052   -35685545.20149 -27774574.73449  17578241.7604   17578247.3764
  20630688.804   -25164984.290 9 -19594679.093 9  20630692.688    20630700.622
  18185661.881   -34988142.77349 -27233945.06549  18185663.5454   18185669.2274
 95  3 22 19  9 29.9880000  0  8 19 29  2 18 16 27 28 31
  16961720.234   -33046308.53149 -25735108.93049  16961721.5244   16961726.8914
  20222333.875    -4276978.60849  -3313360.29949  20222334.6424   20222341.1944
  18925727.076   -24530201.50149 -19076714.66349  18925729.3774   18925736.0284
  17980444.022   -21252610.94549 -16541322.02049  17980445.0174   17980450.8194
  20343499.901   -19059975.58349 -14822614.18349  20343503.8184   20343512.0564
  17556406.068   -35800284.26049 -27863981.79049  17556407.4674   17556413.0334
  20632806.493   -25153904.804 9 -19586045.783 9  20632801.778    20632808.462
  18176580.652   -35035876.03049 -27271139.82149  18176580.1424   18176585.5654
 95  3 22 19  9 59.9880000  0  8 19 29  2 18 16 27 28 31
  16951707.533   -33098919.15749 -25776104.23849  16951709.7014   16951715.2244
  20230691.592    -4233064.77449  -3279141.82049  20230691.1024   20230698.0714
  18901568.469   -24657163.45349 -19175646.01849  18901569.5714   18901576.0734
  17984234.625   -21232698.51249 -16525805.88449  17984234.1614   17984240.1814
  20330592.315   -19127821.89649 -14875481.46849  20330593.0624   20330600.8854
  17534605.585   -35914850.66449 -27953254.30849  17534606.3094   17534611.9664
  20634988.028   -25142435.187 9 -19577108.462 9  20634984.410    20634991.272
  18167615.416   -35082981.70649 -27307845.54849  18167615.9974   18167621.4794
 95  3 22 19 10 29.9880000  0  8 19 29  2 18 16 27 28 31
  16941738.645   -33151312.80949 -25816930.47449  16941739.4224   16941745.1144
  20239075.297    -4189001.29249  -3244806.74349  20239075.8134   20239083.5594
  18877455.084   -24783881.14649 -19274387.03349  18877455.6474   18877463.0364
  17988090.587   -21212426.47049 -16510009.53549  17988091.8294   17988097.7174
  20317778.197   -19195154.13849 -14927948.16649  20317779.8714   20317787.8024
  17512835.882   -36029245.89349 -28042393.44249  17512837.7594   17512843.0844
  20637246.081   -25130584.787 9 -19567874.400 9  20637238.895    20637244.536
  18158767.959   -35129471.98249 -27344071.74449  18158769.5734   18158775.2534
 95  3 22 19 10 59.9880000  0  8 19 29  2 18 16 27 28 31
  16931812.984   -33203473.50349 -25857575.18349  16931813.8474   16931819.4914
  20247484.699    -4144790.45749  -3210356.83949  20247488.7464   20247497.5554
  18853389.136   -24910349.94649 -19372934.09649  18853389.0954   18853396.3094
  17992016.337   -21191799.14049 -16493936.33149  17992017.1994   17992023.4284
  20305063.369   -19261973.67949 -14980015.35949  20305064.7124   20305072.6884
  17491102.480   -36143460.75649 -28131392.03049  17491103.3734   17491108.8774
  20639558.542   -25118355.038 9 -19558344.718 9  20639566.702    20639572.519
  18150038.219   -35175350.12649 -27379820.95549  18150038.9694   18150044.9884
 95  3 22 19 11 29.9880000  0  8 19 29  2 18 16 27 28 31
  16921933.267   -33255391.33549 -25898030.65749  16921934.3734   16921939.7074
  20255924.926    -4100448.80449  -3175805.02549  20255927.0854   20255935.6134
  18829369.145   -25036570.11549 -19471287.44649  18829370.3084   18829377.0804
  17996009.231   -21170814.16249 -16477584.45249  17996010.5784   17996016.8684
  20292442.951   -19328282.77049 -15031684.80949  20292445.7864   20292454.0294
  17469403.690   -36257487.46949 -28220244.00649  17469404.7034   17469410.1854
  20641966.331   -25105746.237 9 -19548519.683 9  20641965.837    20641973.003
  18141424.367   -35220619.97549 -27415096.17549  18141424.1434   18141430.5554
 95  3 22 19 11 59.9880000  0  8 19 29  2 18 16 27 28 31
  16912101.687   -33307058.82549 -25938291.05449  16912102.2544   16912107.9204
  20264389.802    -4055975.94649  -3141150.94249  20264390.3124   20264398.8114
  18805398.207   -25162540.36349 -19569446.03549  18805398.9834   18805405.7784
  18000071.592   -21149470.48449 -16460953.05949  18000071.9704   18000078.4194
  20279921.559   -19394084.58549 -15082958.97049  20279924.9494   20279932.1634
  17447741.669   -36371322.78049 -28308946.83849  17447742.8044   17447748.1744
  20644443.964   -25092755.380 9 -19538396.933 9  20644438.539    20644445.523
  18132923.931   -35265285.47149 -27449900.46849  18132924.6224   18132930.7434
 95  3 22 19 12 29.9880000  0  8 19 29  2 18 16 27 28 31
  16902319.206   -33358463.04049 -25978346.30149  16902320.4104   16902326.0674
  20272876.965    -4011374.47049  -3106396.65149  20272878.1024   20272885.6574
  18781473.030   -25288264.35249 -19667412.75149  18781474.0944   18781481.0644
  18004196.162   -21127794.28449 -16444062.55849  18004196.7254   18004203.0514
  20267497.758   -19459390.62849 -15133846.83549  20267496.9764   20267505.1644
  17426115.681   -36484970.65549 -28397503.62049  17426116.1354   17426121.2844
  20646980.379   -25079387.729 9 -19527980.613 9  20646981.560    20646988.643
  18124537.131   -35309352.78449 -27484238.63949  18124539.3544   18124544.8784
 95  3 22 19 12 59.9880000  0  8 19 29  2 18 16 27 28 31
  16892588.246   -33409602.55949 -26018195.29149  16892588.7914   16892594.4794
  20281386.926    -3966655.28149  -3071550.62049  20281387.7924   20281396.0124
  18757592.127   -25413761.63649 -19765202.80649  18757593.0164   18757599.8424
  18008382.480   -21105798.42749 -16426922.97449  18008382.6644   18008388.7564
  20255162.274   -19524207.22949 -15184353.30949  20255163.4474   20255170.7804
  17404521.352   -36598445.79649 -28485925.80449  17404522.7034   17404527.8794
  20649594.340   -25065655.147 9 -19517279.986 9  20649593.890    20649602.313
  18116262.857   -35352834.71749 -27518120.66849  18116264.6594   18116271.0284
 95  3 22 19 13 29.9880000  0  8 19 29  2 18 16 27 28 31
  16882905.448   -33460483.86049 -26057843.06949  16882906.5074   16882912.2524
  20289917.239    -3921819.67049  -3036613.88849  20289919.8054   20289928.3054
  18733751.685   -25539047.88049 -19862828.41949  18733752.0794   18733759.1844
  18012627.672   -21083484.06649 -16409535.21549  18012629.0784   18012635.1044
  20242922.390   -19588527.99749 -15234473.42749  20242923.5644   20242932.1554
  17382957.501   -36711764.71249 -28574226.24749  17382958.6104   17382963.8044
  20652270.101   -25051564.534 9 -19506300.339 9  20652276.762    20652283.717
  18108098.639   -35395736.97249 -27551550.99749  18108100.6124   18108107.2064
 95  3 22 19 13 59.9880000  0  8 19 29  2 18 16 27 28 31
  16873268.864   -33511120.71849 -26097300.37849  16873270.3784   16873276.1204
  20298475.987    -3876853.26349  -3001575.25749  20298477.4124   20298484.7094
  18709948.765   -25664123.38949 -19960289.82349  18709950.7474   18709957.4224
  18016937.157   -21060839.88949 -16391890.45349  18016938.2614   18016943.6794
  20230779.126   -19652337.29149 -15284194.97349  20230780.9014   20230789.8364
  17361420.322   -36824944.57849 -28662418.33949  17361421.0814   17361426.5924
  20655025.390   -25037116.405 9 -19495042.120 9  20655026.204    20655032.710
  18100047.810   -35438055.60249 -27584526.56349  18100047.7694   18100054.2304
 95  3 22 19 14 29.9870000  0  8 19 29  2 18 16 27 28 31
  16863678.608   -33561514.36549 -26136568.16849  16863680.8184   16863686.7084
  20307056.781    -3831755.67649  -2966434.38949  20307059.3104   20307066.5784
  18686192.121   -25788975.08149 -20057576.83949  18686192.3684   18686198.9874
  18021314.266   -21037839.19249 -16373967.87549  18021315.0284   18021321.0064
  20218739.735   -19715621.22749 -15333507.16749  20218739.0474   20218747.0504
  17339907.775   -36937989.36349 -28750505.17649  17339909.3444   17339914.7694
  20657846.980   -25022310.352 9 -19483504.984 9  20657843.776    20657850.522
  18092106.875   -35479777.20749 -27617036.90949  18092108.6294   18092114.8324
 95  3 22 19 14 59.9870000  0  8 19 29  2 18 16 27 28 31
  16854134.520   -33611676.76949 -26175655.76649  16854135.4684   16854141.2514
  20315665.465    -3786527.92449  -2931192.08949  20315665.7184   20315673.7034
  18662476.578   -25913593.42749 -20154682.01049  18662478.0174   18662485.0834
  18025765.058   -21014449.63449 -16355742.28949  18025765.7584   18025772.1264
  20206796.925   -19778385.20149 -15382414.20349  20206795.2384   20206802.8344
  17318421.732   -37050900.04149 -28838487.51949  17318423.1734   17318428.8534
  20660734.197   -25007142.051 9 -19471685.564 9  20660730.557    20660736.289
  18084283.226   -35520903.45149 -27649083.33749  18084282.6124   18084288.3774
 95  3 22 19 15 29.9870000  0  8 19 29  2 18 16 27 28 31
  16844631.195   -33661618.53649 -26214571.44249  16844631.6944   16844637.5314
  20324294.603    -3741188.78149  -2895863.01549  20324294.6364   20324301.1564
  18638813.066   -26037952.68149 -20251585.30449  18638813.5994   18638819.7624
  18030288.993   -20990673.14849 -16337215.20349  18030290.3574   18030296.6134
  20194949.596   -19840635.37949 -15430920.86249  20194949.2614   20194957.2674
  17296966.653   -37163651.27749 -28926345.61949  17296967.4774   17296972.8134
  20663679.759   -24991612.062 9 -19459584.313 9  20663685.291    20663692.094
  18076567.695   -35561437.29849 -27680668.15949  18076569.0624   18076574.9424
 95  3 22 19 15 59.9870000  0  8 19 29  2 18 16 27 28 31
  16835170.147   -33711338.37749 -26253314.19249  16835170.7434   16835176.2494
  20332943.138    -3695739.30049  -2860447.95149  20332943.2324   20332949.7854
  18615198.267   -26162049.21049 -20348283.86949  18615198.7464   18615205.4854
  18034883.904   -20966526.27049 -16318399.49649  18034885.4304   18034891.5424
  20183199.642   -19902373.12849 -15479028.23349  20183201.6374   20183209.1624
  17275542.922   -37276231.93349 -29014070.80249  17275544.2964   17275549.7364
  20666709.996   -24975719.920 9 -19447200.841 9  20666709.579    20666715.845
  18068968.556   -35601379.29749 -27711791.79949  18068968.3814   18068974.8254
 95  3 22 19 16 29.9870000  0  8 19 29  2 18 16 27 28 31
  16825753.317   -33760816.39349 -26291868.51049  16825755.3084   16825760.8104
  20341609.877    -3650189.63849  -2824954.84149  20341611.3254   20341617.5374
  18591633.957   -26285877.25749 -20444773.23049  18591634.9794   18591641.9414
  18039546.298   -20942031.48849 -16299312.69749  18039546.7874   18039553.1314
  20171547.878   -19963612.32049 -15526747.12649  20171548.1724   20171556.0494
  17254157.002   -37388613.02349 -29101640.48049  17254158.6254   17254164.2144
  20669803.999   -24959466.401 9 -19434535.791 9  20669802.835    20669809.408
  18061479.731   -35640737.00149 -27742460.14849  18061478.6854   18061484.9844
 95  3 22 19 16 59.9870000  0  8 19 29  2 18 16 27 28 31
  16816386.256   -33810044.00549 -26330227.70549  16816387.3584   16816393.2384
  20350297.933    -3604539.57249  -2789383.49249  20350298.2924   20350304.3344
  18568120.146   -26409444.15649 -20541059.09349  18568120.6434   18568127.7044
  18044267.101   -20917220.51149 -16279979.52049  18044268.2484   18044274.6574
  20159989.756   -20024352.96449 -15574077.54549  20159989.7734   20159997.7254
  17232814.775   -37500770.17149 -29189035.66149  17232815.8204   17232821.5504
  20672957.571   -24942854.771 9 -19421591.699 9  20672963.868    20672970.292
  18054095.035   -35679530.63549 -27772688.95949  18054096.8854   18054102.9344
 95  3 22 19 17 29.9870000  0  8 19 29  2 18 16 27 28 31
  16807065.155   -33859025.46049 -26368395.08949  16807066.4684   16807072.2654
  20359003.116    -3558790.70049  -2753735.14649  20359003.5244   20359010.5404
  18544651.214   -26532775.78749 -20637161.63749  18544651.6514   18544658.3114
  18049044.318   -20892114.27649 -16260416.27049  18049045.7704   18049051.9674
  20148523.961   -20084598.96749 -15621022.52649  20148525.1554   20148532.7644
  17211513.666   -37612706.04449 -29276258.41449  17211515.1184   17211520.7744
  20676191.076   -24925897.229 9 -19408378.055 9  20676190.948    20676198.080
  18046821.056   -35717765.15949 -27802482.10249  18046821.1814   18046826.9384
 95  3 22 19 17 59.9870000  0  8 19 29  2 18 16 27 28 31
  16797794.947   -33907746.44349 -26406359.50549  16797795.3484   16797800.8914
  20367731.085    -3512928.94749  -2717998.82749  20367730.4834   20367737.2754
  18521227.296   -26655872.91949 -20733081.44949  18521227.0754   18521233.8874
  18053881.158   -20866697.59249 -16240611.11349  18053882.4014   18053888.5694
  20137153.964   -20144348.60649 -15667580.74149  20137155.6904   20137163.0404
  17190254.514   -37724431.84149 -29363317.47749  17190254.3514   17190259.8404
  20679482.153   -24908591.961 9 -19394893.480 9  20679483.902    20679490.513
  18039653.460   -35755427.15449 -27831829.11749  18039654.1004   18039660.5304
 95  3 22 19 18 29.9870000  0  8 19 29  2 18 16 27 28 31
  16788570.286   -33956215.79949 -26444127.85249  16788571.8704   16788577.4034
  20376477.008    -3466958.27949  -2682177.65349  20376478.3824   20376484.8244
  18497848.390   -26778726.93549 -20828811.82149  18497848.2814   18497855.2664
  18058780.007   -20840954.49249 -16220551.60249  18058781.0104   18058786.9484
  20125877.121   -20203615.88949 -15713763.08149  20125877.1654   20125884.4764
  17169031.768   -37835950.20649 -29450214.90249  17169033.2434   17169038.7204
  20682844.403   -24890939.102 9 -19381138.032 9  20682842.585    20682850.310
  18032594.977   -35792512.21649 -27860726.57349  18032597.2354   18032603.2574
 95  3 22 19 18 59.9870000  0  8 19 29  2 18 16 27 28 31
  16779392.854   -34004446.88649 -26481710.53649  16779393.8664   16779399.3394
  20385246.059    -3420869.18249  -2646264.17449  20385248.5464   20385255.6844
  18474514.063   -26901343.46649 -20924357.13949  18474515.1014   18474521.9654
  18063742.687   -20814877.68149 -16200232.05249  18063743.5884   18063749.2524
  20114688.603   -20262399.13949 -15759568.26249  20114690.9744   20114699.0794
  17147846.586   -37947284.49749 -29536968.89849  17147846.9624   17147852.4174
  20686264.188   -24872939.860 9 -19367112.705 9  20686268.105    20686274.360
  18025651.665   -35829005.31649 -27889162.76049  18025652.8764   18025658.4594
 95  3 22 19 19 29.9870000  0  8 19 29  2 18 16 27 28 31
  16770257.107   -34052448.03649 -26519114.04349  16770259.3044   16770265.2644
  20394038.341    -3374666.26349  -2610262.00449  20394040.8534   20394048.4924
  18451228.035   -27023718.14249 -21019714.00149  18451228.0194   18451235.1284
  18068769.450   -20788461.97349 -16179648.43649  18068770.0964   18068776.3824
  20103594.649   -20320705.21449 -15805001.61549  20103595.5314   20103603.7004
  17126691.988   -38058451.31549 -29623592.39149  17126692.5414   17126698.1954
  20689759.701   -24854601.351 9 -19352823.001 9  20689757.322    20689765.341
  18018823.134   -35864891.06449 -27917125.67949  18018823.9094   18018830.0224
 95  3 22 19 19 59.9870000  0  8 19 29  2 18 16 27 28 31
  16761168.592   -34100214.17049 -26556334.41849  16761169.9384   16761175.7554
  20402854.601    -3328349.70349  -2574171.30349  20402853.9264   20402861.9904
  18427984.565   -27145853.85549 -21114884.66149  18427986.3154   18427993.5474
  18073860.834   -20761716.06849 -16158807.52449  18073860.1954   18073865.9334
  20092590.389   -20378529.19549 -15850059.29549  20092592.2194   20092599.8414
  17105566.732   -38169460.36049 -29710092.94749  17105568.4364   17105573.8984
  20693310.103   -24835926.692 9 -19338271.379 9  20693310.963    20693318.065
  18012111.904   -35900161.83449 -27944609.39849  18012112.3914   18012118.4054
 95  3 22 19 20 29.9870000  0  8 19 29  2 18 16 27 28 31
  16752121.953   -34147755.31949 -26593379.48249  16752123.4054   16752128.9784
  20411690.385    -3281917.38149  -2537990.41349  20411689.4404   20411697.7644
  18404788.804   -27267760.76449 -21209877.02449  18404788.2254   18404795.4134
  18079007.930   -20734660.71349 -16137725.47449  18079008.3524   18079014.9094
  20081679.524   -20435865.75749 -15894737.17949  20081681.3444   20081688.9444
  17084472.983   -38280313.19349 -29796471.77749  17084473.5234   17084479.2964
  20696931.281   -24816921.585 9 -19323462.263 9  20696928.003    20696935.442
  18005514.537   -35934825.27049 -27971619.87249  18005515.8434   18005521.7234
 95  3 22 19 20 59.9870000  0  8 19 29  2 18 16 27 28 31
  16743121.381   -34195054.78349 -26630236.22349  16743122.3954   16743128.1014
  20420541.272    -3235365.80149  -2501716.58449  20420548.3354   20420557.3764
  18381634.377   -27389434.84649 -21304687.97149  18381634.8134   18381641.6404
  18084213.151   -20707303.35149 -16116408.10249  18084214.5244   18084221.2264
  20070865.851   -20492682.88049 -15939010.31549  20070868.9554   20070877.5774
  17063409.916   -38390996.45049 -29882718.47349  17063411.3254   17063417.0624
  20700607.166   -24797585.731 9 -19308395.411 9  20700607.240    20700614.687
  17999035.258   -35968881.81249 -27998157.44049  17999035.1734   17999040.7874
 95  3 22 19 21 29.9870000  0  8 19 29  2 18 16 27 28 31
  16734168.862   -34242093.96149 -26666890.14449  16734171.2294   16734176.9874
  20429428.159    -3188681.00349  -2465338.95849  20429432.2754   20429439.8444
  18358527.583   -27510863.42449 -21399307.61449  18358527.7824   18358534.3934
  18089478.971   -20679631.05249 -16094845.32349  18089480.1054   18089487.0364
  20060155.902   -20548965.09149 -15982866.63049  20060158.7804   20060168.0274
  17042384.421   -38501487.29349 -29968815.22549  17042385.6414   17042391.3304
  20704351.617   -24777912.837 9 -19293065.942 9  20704351.746    20704358.217
  17992668.802   -36002334.22649 -28024224.25749  17992669.7234   17992675.1694
 95  3 22 19 21 59.9870000  0  8 19 29  2 18 16 27 28 31
  16725270.145   -34288864.57249 -26703334.78849  16725270.9954   16725276.7964
  20438342.565    -3141862.84749  -2428857.38449  20438342.3934   20438350.2784
  18335466.750   -27632041.99149 -21493732.44849  18335468.0914   18335475.0644
  18094803.189   -20651649.54949 -16073041.60549  18094804.6484   18094811.2774
  20049550.168   -20604713.44649 -16026306.97649  20049550.2354   20049558.8074
  17021395.772   -38611781.77349 -30054758.96849  17021397.3094   17021403.0854
  20708156.297   -24757900.368 9 -19277471.824 9  20708159.173    20708166.922
  17986417.845   -36035195.05949 -28049830.09549  17986416.3954   17986421.8524
 95  3 22 19 22 29.9870000  0  8 19 29  2 18 16 27 28 31
  16716419.530   -34335374.08549 -26739575.98349  16716420.6744   16716426.3854
  20447271.780    -3094929.40749  -2392286.00549  20447272.8234   20447281.5054
  18312454.636   -27752969.67049 -21587961.77849  18312456.1734   18312462.8204
  18100185.097   -20623371.02149 -16051006.44249  18100186.1374   18100192.4564
  20039040.398   -20659945.62949 -16069345.10749  20039040.9064   20039048.6424
  17000446.308   -38721874.02049 -30140545.13149  17000447.6944   17000453.2424
  20712029.463   -24737558.659 9 -19261621.227 9  20712029.878    20712037.662
  17980268.386   -36067493.95949 -28074998.07149  17980270.0934   17980275.6534
 95  3 22 19 22 59.9870000  0  8 19 29  2 18 16 27 28 31
  16707622.571   -34381606.08549 -26775600.93149  16707622.9914   16707628.6824
  20456219.174    -3047891.17249  -2355632.95649  20456224.6544   20456232.8574
  18289492.342   -27873649.06549 -21681997.64549  18289491.7694   18289498.6184
  18105623.461   -20594793.45749 -16028738.26549  18105624.5774   18105630.4794
  20028625.049   -20714676.36249 -16111992.50349  20028625.5544   20028633.5624
  16979536.630   -38831758.94049 -30226169.74049  16979537.2114   16979542.7854
  20715963.631   -24716892.358 9 -19245517.648 9  20715962.806    20715970.253
  17974229.020   -36099238.02749 -28099733.71449  17974229.4154   17974235.2174
 95  3 22 19 23 29.9870000  0  8 19 29  2 18 16 27 28 31
  16698874.830   -34427572.89149 -26811419.22749  16698875.7054   16698881.4284
  20465195.546    -3000751.94549  -2318901.20349  20465195.1714   20465202.9084
  18266574.380   -27994074.85149 -21775835.89449  18266575.3534   18266582.3284
  18111118.713   -20565914.66349 -16006235.35749  18111120.2574   18111126.1294
  20018299.652   -20768934.78749 -16154271.86249  20018301.1574   20018308.7194
  16958664.076   -38941438.69849 -30311634.48349  16958665.6804   16958671.1064
  20719956.598   -24695904.354 9 -19229163.394 9  20719957.072    20719964.344
  17968294.313   -36130431.08749 -28124039.99349  17968293.5444   17968299.2294
 95  3 22 19 23 59.9870000  0  8 19 29  2 18 16 27 28 31
  16690174.493   -34473287.47149 -26847040.98649  16690176.3464   16690182.2094
  20474178.041    -2953532.81249  -2282107.23849  20474180.6634   20474188.9454
  18243708.219   -28114244.04749 -21869474.19549  18243707.6094   18243715.1114
  18116670.401   -20536742.47349 -15983503.83249  18116671.7494   18116677.6814
  20008061.644   -20822731.27349 -16196191.25149  20008062.9904   20008071.5944
  16937831.571   -39050914.68049 -30396940.43949  16937833.2724   16937838.6334
  20724010.924   -24674599.639 9 -19212562.365 9  20724010.737    20724017.568
  17962462.484   -36161068.06149 -28147912.96049  17962463.5864   17962469.3564
 95  3 22 19 24 29.9870000  0  8 19 29  2 18 16 27 28 31
  16681522.461   -34518758.61149 -26882473.05049  16681523.6864   16681529.4554
  20483177.513    -2906233.52249  -2245250.78549  20483181.2384   20483189.6344
  18220886.949   -28234164.43349 -21962918.62149  18220887.5164   18220894.9034
  18122282.581   -20507259.59049 -15960530.20849  18122282.0564   18122288.3764
  19997914.972   -20876059.92049 -16237746.09649  19997914.7884   19997923.5314
  16917039.216   -39160184.66349 -30482085.87449  16917039.9344   16917045.1454
  20728122.338   -24652979.747 9 -19195715.734 9  20728126.105    20728132.883
  17956741.705   -36191137.93249 -28171344.02549  17956741.4204   17956747.0744
 95  3 22 19 24 59.9870000  0  8 19 29  2 18 16 27 28 31
  16672914.177   -34563995.43749 -26917722.52849  16672915.1064   16672921.0794
  20492196.664    -2858854.52549  -2208332.22649  20492197.8034   20492206.2264
  18198116.859   -28353825.95449 -22056161.33549  18198116.8204   18198124.1134
  18127952.434   -20477459.18049 -15937309.16549  18127952.9724   18127959.2744
  19987860.791   -20928907.38449 -16278925.98149  19987858.3874   19987867.2834
  16896283.096   -39269253.01149 -30567074.19649  16896284.8064   16896290.2924
  20732297.414   -24631043.041 9 -19178622.233 9  20732299.246    20732306.341
  17951130.466   -36220618.44649 -28194315.85949  17951131.1004   17951137.0174
 95  3 22 19 25 29.9870000  0  8 19 29  2 18 16 27 28 31
  16664347.785   -34609010.93349 -26952799.54349  16664349.1604   16664355.1634
  20501225.165    -2811409.28049  -2171362.05849  20501226.3434   20501234.2644
  18175393.191   -28473235.85249 -22149207.98649  18175394.0904   18175400.7174
  18133681.646   -20447342.04249 -15913841.31849  18133683.4394   18133689.8734
  19977889.667   -20981273.36849 -16319730.70649  19977893.5464   19977902.6354
  16875566.389   -39378120.53549 -30651906.02549  16875568.0454   16875573.5374
  20736529.143   -24608794.641 9 -19161285.872 9  20736533.255    20736540.695
  17945635.503   -36249503.26149 -28216823.50949  17945634.8004   17945640.5214
 95  3 22 19 25 59.9870000  0  8 19 29  2 18 16 27 28 31
  16655830.732   -34653775.84549 -26987681.30149  16655830.7794   16655836.4694
  20510265.296    -2763900.85749  -2134342.64649  20510267.4664   20510275.4804
  18152716.193   -28592410.37849 -22242071.22649  18152715.6204   18152722.7284
  18139474.548   -20416901.31149 -15890121.32349  18139476.2814   18139482.8524
  19968021.201   -21033144.87549 -16360150.11549  19968023.1134   19968032.0774
  16854889.852   -39486782.47649 -30736577.65949  16854890.4014   16854895.9984
  20740827.483   -24586233.019 9 -19143705.450 9  20740827.480    20740833.978
  17940250.600   -36277790.76449 -28238865.72249  17940252.0224   17940257.4914
 95  3 22 19 26 29.9870000  0  8 19 29  2 18 16 27 28 31
  16647363.555   -34698266.23449 -27022349.14549  16647364.6034   16647370.4334
  20519321.230    -2716326.68149  -2097272.01049  20519320.7204   20519328.8764
  18130081.295   -28711347.77849 -22334749.69049  18130082.8164   18130089.3154
  18145330.687   -20386130.96049 -15866144.48149  18145331.7894   18145338.2154
  19958247.620   -21084510.76249 -16400175.52849  19958249.1304   19958257.1844
  16834252.438   -39595226.17749 -30821079.23349  16834254.3634   16834259.9334
  20745176.662   -24563353.409 9 -19125877.194 9  20745180.742    20745188.276
  17934980.423   -36305487.15649 -28260447.34249  17934981.5494   17934987.4924
 95  3 22 19 26 59.9860000  0  8 19 29  2 18 16 27 28 31
  16638951.860   -34742470.91849 -27056794.36549  16638952.6764   16638958.1974
  20528384.340    -2668694.71149  -2060156.34449  20528385.0444   20528393.2304
  18107495.791   -28830041.83949 -22427238.54549  18107496.0424   18107502.5444
  18151244.159   -20355056.21849 -15841930.44749  18151245.5774   18151251.5694
  19948568.373   -21135382.22149 -16439815.70249  19948568.5304   19948576.3764
  16813659.274   -39703445.31149 -30905405.82349  16813660.8584   16813666.5344
  20749596.844   -24540161.735 9 -19107805.808 9  20749593.922    20749601.501
  17929820.383   -36332602.32349 -28281576.05849  17929821.3714   17929827.4294
 95  3 22 19 27 29.9860000  0  8 19 29  2 18 16 27 28 31
  16630595.563   -34786377.08049 -27091006.96849  16630597.5214   16630603.3494
  20537464.055    -2620987.62349  -2022982.15049  20537463.3264   20537472.0024
  18084952.085   -28948503.83749 -22519546.58249  18084953.2374   18084959.9564
  18157215.612   -20323680.52349 -15817481.91849  18157216.2404   18157222.3564
  19938978.695   -21185776.43149 -16479083.97549  19938978.6454   19938986.4824
  16793108.427   -39811441.73749 -30989558.87649  16793109.8544   16793115.2314
  20754064.643   -24516661.624 9 -19089494.058 9  20754066.040    20754072.322
  17924768.632   -36359159.13549 -28302269.69349  17924768.1164   17924773.8374
 95  3 22 19 27 59.9860000  0  7 19 29  2 18 16 27 31
  16622297.022   -34829989.35849 -27124990.57149  16622298.3354   16622304.2914
  20546555.912    -2573194.42849  -1985740.86349  20546558.3974   20546566.8464
  18062459.793   -29066708.95249 -22611654.43849  18062459.8484   18062466.4014
  18163242.560   -20292004.66149 -15792799.49149  18163244.0084   18163249.9594
  19929482.626   -21235679.76249 -16517969.76049  19929482.8054   19929489.9834
  16772600.088   -39919216.76249 -31073539.40649  16772600.9944   16772606.4404
  17919820.431   -36385152.46849 -28322524.24949  17919821.6594   17919827.4714
 95  3 22 19 28 29.9860000  0  7 19 29  2 18 16 27 31
  16614048.003   -34873333.82449 -27158765.48449  16614050.1774   16614056.0584
  20555666.390    -2525304.00149  -1948423.79949  20555671.8594   20555679.7374
  18040016.864   -29184639.79949 -22703548.59149  18040018.2794   18040025.3784
  18169327.530   -20260031.59049 -15767885.46549  18169328.3514   18169334.5264
  19920079.090   -21285091.78649 -16556472.70849  19920079.6624   19920087.0954
  16752134.211   -40026766.93349 -31157344.72849  16752134.7434   16752140.0574
  17914982.752   -36410570.74049 -28342330.71049  17914984.5734   17914990.3384
 95  3 22 19 28 59.9860000  0  7 19 29  2 18 16 27 31
  16605847.527   -34916428.70149 -27192345.91249  16605849.5284   16605855.4814
  20564806.132    -2477311.13949  -1911026.92749  20564804.5454   20564812.6584
  18017627.208   -29302298.50749 -22795230.68549  18017628.6044   18017635.3994
  18175469.181   -20227762.08549 -15742740.44949  18175468.7764   18175475.1024
  19910770.928   -21334010.65849 -16594591.36749  19910771.1504   19910778.3464
  16731708.662   -40134098.90849 -31240980.02749  16731710.1184   16731715.3924
  17910259.750   -36435409.81049 -28361685.84749  17910257.9044   17910263.9004
 95  3 22 19 29 29.9860000  0  7 19 29  2 18 16 27 31
  16597692.919   -34959289.45949 -27225743.91549  16597693.4964   16597699.2954
  20573950.491    -2429225.26249  -1873557.58349  20573955.7154   20573962.9614
  17995287.465   -29419695.54949 -22886708.88249  17995288.5454   17995295.6274
  18181666.293   -20195188.99149 -15717358.87049  18181666.8234   18181673.7604
  19901555.213   -21382429.88749 -16632320.69249  19901557.1774   19901564.8974
  16711323.226   -40241227.73349 -31324457.02349  16711324.3114   16711329.4844
  17905640.169   -36459677.04349 -28380595.39649  17905640.2774   17905646.0734
 95  3 22 19 29 59.9860000  0  7 19 29  2 18 16 27 31
  16589579.269   -35001924.39049 -27258965.95149  16589580.1444   16589585.9844
  20583121.429    -2381070.86249  -1836034.86449  20583118.7844   20583126.9714
  17972995.857   -29536836.87149 -22977987.82449  17972996.9754   17973004.2104
  18187919.767   -20162323.40149 -15691749.37549  18187920.6954   18187927.9564
  19892438.903   -21430342.81249 -16669655.49549  19892439.6124   19892447.5694
  16690976.166   -40348155.02149 -31407776.98349  16690976.8334   16690982.0624
  17901130.802   -36483367.20849 -28399055.28049  17901132.1324   17901138.2554
 95  3 22 19 30 29.9860000  0  7 19 29  2 18 16 27 31
  16581512.124   -35044318.27149 -27292000.15749  16581512.9654   16581518.8934
  20592296.119    -2332849.49649  -1798459.95149  20592295.6824   20592303.6434
  17950752.527   -29653735.73249 -23069077.83449  17950751.9484   17950759.0654
  18194225.705   -20129183.27049 -15665925.95349  18194227.3384   18194234.1254
  19883414.516   -21477765.96249 -16706608.65649  19883415.5914   19883422.4364
  16670667.043   -40454876.92149 -31490936.90149  16670668.2824   16670673.5884
  17896731.799   -36506494.96449 -28417076.91949  17896730.9914   17896736.7394
 95  3 22 19 30 59.9860000  0  6 19  2 18 16 27 31
  16573493.029   -35086456.28449 -27324834.98149  16573494.6254   16573500.3544
  17928552.228   -29770396.60249 -23159982.38549  17928552.2844   17928559.1984
  18200582.261   -20095780.28649 -15639897.71249  18200584.1114   18200590.8944
  19874482.540   -21524706.76549 -16743185.96949  19874482.7194   19874491.0874
  16650398.090   -40561392.14449 -31573935.76649  16650399.0084   16650404.4074
  17892435.276   -36529072.53349 -28434669.84149  17892434.6244   17892440.3844
 95  3 22 19 31 29.9860000  0  6 19  2 18 16 27 31
  16565526.197   -35128324.35249 -27357459.45949  16565527.4404   16565533.1424
  17906397.812   -29886819.78649 -23250701.72549  17906397.6894   17906404.3834
  18206985.709   -20062130.05449 -15613676.80349  18206988.2794   18206994.1544
  19865639.283   -21571181.13049 -16779399.81349  19865638.6204   19865647.1504
  16630168.695   -40667695.67449 -31656769.67649  16630169.8704   16630175.4204
  17888241.829   -36551100.24749 -28451834.30449  17888242.9814   17888248.7914
 95  3 22 19 31 59.9860000  0  6 19  2 18 16 27 31
  16557609.422   -35169920.95449 -27389872.40749  16557611.6394   16557617.4314
  17884290.945   -30002997.69849 -23341229.95049  17884289.8564   17884296.5534
  18213434.234   -20028248.60849 -15587275.72849  18213435.8784   18213441.6874
  19856879.639   -21617212.10449 -16815268.17449  19856879.9514   19856887.5554
  16609982.943   -40773772.15049 -31739426.65749  16609984.2864   16609989.8914
  17884156.635   -36572571.24449 -28468564.96849  17884157.3274   17884163.3924
 95  3 22 19 32 29.9860000  0  6 19  2 18 16 27 31
  16549747.278   -35211245.15549 -27422073.09349  16549747.9944   16549753.9194
  17862229.345   -30118927.67449 -23431564.97149  17862229.0834   17862235.5284
  18219930.162   -19994116.01549 -15560678.95849  18219930.9104   18219937.1124
  19848204.994   -21662800.17049 -16850791.41349  19848204.7804   19848212.3174
  16589842.396   -40879612.51249 -31821899.66149  16589843.6994   16589849.0804
  17880175.827   -36593486.27849 -28484862.41749  17880177.4434   17880183.5864
 95  3 22 19 32 59.9860000  0  6 19  2 18 16 27 31
  16541934.984   -35252296.42849 -27454061.11349  16541936.2524   16541942.0314
  17840215.816   -30234602.38149 -23521701.07649  17840216.5224   17840223.7704
  18226476.124   -19959718.18149 -15533875.50149  18226476.3864   18226483.0244
  19839616.789   -21707926.61349 -16885954.95049  19839617.0234   19839625.4094
  16569748.337   -40985205.59449 -31904179.97549  16569749.9374   16569755.2624
  17876303.400   -36613840.73249 -28500723.04949  17876303.8124   17876309.9674
 95  3 22 19 33 29.9860000  0  6 19  2 18 16 27 31
  16534173.957   -35293080.93149 -27485841.26249  16534175.1824   16534180.9214
  17818253.875   -30350015.39449 -23611633.26949  17818254.4004   17818261.2044
  18233070.569   -19925059.72049 -15506868.96349  18233071.2404   18233078.5014
  19831116.073   -21752596.32749 -16920762.58249  19831116.1274   19831125.6474
  16549701.306   -41090558.92349 -31986273.47449  16549701.8354   16549707.1564
  17872536.210   -36633637.79249 -28516149.34749  17872536.7594   17872542.0324
 95  3 22 19 33 59.9860000  0  6 19  2 18 16 27 31
  16526461.363   -35333612.85249 -27517424.59349  16526462.1464   16526468.1894
  17796340.990   -30465164.33949 -23701359.69649  17796342.0004   17796348.8594
  18239716.573   -19890133.53049 -15479653.80049  18239717.6694   18239724.1874
  19822705.593   -21796802.60249 -16955209.08949  19822705.2214   19822713.4134
  16529697.121   -41195678.20849 -32068184.59849  16529698.2364   16529703.6664
  17868870.610   -36652889.54649 -28531150.72249  17868873.0664   17868878.7184
 95  3 22 19 34 29.9860000  0  6 19  2 18 16 27 31
  16518798.529   -35373880.75649 -27548802.19949  16518799.4654   16518805.2494
  17774477.393   -30580055.34149 -23790885.12949  17774478.7184   17774485.7864
  18246413.585   -19854944.84449 -15452234.09849  18246413.7104   18246420.6494
  19814381.176   -21840530.16849 -16989282.57349  19814383.3094   19814392.4694
  16509734.790   -41300576.63549 -32149923.62749  16509736.6434   16509742.2074
  17865311.812   -36671606.57549 -28545735.43349  17865311.5654   17865317.2094
 95  3 22 19 34 59.9860000  0  6 19  2 18 16 27 31
  16511187.051   -35413879.03049 -27579969.70149  16511188.2994   16511193.9184
  17752664.825   -30694685.87049 -23880207.59249  17752665.7874   17752672.5894
  18253158.032   -19819504.85449 -15424618.57349  18253158.2704   18253164.1684
  19806152.346   -21883786.92649 -17022989.19149  19806152.6894   19806160.3084
  16489814.314   -41405263.08949 -32231497.48849  16489815.6324   16489821.1464
  17861850.573   -36689778.23849 -28559895.18449  17861853.5744   17861859.4764
 95  3 22 19 35 29.9860000  0  6 19  2 18 16 27 31
  16503627.746   -35453603.59049 -27610923.92049  16503629.0054   16503634.5604
  17730902.600   -30809052.44849 -23969324.37849  17730902.7404   17730909.1824
  18259951.144   -19783805.00549 -15396800.56649  18259952.0324   18259958.1244
  19798009.398   -21926580.10949 -17056334.59549  19798009.6384   19798017.0734
  16469932.893   -41509743.24949 -32312910.59849  16469933.7664   16469939.2314
  17858502.061   -36707392.49049 -28573620.59249  17858501.6774   17858507.8864
 95  3 22 19 35 59.9860000  0  6 19  2 18 16 27 31
  16496122.711   -35493043.16349 -27641656.06349  16496123.6494   16496129.2794
  17709185.908   -30923171.17549 -24058248.04049  17709186.5644   17709192.7794
  18266796.582   -19747838.27849 -15368774.60449  18266796.2294   18266802.2354
  19789956.401   -21968899.53449 -17089310.83349  19789956.5294   19789963.9624
  16450090.205   -41614012.66849 -32394159.49549  16450092.0404   16450097.4094
  17855258.771   -36724437.78149 -28586902.65449  17855258.1174   17855263.9314
 95  3 22 19 36 29.9860000  0  6 19  2 18 16 27 31
  16488673.081   -35532188.45549 -27672158.90549  16488674.7074   16488680.5094
  17687513.087   -31037055.20249 -24146988.82349  17687515.0084   17687521.6654
  18273691.001   -19711603.92949 -15340540.10349  18273691.2764   18273697.6824
  19781992.694   -22010755.55149 -17121925.96849  19781991.4904   19781999.8314
  16430288.874   -41718069.31549 -32475242.59549  16430290.4434   16430295.9614
  17852123.644   -36740910.29049 -28599738.39449  17852123.5294   17852129.2254
 95  3 22 19 36 59.9860000  0  6 19  2 18 16 27 31
  16481278.548   -35571049.10949 -27702439.94849  16481279.7274   16481285.5144
  17665889.853   -31150698.09149 -24235541.70549  17665889.4834   17665896.3884
  18280638.361   -19675089.60149 -15312087.43549  18280639.3674   18280646.7254
  19774111.199   -22052152.05049 -17154183.05049  19774113.2864   19774122.6794
  16410533.003   -41821890.36949 -32556142.11149  16410534.0634   16410539.6444
  17849098.610   -36756804.49749 -28612123.50549  17849098.9374   17849104.6104
 95  3 22 19 37 29.9860000  0  6 19  2 18 16 27 31
  16473940.131   -35609612.99249 -27732489.74249  16473941.3614   16473947.0804
  17644312.667   -31264084.51349 -24323894.73749  17644312.6604   17644319.4794
  18287642.858   -19638292.83249 -15283414.68349  18287641.7284   18287648.6594
  19766327.407   -22093065.43749 -17186063.68749  19766328.2844   19766336.9694
  16390828.487   -41925440.14649 -32636830.24749  16390829.0454   16390834.6004
  17846184.668   -36772120.30749 -28624057.91849  17846184.3004   17846190.0984
 95  3 22 19 37 59.9860000  0  6 19  2 18 16 27 31
  16466660.257   -35647874.76049 -27762304.12549  16466660.3004   16466666.0184
  17622786.026   -31377202.89749 -24412038.91149  17622786.8914   17622793.6184
  18294695.305   -19601223.50549 -15254529.55849  18294695.5294   18294703.3104
  19758635.489   -22133483.00049 -17217557.95149  19758637.3754   19758646.1324
  16371179.207   -42028693.61149 -32717287.49149  16371180.6534   16371186.4154
  17843374.537   -36786869.06849 -28635550.47349  17843377.8414   17843383.9254
 95  3 22 19 38 29.9860000  0  6 19  2 18 16 27 31
  16459434.218   -35685842.28549 -27791889.22949  16459435.5824   16459441.2294
  17601316.935   -31490027.96849 -24499954.53949  17601317.2414   17601323.5954
  18301801.597   -19563878.06349 -15225429.28049  18301802.7994   18301809.6204
  19751040.363   -22173403.38749 -17248664.80249  19751040.3774   19751049.2564
  16351590.351   -42131636.38049 -32797502.63649  16351591.4774   16351596.9684
  17840675.157   -36801060.04649 -28646608.39549  17840677.4074   17840683.4814
 95  3 22 19 38 59.9860000  0  7 19  2 18 16 27  7 31
  16452264.397   -35723520.38549 -27821248.80449  16452265.5954   16452271.1904
  17579905.764   -31602545.48149 -24587630.50849  17579905.8634   17579912.3944
  18308959.553   -19526272.28649 -15196126.14149  18308958.9274   18308965.2664
  19743539.185   -22212818.32749 -17279377.81549  19743540.6034   19743549.2254
  16332060.443   -42234266.10649 -32877473.84849  16332061.5134   16332067.2594
  20356801.890    -4817557.99259  -3732557.45959  20356797.3254   20356808.9444
  17838083.529   -36814687.11549 -28657226.90749  17838084.4784   17838090.5304
 95  3 22 19 39 29.9850000  0  7 19  2 18 16 27  7 31
  16445150.063   -35760907.10249 -27850381.32449  16445151.2234   16445157.0944
  17558551.337   -31714760.12249 -24675070.46849  17558552.0414   17558558.8564
  18316160.348   -19488414.56049 -15166626.68349  18316163.1704   18316169.4954
  19736135.634   -22251727.21249 -17309696.49749  19736136.2194   19736144.6904
  16312585.312   -42336606.78949 -32957219.82849  16312586.7954   16312592.4204
  20324007.737    -4989901.69549  -3866851.02149  20323999.9014   20324012.7934
  17835597.857   -36827755.37649 -28667409.98449  17835597.4264   17835603.1334
 95  3 22 19 39 59.9850000  0  6 19  2 18 16 27 31
  16438090.736   -35798007.47649 -27879290.72249  16438091.0504   16438097.0494
  17537252.963   -31826683.50449 -24762283.48449  17537253.5424   17537260.2154
  18323416.857   -19450290.89849 -15136920.00449  18323417.8294   18323423.7644
  19728824.201   -22290145.59149 -17339632.95149  19728825.0074   19728833.7054
  16293160.129   -42438686.56849 -33036762.50549  16293161.7764   16293167.2464
  17833217.789   -36840253.29649 -28677148.63749  17833219.1604   17833225.0314
 95  3 22 19 40 29.9850000  0  6 19  2 18 16 27 31
  16431084.248   -35834824.85649 -27907979.60649  16431084.9164   16431090.8904
  17516007.883   -31938325.61049 -24849277.32649  17516008.8724   17516015.6504
  18330721.633   -19411897.61949 -15107003.23249  18330723.5294   18330729.8104
  19721603.485   -22328093.33949 -17369202.68649  19721604.1564   19721612.9934
  16273783.234   -42540520.80349 -33116113.85349  16273783.2384   16273788.6114
  17830950.733   -36852173.71349 -28686437.29149  17830950.9674   17830956.9304
 95  3 22 19 40 59.9850000  0  7 19  2 18 16 27  7 31
  16424132.029   -35871354.76049 -27936444.48149  16424133.6134   16424139.4944
  17494812.383   -32049708.79449 -24936069.40549  17494813.1874   17494819.9234
  18338078.376   -19373240.85049 -15076881.13949  18338079.5244   18338085.7844
  19714471.739   -22365570.55249 -17398405.79149  19714472.5944   19714482.0964
  16254450.128   -42642113.91849 -33195277.31949  16254450.6414   16254456.1724
  20225626.810     -152358.76619
  17828795.317   -36863512.61249 -28695272.81249  17828793.5034   17828799.1484
 95  3 22 19 41 29.9850000  0  7 19  2 18 16 27  7 31
  16417236.753   -35907590.73849 -27964680.32649  16417237.8764   16417243.9684
  17473665.033   -32160837.72549 -25022663.35449  17473666.1104   17473672.8344
  18345487.771   -19334311.76549 -15046546.85349  18345487.6524   18345494.3504
  19707428.129   -22402584.08149 -17427247.56949  19707429.5774   19707438.0134
  16235163.664   -42743465.96749 -33274252.94049  16235164.4974   16235169.5154
  20192852.725     -324596.38359   -224963.37359  20192852.9854   20192863.1464
  17826742.535   -36874288.60149 -28703669.70349  17826742.8944   17826748.4834
 95  3 22 19 41 59.9850000  0  7 19  2 18 16 27  7 31
  16410398.843   -35943522.41749 -27992679.05249  16410400.3804   16410406.5974
  17452567.861   -32271705.74549 -25109054.00549  17452568.7644   17452575.2484
  18352947.402   -19295117.38149 -15016005.84249  18352946.4644   18352953.1444
  19700472.213   -22439141.52649 -17455733.95149  19700472.9844   19700481.7074
  16215926.743   -42844553.17049 -33353022.18649  16215927.8894   16215933.2544
  20160083.909     -496779.74749   -359132.03049  20160088.6424   20160097.9014
  17824800.198   -36884496.81449 -28711624.16849  17824800.3274   17824805.8744
 95  3 22 19 42 29.9850000  0  7 19  2 18 16 27  7 31
  16403619.272   -35979152.12249 -28020442.47349  16403620.1664   16403626.5484
  17431519.605   -32382318.57149 -25195245.79749  17431519.6794   17431526.0914
  18360447.730   -19255684.92949 -14985279.32449  18360450.3144   18360457.2554
  19693602.934   -22475242.40349 -17483864.57349  19693603.3794   19693612.0084
  16196743.219   -42945368.24949 -33431579.38549  16196743.2804   16196748.9404
  20127329.322     -668927.60649   -493273.02349  20127329.4384   20127339.2164
  17822958.988   -36894161.42549 -28719155.04349  17822960.8594   17822966.7194
 95  3 22 19 42 59.9850000  0  7 19  2 18 16 27  7 31
  16396897.489   -36014476.14649 -28047967.70249  16396898.5474   16396904.4084
  17410521.211   -32492665.91949 -25281230.72449  17410521.3064   17410527.8064
  18367995.527   -19216026.39749 -14954376.63949  18367997.6264   18368004.0104
  19686822.026   -22510877.95249 -17511632.60649  19686821.8304   19686830.7994
  16177610.794   -43045904.10849 -33509919.00549  16177611.9814   16177617.6994
  20094573.425     -841053.52049   -627396.90249  20094575.5894   20094585.1604
  17821221.280   -36903285.38449 -28726264.63349  17821224.6584   17821230.4604
 95  3 22 19 43 29.9850000  0  7 19  2 18 16 27  7 31
  16390232.325   -36049502.82349 -28075261.23149  16390233.1794   16390238.9044
  17389575.838   -32602734.47449 -25366998.41349  17389576.0934   17389582.5664
  18375583.332   -19176153.82749 -14923307.15949  18375585.4454   18375591.5744
  19680123.487   -22546067.66849 -17539053.23649  19680125.4104   19680134.2534
  16158532.125   -43146162.97149 -33588042.78949  16158533.2964   16158538.6804
  20061818.824    -1013185.38649   -761525.44649  20061819.5554   20061829.1754
  17819589.511   -36911878.91149 -28732960.90549  17819589.4714   17819595.3024
 95  3 22 19 43 59.9850000  0  7 19  2 18 16 27  7 31
  16383621.516   -36084234.16849 -28102324.63149  16383623.9084   16383629.7734
  17368683.091   -32712523.35649 -25452548.17249  17368683.4454   17368690.1434
  18383210.226   -19136074.24649 -14892076.38049  18383211.8604   18383218.2064
  19673517.160   -22580799.94649 -17566117.42649  19673516.2714   19673524.8854
  16139507.556   -43246139.84549 -33665946.84049  16139508.5254   16139513.9194
  20029060.417    -1185333.35749   -895666.54949  20029060.0884   20029069.3434
  17818055.099   -36919939.02349 -28739241.53249  17818055.3414   17818061.3454
 95  3 22 19 44 29.9850000  0  7 19  2 18 16 27  7 31
  16377069.398   -36118669.74349 -28129157.55849  16377071.3984   16377077.2394
  17347846.093   -32822024.05449 -25537873.37949  17347846.4504   17347853.1174
  18390878.824   -19095771.00849 -14860671.32049  18390880.8294   18390887.6284
  19666994.211   -22615062.55849 -17592815.63249  19666996.0434   19667004.8544
  16120536.028   -43345831.78549 -33743628.86649  16120537.7264   16120542.8894
  19996295.789    -1357501.01449  -1029822.93649  19996297.7894   19996307.4884
  17816620.864   -36927475.23949 -28745113.93149  17816621.2764   17816627.4424
 95  3 22 19 44 59.9850000  0  7 19  2 18 16 27  7 31
  16370574.506   -36152800.63949 -28155753.07349  16370576.3224   16370582.1694
  17327065.160   -32931229.05949 -25622968.17149  17327065.3844   17327072.0924
  18398594.290   -19055224.95149 -14829077.05849  18398596.2064   18398603.0514
  19660562.459   -22648858.94449 -17619150.53449  19660565.4704   19660574.2234
  16101621.353   -43445235.40949 -33821086.23349  16101621.8604   16101627.2994
  19963534.855    -1529674.19849  -1163983.63049  19963533.8024   19963544.6104
  17815287.852   -36934488.46549 -28750578.80449  17815286.7814   17815292.9054
 95  3 22 19 45 29.9850000  0  7 19  2 18 16 27  7 31
  16364138.018   -36186630.83649 -28182114.28049  16364138.6134   16364144.3514
  17306337.338   -33040155.43149 -25707845.84549  17306337.5814   17306344.2114
  18406357.813   -19014429.11749 -14797288.16949  18406359.6604   18406366.5084
  19654220.394   -22682201.22549 -17645131.60149  19654220.6894   19654229.9444
  16082759.000   -43544352.37849 -33898320.22649  16082760.3914   16082765.9604
  19930770.945    -1701844.68849  -1298142.23849  19930771.9164   19930781.2614
  17814049.014   -36940994.74149 -28755648.65249  17814049.0174   17814055.1534
 95  3 22 19 45 59.9850000  0  7 19  2 18 16 27  7 31
  16357757.252   -36220159.08649 -28208240.20449  16357758.1934   16357763.9984
  17285657.098   -33148824.27449 -25792522.85049  17285658.5484   17285665.0814
  18414169.273   -18973385.44749 -14765306.16049  18414170.1054   18414176.9084
  19647960.623   -22715094.85149 -17670763.07949  19647961.6594   19647969.9924
  16063951.389   -43643189.03649 -33975335.79649  16063952.2924   16063957.9274
  19898012.661    -1873992.12549  -1432282.88349  19898012.3894   19898023.4664
  17812906.292   -36947000.50249 -28760328.48949  17812906.4124   17812912.4434
 95  3 22 19 46 29.9850000  0  7 19  2 18 16 27  7 31
  16351432.291   -36253396.85849 -28234139.77849  16351433.4934   16351439.2824
  17265024.828   -33257249.42449 -25877009.96149  17265025.8404   17265032.1814
  18422024.501   -18932105.37449 -14733139.92949  18422025.6454   18422031.9174
  19641779.707   -22747565.91349 -17696065.28049  19641781.6634   19641790.6514
  16045195.261   -43741752.07949 -34052138.16149  16045196.7084   16045202.0244
  19865261.717    -2046094.73849  -1566388.62349  19865262.6534   19865272.1334
  17811859.992   -36952507.71349 -28764619.84449  17811858.2424   17811864.4384
 95  3 22 19 46 59.9850000  0  7 19  2 18 16 27  7 31
  16345162.385   -36286345.51449 -28259814.06849  16345163.7554   16345169.3824
  17244438.562   -33365431.38949 -25961307.57649  17244439.3364   17244445.9984
  18429922.745   -18890597.61149 -14700796.27949  18429924.5664   18429931.0564
  19635683.721   -22779609.94749 -17721034.72549  19635684.5364   19635693.5264
  16026491.086   -43840042.93249 -34128728.42949  16026492.4054   16026497.9294
  19832527.038    -2218132.47149  -1700443.77649  19832522.8044   19832533.3594
  17810908.355   -36957494.29749 -28768505.51549  17810909.2304   17810915.4394
 95  3 22 19 47 29.9850000  0  7 19  2 18 16 27  7 31
  16338946.587   -36319009.82249 -28285266.78949  16338947.9644   16338953.9084
  17223898.767   -33473367.08749 -26045413.29349  17223900.0394   17223906.2984
  18437864.880   -18848868.50949 -14668280.15849  18437865.4664   18437871.9964
  19629671.543   -22811208.01049 -17745656.66549  19629671.2944   19629679.7194
  16007839.194   -43938056.95949 -34205102.99349  16007840.9064   16007846.3984
  19799804.275    -2390085.03549  -1834432.56249  19799802.4804   19799812.9704
  17810063.561   -36961938.04249 -28771968.19449  17810063.8794   17810069.4824
 95  3 22 19 47 59.9850000  0  7 19  2 18 16 27  7 31
  16332784.839   -36351392.76349 -28310500.26249  16332785.4384   16332791.4154
  17203408.944   -33581046.13849 -26129319.02749  17203409.3694   17203415.6724
  18445845.074   -18806936.93749 -14635606.27149  18445844.8874   18445851.7454
  19623743.033   -22842357.75549 -17769929.25349  19623744.1924   19623751.9944
  15989242.282   -44035788.78349 -34281257.66049  15989243.1294   15989248.6134
  19767096.697    -2561949.74049  -1968352.93249  19767096.2184   19767106.7694
  17809321.490   -36965833.46949 -28775003.60649  17809322.5764   17809328.0114
 95  3 22 19 48 29.9850000  0  7 19  2 18 16 27  7 31
  16326673.914   -36383501.46849 -28335520.04649  16326675.4034   16326681.3394
  17182968.723   -33688458.15849 -26213016.68849  17182969.2784   17182976.0984
  18453858.661   -18764815.40249 -14602784.35649  18453860.1034   18453867.4264
  19617900.910   -22873060.80149 -17793853.77349  19617901.6014   19617909.8724
  15970697.194   -44133245.51449 -34357197.96849  15970697.8944   15970703.2594
  19734401.657    -2733755.42849  -2102227.25049  19734403.8024   19734413.5544
  17808680.101   -36969197.16249 -28777624.68549  17808682.3414   17808688.1114
 95  3 22 19 48 59.9850000  0  7 19  2 18 16 27  7 31
  16320615.807   -36415337.37049 -28360327.25149  16320617.1124   16320623.0944
  17162578.956   -33795609.19549 -26296510.97949  17162579.2714   17162585.8534
  18461909.973   -18722509.55549 -14569818.83049  18461910.8184   18461918.2754
  19612142.363   -22903329.52149 -17817439.84849  19612141.8124   19612150.6124
  15952203.073   -44230430.04949 -34432926.17249  15952204.3114   15952209.5584
  19701713.717    -2905539.51049  -2236084.80949  19701714.0874   19701724.0384
  17808138.129   -36972047.12749 -28779845.46049  17808140.0534   17808146.1164
 95  3 22 19 49 29.9850000  0  7 19  2 18 16 27  7 31
  16314612.131   -36446886.47849 -28384910.98649  16314613.5784   16314619.6924
  17142237.355   -33902503.61749 -26379805.31049  17142238.0564   17142244.6144
  18469994.504   -18680016.76949 -14536707.63149  18469997.3324   18470004.2284
  19606458.929   -22933179.86749 -17840699.93349  19606461.5214   19606469.6164
  15933764.785   -44327328.55849 -34508431.50249  15933765.0374   15933770.4084
  19669020.753    -3077316.32049  -2369936.69349  19669026.3314   19669034.8394
  17807693.178   -36974397.78249 -28781677.16349  17807693.1464   17807698.9794
 95  3 22 19 49 59.9850000  0  7 19  2 18 16 27  7 31
  16308665.049   -36478139.55549 -28409264.04549  16308666.2444   16308672.2524
  17121945.195   -34009138.74849 -26462897.60649  17121946.0444   17121952.4494
  18478118.764   -18637336.02149 -14503449.95749  18478119.0994   18478125.8344
  19600857.895   -22962628.13749 -17863646.69649  19600858.0324   19600865.8334
  15915377.318   -44423947.44449 -34583718.94049  15915378.7824   15915384.3994
  19636334.772    -3249105.27749  -2503798.03949  19636334.7164   19636344.2354
  17807337.705   -36976260.30049 -28783128.49949  17807338.4324   17807344.3164
 95  3 22 19 50 29.9850000  0  7 19  2 18 16 27  7 31
  16302770.402   -36509107.14949 -28433394.65049  16302773.1694   16302779.4304
  17101699.090   -34115531.10649 -26545800.72749  17101700.1404   17101706.4804
  18486275.820   -18594466.09749 -14470044.87849  18486276.8834   18486283.6584
  19595323.748   -22991689.49249 -17886291.99549  19595326.6944   19595336.5714
  15897042.131   -44520304.35349 -34658802.24049  15897043.0254   15897048.3734
  19603636.522    -3420915.85349  -2637676.28349  19603639.8924   19603650.1784
  17807073.470   -36977647.06549 -28784209.11949  17807074.5074   17807080.4034
 95  3 22 19 50 59.9850000  0  7 19  2 18 16 27  7 31
  16296933.912   -36539791.35649 -28457304.43849  16296934.5904   16296940.6254
  17081499.676   -34221684.24449 -26628517.43249  17081499.8224   17081506.3784
  18494470.484   -18551404.82249 -14436490.70449  18494471.0034   18494478.1724
  19589869.311   -23020362.63649 -17908634.78249  19589870.4534   19589879.7754
  15878755.921   -44616396.53949 -34733679.25949  15878757.2494   15878762.6384
  19570945.283    -3592729.24449  -2771556.67549  19570944.8784   19570956.3164
  17806900.998   -36978548.03049 -28784911.19049  17806902.8484   17806908.8014
 95  3 22 19 51 29.9850000  0  7 19  2 18 16 27  7 31
  16291147.177   -36570200.54449 -28480999.92749  16291147.7694   16291153.8604
  17061345.321   -34327589.06649 -26711040.64649  17061346.7584   17061353.2414
  18502698.622   -18508167.05849 -14402798.99949  18502698.8284   18502705.7664
  19584486.016   -23048637.66349 -17930667.37549  19584489.9214   19584499.2264
  15860518.886   -44712232.03949 -34808356.26649  15860520.4524   15860525.7314
  19538251.449    -3764526.69149  -2905424.67349  19538253.6454   19538264.0484
  17806821.773   -36978960.83349 -28785232.87649  17806824.5144   17806829.9714
 95  3 22 19 51 59.9840000  0  7 19  2 18 16 27  7 31
  16285407.097   -36600359.61749 -28504500.51749  16285408.5284   16285414.7984
  17041241.678   -34433238.43449 -26793364.80649  17041242.1804   17041248.6504
  18510957.876   -18464761.42449 -14368976.50349  18510958.7734   18510965.8714
  19579186.187   -23076515.15449 -17952390.16049  19579186.0474   19579194.7914
  15842329.854   -44807818.97549 -34882839.59149  15842330.8464   15842336.1364
  19505564.632    -3936296.27249  -3039270.96849  19505566.6374   19505576.7404
  17806836.659   -36978889.25949 -28785177.12049  17806838.1004   17806843.9784
 95  3 22 19 52 29.9840000  0  7 19  2 18 16 27  7 31
  16279716.122   -36630266.93649 -28527804.93349  16279717.2484   16279723.5784
  17021183.277   -34538643.51749 -26875498.62649  17021184.3774   17021190.9154
  18519250.584   -18421181.79249 -14335018.41449  18519251.5084   18519258.5354
  19573956.717   -23103990.01349 -17973799.21949  19573957.7844   19573966.5614
  15824190.280   -44903140.64149 -34957116.21149  15824191.6644   15824197.0694
  19472884.306    -4108029.57949  -3173088.98249  19472887.1024   19472896.7714
  17806945.331   -36978330.53249 -28784741.77349  17806944.4954   17806950.4604
 95  3 22 19 52 59.9840000  0  7 19  2 18 16 27  7 31
  16274074.479   -36659913.84649 -28550906.43649  16274075.7594   16274081.8694
  17001173.008   -34643802.87449 -26957440.97149  17001173.2834   17001179.7704
  18527575.655   -18377435.37849 -14300930.35949  18527576.6594   18527583.3404
  19568804.017   -23131058.89449 -17994891.94849  19568806.1744   19568815.4124
  15806105.250   -44998181.68849 -35031174.16549  15806105.9094   15806111.3084
  19440216.248    -4279712.84549  -3306868.03049  19440216.1614   19440226.6074
  17807143.528   -36977278.81049 -28783922.27049  17807144.6364   17807150.8514
 95  3 22 19 53 29.9840000  0  7 19  2 18 16 27  7 31
  16268482.438   -36689302.68149 -28573806.84549  16268483.4834   16268489.5304
  16981207.558   -34748721.87649 -27039196.03049  16981207.6714   16981214.0594
  18535931.237   -18333518.77349 -14266709.68249  18535933.6504   18535940.7814
  19563730.464   -23157724.27649 -18015670.25249  19563730.7814   19563742.0434
  15788076.360   -45092926.24049 -35105001.08949  15788076.8794   15788082.1264
  19407558.881    -4451337.23849  -3440601.19249  19407557.9434   19407566.7614
  17807437.325   -36975741.75849 -28782724.59149  17807436.9824   17807443.1194
 95  3 22 19 53 59.9840000  0  7 19  2 18 16 27  7 31
  16262942.329   -36718414.46449 -28596491.36749  16262943.6414   16262949.7844
  16961285.144   -34853411.15249 -27120772.07349  16961285.8664   16961292.6214
  18544325.181   -18289417.16349 -14232344.85449  18544326.3444   18544332.9604
  19558734.942   -23183984.89649 -18036133.15749  19558734.9474   19558745.3244
  15770104.389   -45187366.43549 -35178590.85249  15770105.2514   15770110.6014
  19374912.266    -4622900.39749  -3574286.62749  19374910.3544   19374919.8384
  17807819.607   -36973732.83049 -28781159.21549  17807819.2544   17807825.3694
 95  3 22 19 54 29.9840000  0  7 19  2 18 16 27  7 31
  16257459.572   -36747225.77249 -28618941.74949  16257460.9904   16257467.0714
  16941408.815   -34957864.54649 -27202164.31149  16941409.1134   16941415.7984
  18552751.130   -18245143.59549 -14197846.03249  18552751.2704   18552758.0594
  19553814.192   -23209838.60849 -18056279.00649  19553815.5904   19553824.8004
  15752190.680   -45281500.40149 -35251941.99649  15752192.1184   15752197.4634
  19342273.924    -4794390.92149  -3707915.49049  19342277.1074   19342286.4144
  17808288.011   -36971265.23149 -28779236.43549  17808289.2214   17808295.2424
 95  3 22 19 54 59.9840000  0  7 19  2 18 16 27  7 31
  16252033.402   -36775744.93349 -28641164.48649  16252034.3124   16252039.9534
  16921578.163   -35062074.96549 -27283367.22349  16921578.7014   16921585.1504
  18561204.900   -18200713.14349 -14163224.96749  18561205.8064   18561213.2344
  19548973.456   -23235287.74249 -18076109.56649  19548972.4614   19548982.4114
  15734334.983   -45375339.48849 -35325063.36149  15734335.2644   15734340.6354
  19309655.703    -4965811.71949  -3841489.97049  19309656.2284   19309665.6314
  17808843.116   -36968353.94049 -28776967.92349  17808843.0574   17808849.2134
 95  3 22 19 55 29.9840000  0  7 19  2 18 16 27  7 31
  16246663.048   -36803964.53949 -28663153.80249  16246664.1994   16246669.8974
  16901795.245   -35166038.33649 -27364377.63049  16901795.2114   16901801.6574
  18569687.559   -18156133.12649 -14128487.36549  18569689.4824   18569696.6274
  19544204.465   -23260335.03649 -18095627.02349  19544206.5774   19544215.0514
  15716533.271   -45468888.41849 -35397958.63149  15716533.4674   15716538.7144
  19277051.126    -5137164.61149  -3975011.58549  19277049.0064   19277058.2004
  17809480.149   -36965011.40349 -28774363.37449  17809478.8624   17809484.9414
 95  3 22 19 55 59.9840000  0  7 19  2 18 16 27  7 31
  16241355.341   -36831858.53249 -28684889.39649  16241356.0454   16241361.9494
  16882056.988   -35269756.41449 -27445196.90249  16882057.9684   16882064.7104
  18578197.926   -18111413.66349 -14093641.11249  18578199.0564   18578206.7224
  19539514.597   -23284990.06149 -18114838.79349  19539514.9894   19539524.4684
  15698782.243   -45562165.79349 -35470642.29949  15698783.2644   15698788.7824
  19244450.781    -5308455.07849  -4108484.52749  19244453.1004   19244461.9954
  17810196.288   -36961226.93549 -28771414.46249  17810198.9734   17810204.9804
 95  3 22 19 56 29.9840000  0  7 19  2 18 16 27  7 31
  16236106.545   -36859439.75349 -28706381.27149  16236107.3624   16236113.7144
  16862368.427   -35373223.93349 -27525820.92949  16862368.7904   16862375.5354
  18586733.043   -18066557.85849 -14058688.60749  18586735.3784   18586742.2384
  19534895.839   -23309261.56649 -18133751.74249  19534895.4314   19534906.9374
  15681084.997   -45655165.14849 -35543109.32949  15681086.0864   15681091.5394
  19211872.884    -5479680.21449  -4241906.58849  19211870.1464   19211879.3274
  17811006.779   -36956983.89949 -28768108.22249  17811006.6214   17811013.0884
 95  3 22 19 56 59.9840000  0  7 19  2 18 16 27  7 31
  16230916.405   -36886711.34349 -28727631.86949  16230917.8644   16230923.9864
  16842723.524   -35476458.62849 -27606263.53749  16842723.9714   16842730.4994
  18595299.604   -18021547.98349 -14023616.03449  18595300.2784   18595307.7564
  19530349.069   -23333153.61749 -18152369.00649  19530349.9804   19530358.9804
  15663441.703   -45747882.44649 -35615356.56749  15663442.5014   15663448.0134
  19179300.396    -5650843.99249  -4375280.79749  19179299.3404   19179307.2004
  17811904.923   -36952261.75049 -28764428.64249  17811905.4994   17811911.3484
